Date StartTime U_cm/s V_cm/s W_cm/s Ustd_cm/s Vstd_cm/s Wstd_cm/s Uvar_(cm/s)^2 Vvar_(cm/s)^2 Wvar_(cm/s)^2 KE_(m/s)^2 TurbulentKE_(m/s)^2 HorizWindSpeed_cm/s FrictionSpeec_cm/s DragCoef SpeedOfSound_m/s SonicTemperature_C Pressure_mb 
07/17/2014  00:00:00     -120.729       31.127      -19.553       71.551       72.697       37.157     5119.506     5284.903     1380.664        1.385        0.589      124.677       25.507        0.042      348.560       28.345      861.285
07/17/2014  00:01:00      -52.257       22.905        1.267       60.171       23.969       22.445     3620.523      574.508      503.790        0.398        0.235       57.056       24.442        0.184      348.505       28.251      861.301
07/17/2014  00:02:00      -32.944       54.430       16.867       49.694       48.208       31.523     2469.529     2324.045      993.713        0.506        0.289       63.623       20.432        0.103      348.418       28.100      861.314
07/17/2014  00:03:00       12.049      112.130      -13.511       36.221       54.059       30.253     1311.960     2922.393      915.241        0.902        0.257      112.776       30.273        0.072      348.435       28.129      861.301
07/17/2014  00:04:00      -30.331       95.277      -11.042       30.131       38.523       23.682      907.857     1484.037      560.835        0.654        0.148       99.988       20.553        0.042      348.455       28.162      861.287
07/17/2014  00:05:00        0.865      139.114      -19.695       36.039       55.041       23.539     1298.779     3029.558      554.075        1.231        0.244      139.116       21.704        0.024      348.481       28.209      861.300
07/17/2014  00:06:00      -35.018       68.047      -10.703       32.638       43.732       23.479     1065.217     1912.461      551.269        0.475        0.176       76.529       21.817        0.081      348.424       28.110      861.311
07/17/2014  00:07:00      -67.002       39.911      -12.324       66.134       47.293       20.674     4373.752     2236.642      427.428        0.663        0.352       77.988       29.238        0.141      348.498       28.238      861.314
07/17/2014  00:08:00       16.463       52.035      -18.195       47.799       39.904       21.089     2284.776     1592.357      444.744        0.381        0.216       54.578       13.127        0.058      348.299       27.894      861.307
07/17/2014  00:09:00       10.801       73.090       13.878       28.216       59.453       26.265      796.121     3534.631      689.866        0.534        0.251       73.884       14.379        0.038      348.439       28.136      861.307
07/17/2014  00:10:00       -1.877       60.190       10.330       26.101       40.416       25.069      681.240     1633.424      628.449        0.334        0.147       60.219       16.130        0.072      348.338       27.961      861.303
07/17/2014  00:11:00       18.211       66.833        2.905       28.262       28.723       26.323      798.737      824.986      692.899        0.356        0.116       69.269        9.310        0.018      348.473       28.193      861.301
07/17/2014  00:12:00       -4.016       70.285       -5.225       30.961       24.577       23.001      958.590      604.044      529.062        0.354        0.105       70.400       21.816        0.096      348.520       28.277      861.297
07/17/2014  00:13:00      -16.296       26.746        9.024       54.595       45.946       20.913     2980.619     2111.013      437.346        0.329        0.276       31.320       23.428        0.560      348.319       27.929      861.312
07/17/2014  00:14:00      -57.336      -32.730        2.801       43.525       29.709       22.302     1894.450      882.596      497.357        0.382        0.164       66.020       22.388        0.115      348.414       28.093      861.322
07/17/2014  00:15:00       -8.430       -9.288       14.152       22.485       37.414       19.041      505.594     1399.803      362.543        0.131        0.113       12.543       20.212        2.596      348.157       27.650      861.327
07/17/2014  00:16:00       18.073        6.647       19.803       21.240       21.754       16.866      451.152      473.230      284.451        0.099        0.060       19.256       14.240        0.547      347.890       27.187      861.323
07/17/2014  00:17:00       18.155        2.433       22.098       21.353       15.244       17.878      455.929      232.370      319.609        0.092        0.050       18.318       12.613        0.474      347.837       27.095      861.319
07/17/2014  00:18:00       32.950      -17.009       11.939       17.712       11.842       12.754      313.726      140.237      162.669        0.107        0.031       37.081        5.216        0.020      347.904       27.212      861.336
07/17/2014  00:19:00        7.239        6.624       21.649       14.748       15.728       11.703      217.511      247.360      136.959        0.058        0.030        9.812        8.993        0.840      347.787       27.009      861.343
07/17/2014  00:20:00       26.996      -14.562       10.181       29.125       20.400       24.766      848.262      416.170      613.343        0.146        0.094       30.674       15.162        0.244      347.696       26.852      861.338
07/17/2014  00:21:00       19.443       -7.924       16.434       25.416       29.201       22.390      645.953      852.720      501.301        0.136        0.100       20.996       12.236        0.340      347.708       26.873      861.336
07/17/2014  00:22:00       21.689       -6.310       14.409       22.341       21.448       20.754      499.121      460.001      430.713        0.105        0.069       22.588       20.936        0.859      347.764       26.969      861.343
07/17/2014  00:23:00       57.249      -31.707        2.879       22.847       25.656       24.100      522.002      658.255      580.793        0.303        0.088       65.443        8.270        0.016      347.728       26.906      861.357
07/17/2014  00:24:00       26.573      -12.389       10.166       27.781       26.502       19.544      771.788      702.356      381.953        0.141        0.093       29.319       13.792        0.221      347.658       26.787      861.356
07/17/2014  00:25:00       31.403       11.570       25.719       29.084       28.274       17.040      845.864      799.417      290.372        0.186        0.097       33.466       15.986        0.228      347.741       26.929      861.358
07/17/2014  00:26:00       39.563      -26.338        3.998       27.647       24.768       22.524      764.382      613.435      507.328        0.208        0.094       47.528       20.241        0.181      347.876       27.161      861.338
07/17/2014  00:27:00       18.032        6.443       17.646       20.779       13.352       11.936      431.753      178.288      142.461        0.072        0.038       19.149        8.639        0.204      347.813       27.053      861.337
07/17/2014  00:28:00       48.142       32.694        9.513       21.518       15.505       13.240      463.032      240.414      175.310        0.218        0.044       58.195       11.617        0.040      347.892       27.189      861.341
07/17/2014  00:29:00       44.862       25.502       25.452       33.744       20.737       21.720     1138.633      430.007      471.774        0.268        0.102       51.603       13.377        0.067      347.866       27.147      861.345
07/17/2014  00:30:00       56.798       75.568       -4.291       48.642       43.172       31.250     2366.027     1863.806      976.577        0.708        0.260       94.534       29.144        0.095      347.997       27.372      861.338
07/17/2014  00:31:00       12.191      104.884      -15.065       32.861       36.524       26.984     1079.833     1334.016      728.146        0.726        0.157      105.590       20.830        0.039      347.928       27.251      861.350
07/17/2014  00:32:00       16.835       81.478       -3.888       14.393       18.575       12.825      207.152      345.039      164.477        0.383        0.036       83.199        9.739        0.014      347.838       27.098      861.364
07/17/2014  00:33:00       48.731       84.473       -9.531       24.496       29.998       19.729      600.062      899.897      389.221        0.574        0.094       97.521       13.200        0.018      347.893       27.191      861.376
07/17/2014  00:34:00       66.580       54.734       15.969       34.775       16.538       17.694     1209.271      273.504      313.066        0.474        0.090       86.190       13.466        0.024      347.897       27.197      861.373
07/17/2014  00:35:00       68.844       38.043       20.909       40.603       26.651       16.066     1648.581      710.296      258.124        0.462        0.131       78.656       11.586        0.022      347.840       27.100      861.370
07/17/2014  00:36:00       16.304       17.028        1.418       14.075       15.579       16.324      198.099      242.701      266.487        0.063        0.035       23.575       13.322        0.319      347.808       27.046      861.365
07/17/2014  00:37:00       27.273       52.840        2.441       60.880       49.533       35.416     3706.435     2453.541     1254.327        0.548        0.371       59.464       27.969        0.221      347.851       27.120      861.356
07/17/2014  00:38:00       39.408       83.557      -10.567       40.087       57.360       33.897     1606.968     3290.129     1149.025        0.735        0.302       92.384       33.267        0.130      347.810       27.051      861.348
07/17/2014  00:39:00      -33.297      133.710      -23.034       54.051       50.235       29.950     2921.535     2523.554      896.984        1.293        0.317      137.794       24.331        0.031      347.883       27.175      861.352
07/17/2014  00:40:00      -56.490      209.040      -33.584       39.642       52.856       23.606     1571.506     2793.753      557.267        2.647        0.246      216.538       22.528        0.011      347.709       26.870      861.359
07/17/2014  00:41:00       83.493      195.671      -25.122       61.056       79.807       46.355     3727.893     6369.104     2148.757        2.907        0.612      212.739       46.319        0.047      347.858       27.128      861.341
07/17/2014  00:42:00      101.924      149.691      -24.535       62.930       58.766       36.861     3960.181     3453.423     1358.719        2.108        0.439      181.097       39.280        0.047      347.954       27.296      861.324
07/17/2014  00:43:00       84.430       65.783        0.279       41.345       30.538       26.329     1709.415      932.554      693.213        0.739        0.167      107.032       18.849        0.031      347.851       27.119      861.297
07/17/2014  00:44:00       66.405       69.349       12.682       52.730       29.353       23.597     2780.479      861.587      556.840        0.679        0.210       96.015       17.814        0.034      347.830       27.083      861.288
07/17/2014  00:45:00       -8.507       77.129      -11.942       37.702       41.932       18.204     1421.430     1758.322      331.372        0.484        0.176       77.597       17.706        0.052      347.754       26.953      861.302
07/17/2014  00:46:00       -8.999       84.867       -6.638       43.116       42.801       18.012     1858.997     1831.892      324.433        0.567        0.201       85.343       11.890        0.019      347.630       26.738      861.293
07/17/2014  00:47:00        6.019      109.800       -9.849       41.268       54.557       33.218     1703.065     2976.450     1103.443        0.898        0.289      109.964       33.744        0.094      347.684       26.831      861.277
07/17/2014  00:48:00     -104.308       37.174      -16.848       41.420       38.483       22.960     1715.640     1480.948      527.161        0.813        0.186      110.735       17.258        0.024      347.619       26.719      861.290
07/17/2014  00:49:00      -96.167      -12.872      -11.176       33.130       21.697       14.840     1097.599      470.751      220.216        0.566        0.089       97.025       13.498        0.019      347.796       27.022      861.288
07/17/2014  00:50:00       -2.870      -22.084        6.445       21.725       15.582       12.645      471.956      242.786      159.900        0.071        0.044       22.270       12.322        0.306      347.696       26.852      861.274
07/17/2014  00:51:00       15.182      -15.230       -5.623       18.137       14.360       14.082      328.967      206.199      198.301        0.061        0.037       21.505        9.699        0.203      347.573       26.640      861.274
07/17/2014  00:52:00       22.749       -3.414        8.840       18.122       13.879       13.986      328.422      192.634      195.611        0.066        0.036       23.004        8.528        0.137      347.307       26.181      861.276
07/17/2014  00:53:00       34.808        0.116       -5.199       15.857       10.958       16.907      251.455      120.074      285.852        0.095        0.033       34.809        9.136        0.069      347.269       26.116      861.274
07/17/2014  00:54:00       62.545       20.037        4.436       17.394       16.717       16.264      302.540      279.452      264.517        0.259        0.042       65.676       10.194        0.024      347.466       26.456      861.268
07/17/2014  00:55:00       62.110       27.202        7.231       17.952       22.694       18.711      322.288      515.005      350.089        0.292        0.059       67.805       12.705        0.035      347.512       26.536      861.258
07/17/2014  00:56:00       21.262      -10.375        4.007       27.792       20.693       12.651      772.413      428.211      160.049        0.097        0.068       23.658       11.213        0.225      347.406       26.352      861.268
07/17/2014  00:57:00       -2.150      -24.647        2.150        8.555       14.494       11.470       73.183      210.068      131.551        0.052        0.021       24.740        8.811        0.127      347.441       26.412      861.270
07/17/2014  00:58:00       14.843      -13.577      -10.857        6.915       10.350       11.067       47.810      107.113      122.483        0.040        0.014       20.116        6.376        0.100      347.562       26.620      861.262
07/17/2014  00:59:00        6.130      -17.410        6.674       11.741       10.260        5.728      137.844      105.273       32.807        0.033        0.014       18.458        5.996        0.106      347.502       26.518      861.247
07/17/2014  01:00:00       13.652       -3.908        9.739       19.848       10.092        7.767      393.926      101.848       60.319        0.043        0.028       14.200        3.923        0.076      347.295       26.160      861.237
07/17/2014  01:01:00       25.983       -7.186        9.248       14.001        8.231       15.119      196.027       67.742      228.588        0.065        0.025       26.958        7.892        0.086      347.274       26.123      861.233
07/17/2014  01:02:00       -2.169        4.649        0.190       14.497       15.960       18.113      210.150      254.717      328.078        0.041        0.040        5.130       11.699        5.201      347.378       26.304      861.225
07/17/2014  01:03:00       -2.266       13.221       -2.798        8.161       12.900        8.893       66.608      166.404       79.078        0.025        0.016       13.413        6.395        0.227      347.502       26.518      861.211
07/17/2014  01:04:00        4.870       12.460       13.254       15.513       16.356       12.951      240.644      267.524      167.725        0.052        0.034       13.378       12.927        0.934      347.498       26.512      861.195
07/17/2014  01:05:00       32.163       15.062        6.966        8.473        8.257       17.028       71.798       68.180      289.948        0.087        0.021       35.515        6.287        0.031      347.444       26.416      861.185
07/17/2014  01:06:00        6.845       14.424        1.708        7.458       11.910        9.471       55.616      141.847       89.695        0.027        0.014       15.965        5.745        0.129      347.441       26.413      861.195
07/17/2014  01:07:00       14.106       10.285        4.855       15.981       22.212       15.504      255.408      493.389      240.374        0.066        0.049       17.457       13.222        0.574      347.851       27.118      861.197
07/17/2014  01:08:00       30.795      -10.383        8.411       13.216       18.503       18.711      174.676      342.370      350.088        0.100        0.043       32.499        7.295        0.050      347.358       26.268      861.193
07/17/2014  01:09:00       12.138        6.184       -2.108        9.531        9.813        8.124       90.841       96.292       66.004        0.022        0.013       13.622        6.235        0.210      347.382       26.310      861.186
07/17/2014  01:10:00      -11.514      -10.581       -3.475       13.786        7.063        5.656      190.060       49.887       31.996        0.026        0.014       15.638        6.681        0.183      347.331       26.222      861.178
07/17/2014  01:11:00        0.172        4.252        2.418        5.626        5.034        6.485       31.654       25.337       42.052        0.006        0.005        4.255        3.151        0.548      347.337       26.234      861.186
07/17/2014  01:12:00       19.607       23.133       -2.373       28.211       14.869       13.087      795.848      221.080      171.262        0.106        0.059       30.324        9.051        0.089      347.375       26.301      861.181
07/17/2014  01:13:00      -36.672       83.333      -15.056       19.032       60.116       22.489      362.218     3613.933      505.741        0.650        0.224       91.045       18.860        0.043      347.808       27.045      861.172
07/17/2014  01:14:00      -12.352       42.333        5.080       25.272       30.230       17.996      638.673      913.856      323.871        0.192        0.094       44.098        8.471        0.037      347.721       26.896      861.157
07/17/2014  01:15:00       15.292        6.603        3.747       14.639        7.655       15.030      214.295       58.605      225.902        0.040        0.025       16.656        6.723        0.163      347.483       26.485      861.154
07/17/2014  01:16:00       17.482       -1.668       -0.395       12.835       10.175       12.938      164.742      103.538      167.391        0.037        0.022       17.561        7.189        0.168      347.342       26.239      861.141
07/17/2014  01:17:00       19.135        8.200       -6.657       20.270       10.503       11.848      410.883      110.312      140.386        0.057        0.033       20.818        5.798        0.078      347.274       26.125      861.130
07/17/2014  01:18:00        9.801        6.985        1.182       15.063       10.298       14.468      226.885      106.059      209.329        0.034        0.027       12.035        7.674        0.407      347.148       25.907      861.119
07/17/2014  01:19:00      -24.734      -19.995        0.493       14.815       13.882        9.956      219.488      192.711       99.117        0.076        0.026       31.805        7.259        0.052      347.288       26.149      861.112
07/17/2014  01:20:00      -36.708      -34.116       -2.285       26.046       15.691       11.956      678.373      246.196      142.946        0.179        0.053       50.114       12.672        0.064      347.506       26.526      861.118
07/17/2014  01:21:00        9.388      -21.114       12.370       21.187       18.185       16.732      448.894      330.679      279.958        0.087        0.053       23.107       11.879        0.264      347.381       26.306      861.111
07/17/2014  01:22:00       24.377       -9.711       17.910       17.450       47.370       19.431      304.502     2243.963      377.551        0.197        0.146       26.240       25.996        0.982      347.264       26.107      861.086
07/17/2014  01:23:00        4.964       10.739       23.154       20.035       19.466       15.882      401.394      378.939      252.232        0.085        0.052       11.831       11.590        0.960      346.989       25.635      861.064
07/17/2014  01:24:00      -23.633       -8.803       -6.408        8.291        8.266        9.725       68.745       68.334       94.579        0.045        0.012       25.220        3.845        0.023      347.204       26.003      861.065
07/17/2014  01:25:00      -62.140      -11.170       -6.155       21.513       18.208       11.328      462.827      331.541      128.317        0.247        0.046       63.136        7.587        0.014      347.376       26.299      861.072
07/17/2014  01:26:00      -57.899      -17.401        2.103       37.736       32.997       17.311     1424.017     1088.820      299.677        0.324        0.141       60.457       20.184        0.111      347.177       25.957      861.077
07/17/2014  01:27:00      -11.697       15.562       15.062       21.546       15.244       19.433      464.249      232.387      377.623        0.084        0.054       19.468       11.938        0.376      347.043       25.728      861.078
07/17/2014  01:28:00        4.903       31.611        6.829       23.055       14.147       10.563      531.518      200.135      111.574        0.096        0.042       31.989        6.787        0.045      347.314       26.193      861.063
07/17/2014  01:29:00       37.485       34.287        5.886       16.398        8.295        9.082      268.901       68.803       82.476        0.152        0.021       50.801        5.944        0.014      347.362       26.278      861.045
07/17/2014  01:30:00        2.167       -1.230       -2.573       31.552       19.217       14.470      995.555      369.276      209.382        0.079        0.079        2.492       16.113       41.826      347.136       25.887      861.040
07/17/2014  01:31:00      -39.345       -4.507       -7.956       15.460       13.761       10.956      239.010      189.369      120.026        0.109        0.027       39.602        7.634        0.037      347.218       26.026      861.042
07/17/2014  01:32:00      -39.688       -6.506       -2.362       13.198       14.463        8.516      174.200      209.172       72.516        0.104        0.023       40.218        6.466        0.026      347.088       25.804      861.046
07/17/2014  01:33:00      -57.954      -20.709       -4.753       24.245       15.523        7.789      587.836      240.970       60.672        0.235        0.044       61.543        6.126        0.010      347.111       25.843      861.041
07/17/2014  01:34:00      -30.794        9.401       -9.544       10.681       14.090        5.306      114.075      198.515       28.156        0.073        0.017       32.197        4.479        0.019      347.225       26.039      861.017
07/17/2014  01:35:00       47.684       47.727       17.273       41.820       59.313       29.039     1748.882     3518.022      843.240        0.548        0.306       67.466        5.679        0.007      347.190       25.980      860.975
07/17/2014  01:36:00      -27.788       -9.930        0.754       39.991       11.948       14.119     1599.306      142.763      199.346        0.141        0.097       29.509        7.414        0.063      347.099       25.822      860.959
07/17/2014  01:37:00      -73.084      -25.884       -3.913       41.394       29.295       21.444     1713.472      858.204      459.862        0.453        0.152       77.533       19.587        0.064      347.046       25.732      860.958
07/17/2014  01:38:00        8.581        6.800        3.234        9.330       31.030        9.590       87.053      962.833       91.977        0.064        0.057       10.949        9.435        0.742      347.151       25.911      860.962
07/17/2014  01:39:00       -2.725       38.151        6.484       36.293       15.714       13.523     1317.154      246.921      182.880        0.163        0.087       38.248       17.454        0.208      347.247       26.078      860.936
07/17/2014  01:40:00      -71.112       43.426       -9.562       30.031       25.935       17.420      901.890      672.641      303.457        0.446        0.094       83.323       14.024        0.028      347.121       25.861      860.937
07/17/2014  01:41:00      -72.745       37.436       -9.166       24.969       20.232       19.715      623.475      409.320      388.671        0.410        0.071       81.813       18.556        0.051      347.178       25.959      860.941
07/17/2014  01:42:00      -44.647       87.718      -10.231       30.352       25.434       17.757      921.220      646.872      315.317        0.584        0.094       98.427       18.585        0.036      347.374       26.298      860.941
07/17/2014  01:43:00       12.253      116.012      -14.766       15.887       22.803       12.488      252.390      519.976      155.949        0.738        0.046      116.657       11.655        0.010      347.368       26.289      860.920
07/17/2014  01:44:00      -32.647       82.553      -23.788       32.078       38.891       12.591     1029.020     1512.496      158.545        0.557        0.135       88.774       12.975        0.021      347.440       26.412      860.910
07/17/2014  01:45:00       -2.237       -0.712        3.811       13.867       15.388       14.361      192.301      236.792      206.228        0.033        0.032        2.348       12.678       29.156      347.137       25.887      860.916
07/17/2014  01:46:00       -8.480       91.142      -11.352       30.045       53.767       23.744      902.721     2890.867      563.757        0.643        0.218       91.535       26.857        0.086      347.322       26.207      860.927
07/17/2014  01:47:00      -14.864       48.563       -7.043       35.142       37.191       17.288     1234.938     1383.163      298.868        0.277        0.146       50.787       10.437        0.042      347.314       26.195      860.927
07/17/2014  01:48:00       19.803       81.499       -2.124       20.784       35.018       20.770      431.980     1226.243      431.395        0.456        0.104       83.871       19.729        0.055      347.430       26.393      860.913
07/17/2014  01:49:00       33.939      121.198       -9.359       31.857       39.299       29.540     1014.892     1544.447      872.630        0.968        0.172      125.860       28.599        0.052      347.556       26.612      860.909
07/17/2014  01:50:00       12.189      129.863      -20.954       17.205       19.549       11.259      296.002      382.159      126.766        0.913        0.040      130.433        7.259        0.003      347.548       26.600      860.922
07/17/2014  01:51:00       12.233       68.613      -13.674       24.583       36.978       12.599      604.330     1367.371      158.726        0.359        0.107       69.695       15.777        0.051      347.356       26.265      860.927
07/17/2014  01:52:00       21.732       39.135        2.680       24.478       35.596       19.550      599.168     1267.048      382.197        0.213        0.112       44.764       18.496        0.171      347.226       26.042      860.937
07/17/2014  01:53:00       14.766       57.754       -1.409       19.657       23.564       16.691      386.390      555.260      278.599        0.239        0.061       59.612       15.521        0.068      347.105       25.835      860.953
07/17/2014  01:54:00       20.227       56.421       -7.996       15.689       14.016       10.883      246.160      196.457      118.440        0.211        0.028       59.937        9.010        0.023      346.980       25.618      860.971
07/17/2014  01:55:00       30.206       24.893        5.925       18.690       17.195       16.064      349.312      295.679      258.061        0.123        0.045       39.141        9.142        0.055      346.983       25.624      860.989
07/17/2014  01:56:00       39.461       31.890        7.396       16.182       12.972       11.428      261.858      168.272      130.605        0.159        0.028       50.736        5.977        0.014      346.934       25.539      860.990
07/17/2014  01:57:00       42.061       27.782       16.869       16.675       18.589       14.007      278.065      345.557      196.187        0.182        0.041       50.408       10.081        0.040      346.969       25.600      860.987
07/17/2014  01:58:00       18.687       -4.029        9.176       22.105       22.988       19.026      488.616      528.428      361.972        0.091        0.069       19.116       19.764        1.069      346.878       25.442      860.988
07/17/2014  01:59:00       10.350      -41.989        0.752       18.266        9.971        9.077      333.631       99.413       82.401        0.119        0.026       43.246        2.731        0.004      347.049       25.738      860.983
07/17/2014  02:00:00       13.878      -19.490       -2.062       10.782       17.574       10.502      116.244      308.839      110.290        0.056        0.027       23.926        4.380        0.034      347.047       25.733      860.994
07/17/2014  02:01:00       -9.267      -24.508       -7.677       14.300       11.219       11.518      204.482      125.874      132.666        0.060        0.023       26.201        9.626        0.135      347.004       25.661      860.987
07/17/2014  02:02:00      -51.587      -19.487       -1.416       24.629       20.382       14.452      606.571      415.416      208.856        0.214        0.062       55.145        8.948        0.026      346.811       25.328      860.982
07/17/2014  02:03:00       -0.530      -27.130        6.532       14.579       18.560       14.449      212.553      344.458      208.781        0.077        0.038       27.136        8.959        0.109      346.927       25.527      860.971
07/17/2014  02:04:00        8.739      -28.619       16.052       11.213       14.937       12.900      125.733      223.126      166.403        0.083        0.026       29.923        6.878        0.053      347.232       26.053      860.976
07/17/2014  02:05:00        7.914       -5.022       13.472       22.375       20.653       16.033      500.662      426.565      257.059        0.073        0.059        9.373       15.964        2.901      346.758       25.237      860.976
07/17/2014  02:06:00        9.279      -27.337      -11.022       21.858       28.854       17.678      477.762      832.562      312.528        0.129        0.081       28.869       15.851        0.301      346.818       25.338      860.961
07/17/2014  02:07:00       -2.883       -0.415        2.470       12.982       20.157       14.497      168.524      406.310      210.175        0.040        0.039        2.913        7.221        6.146      346.626       25.007      860.959
07/17/2014  02:08:00       -4.978        9.374        9.186       16.857       10.870       14.220      284.153      118.160      202.208        0.040        0.030       10.614        9.764        0.846      346.522       24.830      860.971
07/17/2014  02:09:00        2.216        2.374       -8.056        8.197       12.320        6.460       67.198      151.775       41.728        0.017        0.013        3.248        4.333        1.780      346.614       24.988      860.968
07/17/2014  02:10:00      -14.489      -33.229      -10.483       11.949       19.296       10.597      142.788      372.328      112.302        0.103        0.031       36.251       10.731        0.088      347.071       25.774      860.954
07/17/2014  02:11:00       -3.633      -52.214        1.160       13.640       13.977       14.834      186.056      195.358      220.046        0.167        0.030       52.340        9.635        0.034      347.393       26.330      860.931
07/17/2014  02:12:00      -20.623      -16.747       -0.182       12.183       10.410       10.268      148.426      108.373      105.439        0.053        0.018       26.567        6.576        0.061      347.276       26.127      860.919
07/17/2014  02:13:00      -60.447      -15.443       -2.858       30.551       24.239       15.642      933.379      587.510      244.677        0.283        0.088       62.389       13.946        0.050      347.058       25.752      860.932
07/17/2014  02:14:00      -60.934      -54.188        4.494       44.397       27.008       18.572     1971.105      729.436      344.927        0.486        0.152       81.543       15.603        0.037      346.725       25.179      860.930
07/17/2014  02:15:00      -24.583      -84.714       -2.292       21.712       30.575       11.911      471.389      934.802      141.879        0.467        0.077       88.209       10.974        0.015      347.281       26.137      860.897
07/17/2014  02:16:00      -29.110      -29.508        4.739       37.816       57.024       26.493     1430.086     3251.764      701.887        0.356        0.269       41.450       32.270        0.606      347.451       26.431      860.860
07/17/2014  02:17:00        7.871       13.757       26.277       25.090       40.698       30.164      629.531     1656.365      909.856        0.207        0.160       15.849       24.741        2.437      346.889       25.460      860.847
07/17/2014  02:18:00      -61.017      -21.069        2.010       41.062       33.645       19.428     1686.070     1132.001      377.453        0.368        0.160       64.553       18.837        0.085      347.401       26.345      860.875
07/17/2014  02:19:00      -44.094       -4.148        3.790       38.140       23.364       19.495     1454.661      545.887      380.060        0.218        0.119       44.289       16.542        0.140      347.151       25.912      860.909
07/17/2014  02:20:00      -10.440      -12.080        8.540       13.559       15.332       10.882      183.837      235.071      118.410        0.043        0.027       15.966        9.756        0.373      347.098       25.821      860.930
07/17/2014  02:21:00      -10.640       35.933        1.212       15.617       19.580       13.836      243.891      383.393      191.427        0.111        0.041       37.475       10.921        0.085      346.922       25.518      860.964
07/17/2014  02:22:00      -14.050       25.502        2.391       12.288       27.887       10.580      151.000      777.695      111.945        0.095        0.052       29.116        8.850        0.092      347.050       25.739      860.965
07/17/2014  02:23:00       42.300      -57.402      -18.479       31.974       23.671       15.208     1022.344      560.324      231.296        0.362        0.091       71.305       14.558        0.042      346.897       25.475      860.918
07/17/2014  02:24:00       14.491      -17.820        2.653       23.316       39.872       25.128      543.648     1589.737      631.394        0.165        0.138       22.968       18.131        0.623      346.798       25.305      860.895
07/17/2014  02:25:00        8.275       47.031        0.571       18.254       22.751       20.353      333.224      517.594      414.236        0.177        0.063       47.753       17.001        0.127      346.674       25.090      860.927
07/17/2014  02:26:00       -5.449       25.846       -2.909       14.080       11.595        9.829      198.246      134.443       96.608        0.057        0.021       26.414        4.169        0.025      346.872       25.433      860.973
07/17/2014  02:27:00       22.630      -13.414       11.517       16.010       32.394       13.734      256.319     1049.380      188.611        0.116        0.075       26.307       14.218        0.292      346.968       25.597      860.983
07/17/2014  02:28:00      -16.487      -49.938       -9.477       32.554       25.481       11.081     1059.794      649.281      122.787        0.234        0.092       52.589       10.956        0.043      347.161       25.930      860.991
07/17/2014  02:29:00      -25.535      -61.268       -3.146       17.207       20.480       15.337      296.065      419.421      235.212        0.268        0.048       66.377       10.330        0.024      347.142       25.898      860.987
07/17/2014  02:30:00      -34.826      -80.109       -2.991       30.937       21.761       17.639      957.088      473.552      311.150        0.469        0.087       87.351       15.962        0.033      347.230       26.047      860.990
07/17/2014  02:31:00      -52.048      -36.349        1.700       48.359       27.544       21.276     2338.560      758.681      452.671        0.379        0.177       63.484       21.296        0.113      347.143       25.899      861.012
07/17/2014  02:32:00      -39.013      -27.584       11.108       43.054       28.912       19.848     1853.641      835.930      393.959        0.274        0.154       47.780       20.966        0.193      347.126       25.870      861.018
07/17/2014  02:33:00      -13.870      -83.220        2.080       25.227       50.592       17.723      636.419     2559.594      314.105        0.532        0.176       84.368       21.539        0.065      347.233       26.054      861.010
07/17/2014  02:34:00        4.542     -126.096      -13.244       52.422       37.894       23.214     2748.115     1435.926      538.909        1.041        0.236      126.178       20.012        0.025      347.164       25.935      860.996
07/17/2014  02:35:00      -42.041      -99.478       -5.270       67.632       40.422       30.784     4574.086     1633.961      947.672        0.942        0.358      107.996       24.227        0.050      347.092       25.811      861.013
07/17/2014  02:36:00      -47.776      -58.165        7.810       66.769       44.498       25.377     4458.098     1980.062      644.012        0.640        0.354       75.271       25.538        0.115      347.039       25.719      861.051
07/17/2014  02:37:00       61.063     -114.263       15.113       43.447       86.227       51.636     1887.679     7435.105     2666.303        1.450        0.599      129.556       45.923        0.126      346.962       25.586      861.054
07/17/2014  02:38:00       37.533      -69.678       15.900       53.293       59.942       44.523     2840.163     3592.987     1982.253        0.746        0.421       79.144       32.515        0.169      346.876       25.439      861.051
07/17/2014  02:39:00       88.418     -111.358       -7.873       65.470       70.173       37.012     4286.305     4924.202     1369.905        1.543        0.529      142.191       37.905        0.071      346.881       25.446      861.059
07/17/2014  02:40:00       83.163      -86.373       -7.654       63.748       64.371       42.801     4063.864     4143.668     1831.953        1.224        0.502      119.901       45.119        0.142      346.916       25.507      861.075
07/17/2014  02:41:00       -0.817       22.963       79.598       27.683       65.035       37.512      766.343     4229.612     1407.185        0.663        0.320       22.978       31.020        1.822      346.892       25.467      861.096
07/17/2014  02:42:00       13.497       12.010       54.987       35.179       58.516       50.552     1237.583     3424.090     2555.464        0.528        0.361       18.067       50.053        7.676      346.870       25.429      861.101
07/17/2014  02:43:00       20.013      -21.293       39.764       36.025       48.903       39.695     1297.813     2391.498     1575.667        0.385        0.263       29.222       28.945        0.981      346.869       25.427      861.098
07/17/2014  02:44:00       44.878      -92.050       10.739       62.223       61.797       52.733     3871.759     3818.900     2780.786        1.053        0.524      102.407       45.925        0.201      347.013       25.674      861.125
07/17/2014  02:45:00       38.298      -20.442       50.761       56.273       59.388       43.408     3166.703     3526.970     1884.263        0.652        0.429       43.412       37.973        0.765      347.013       25.675      861.145
07/17/2014  02:46:00       21.342       12.580       56.230       41.370       49.061       39.095     1711.476     2407.000     1528.395        0.471        0.282       24.774       28.869        1.358      346.935       25.541      861.145
07/17/2014  02:47:00       60.228      -11.393       46.305       63.978       72.249       56.029     4093.128     5219.954     3139.212        0.917        0.623       61.296       59.550        0.944      346.964       25.589      861.133
07/17/2014  02:48:00       87.651      -16.694       29.107       60.938       69.908       37.261     3713.492     4887.089     1388.383        0.940        0.499       89.227       47.827        0.287      346.853       25.399      861.138
07/17/2014  02:49:00       73.334      -51.124       11.547       58.552       58.966       30.110     3428.333     3477.011      906.593        0.797        0.391       89.395       35.812        0.160      346.853       25.397      861.144
07/17/2014  02:50:00       30.177      -11.690       25.971       24.514       34.087       22.650      600.920     1161.954      513.010        0.200        0.114       32.362       22.727        0.493      346.788       25.288      861.142
07/17/2014  02:51:00       25.325      -45.798       18.105       26.522       38.610       27.071      703.419     1490.731      732.862        0.300        0.146       52.333       20.615        0.155      346.819       25.340      861.136
07/17/2014  02:52:00       35.714      -88.746       -9.022       27.835       21.227       15.132      774.809      450.578      228.990        0.534        0.073       95.662       14.534        0.023      346.882       25.448      861.126
07/17/2014  02:53:00       -0.891      -38.036        5.142       33.433       35.802       15.016     1117.758     1281.799      225.480        0.205        0.131       38.046       16.959        0.199      346.833       25.363      861.111
07/17/2014  02:54:00      -21.541       12.363        0.779       16.190        9.275       13.111      262.103       86.018      171.906        0.057        0.026       24.837        5.319        0.046      346.759       25.236      861.113
07/17/2014  02:55:00      -34.492       -6.203        9.620       35.400       25.809       20.736     1253.194      666.100      429.980        0.183        0.117       35.045       23.690        0.457      346.804       25.315      861.105
07/17/2014  02:56:00      -36.737      -17.481       11.377       39.391       29.051       23.285     1551.657      843.974      542.213        0.236        0.147       40.684       19.973        0.241      346.931       25.534      861.096
07/17/2014  02:57:00      -36.258      -54.500        9.318       37.602       34.909       16.461     1413.942     1218.663      270.974        0.364        0.145       65.459       15.854        0.059      347.047       25.734      861.090
07/17/2014  02:58:00       12.737      -23.305       19.010       15.456       25.237       13.972      238.889      636.931      195.213        0.107        0.054       26.558       12.277        0.214      346.918       25.512      861.082
07/17/2014  02:59:00       11.481        6.223       20.421       15.254       19.579       11.402      232.698      383.354      129.998        0.067        0.037       13.059        4.113        0.099      346.775       25.265      861.080
07/17/2014  03:00:00        1.842       25.900       -6.349       11.302       11.954        8.490      127.736      142.899       72.087        0.053        0.017       25.966        5.959        0.053      346.785       25.282      861.092
07/17/2014  03:01:00        5.302       20.855        3.464        5.639       16.865       10.014       31.803      284.421      100.276        0.045        0.021       21.518        4.052        0.035      346.759       25.236      861.106
07/17/2014  03:02:00       -0.751        5.263        2.288       14.694       20.222       13.188      215.914      408.934      173.917        0.042        0.040        5.316        9.164        2.972      346.674       25.092      861.110
07/17/2014  03:03:00      -18.969      -24.036        4.244       33.769       20.679       15.830     1140.350      427.622      250.581        0.139        0.091       30.620       18.779        0.376      346.729       25.187      861.106
07/17/2014  03:04:00       27.261       -4.907        4.336       14.372       17.665       12.385      206.545      312.061      153.395        0.073        0.034       27.699       10.419        0.141      346.551       24.879      861.104
07/17/2014  03:05:00       -4.972       -0.842        5.765       11.832       16.036       15.692      139.989      257.164      246.234        0.035        0.032        5.043       12.223        5.876      346.363       24.558      861.109
07/17/2014  03:06:00       17.379        2.397      -11.028       14.868       12.015       12.736      221.044      144.367      162.214        0.048        0.026       17.543       10.337        0.347      346.396       24.614      861.115
07/17/2014  03:07:00        1.464       -0.134       -9.229       11.699       14.135       10.711      136.863      199.805      114.725        0.027        0.023        1.470        7.646       27.051      346.408       24.633      861.129
07/17/2014  03:08:00      -47.751      -39.818        2.268       35.530       29.747       21.427     1262.350      884.900      459.136        0.324        0.130       62.174       15.713        0.064      346.749       25.221      861.138
07/17/2014  03:09:00      -10.030      -11.347       -0.934       22.347       21.191       17.241      499.399      449.057      297.256        0.074        0.062       15.144       12.886        0.724      346.754       25.230      861.139
07/17/2014  03:10:00      -53.317      -71.984        4.587       42.885       53.589       28.742     1839.110     2871.762      826.091        0.679        0.277       89.579       18.981        0.045      346.886       25.456      861.136
07/17/2014  03:11:00        4.646       -3.063       13.366       29.815       36.926       22.633      888.925     1363.504      512.259        0.149        0.138        5.564       21.855       15.428      346.677       25.097      861.129
07/17/2014  03:12:00       11.772      -11.603       -2.404       16.389       14.311       13.349      268.606      204.814      178.204        0.047        0.033       16.529       10.280        0.387      346.485       24.768      861.120
07/17/2014  03:13:00        7.629        2.772        0.808        7.633        7.273        4.858       58.264       52.898       23.597        0.010        0.007        8.117        2.368        0.085      346.535       24.852      861.120
07/17/2014  03:14:00        5.489      -13.275      -12.972       13.987        8.668        8.643      195.623       75.136       74.701        0.036        0.017       14.365        7.683        0.286      346.523       24.832      861.112
07/17/2014  03:15:00        2.371        0.849       16.503       19.485       23.110       15.255      379.667      534.084      232.707        0.071        0.057        2.519       16.738       44.166      346.504       24.798      861.097
07/17/2014  03:16:00      -13.591      -10.904       13.128       13.086       11.269       12.198      171.239      126.989      148.801        0.046        0.022       17.425        8.718        0.250      346.518       24.823      861.096
07/17/2014  03:17:00      -17.335      -27.357        0.039       18.586       16.281        8.711      345.456      265.086       75.883        0.087        0.034       32.386        5.221        0.026      346.702       25.140      861.095
07/17/2014  03:18:00        0.087      -25.253       19.496       16.384       30.124       13.848      268.421      907.449      191.765        0.119        0.068       25.253       17.675        0.490      346.666       25.078      861.090
07/17/2014  03:19:00       25.894        8.606       15.622       11.348        9.989       10.400      128.770       99.785      108.159        0.066        0.017       27.287        7.187        0.069      346.518       24.822      861.090
07/17/2014  03:20:00       -7.797       16.324        4.298       31.297       33.065       12.954      979.517     1093.327      167.798        0.129        0.112       18.091       10.601        0.343      346.435       24.681      861.086
07/17/2014  03:21:00      -36.554        5.684       -3.302       18.185       14.751       13.326      330.696      217.595      177.588        0.105        0.036       36.993       11.674        0.100      346.185       24.250      861.083
07/17/2014  03:22:00      -31.850       22.008       -2.346       16.266       10.725        9.929      264.597      115.019       98.578        0.099        0.024       38.714        6.922        0.032      346.165       24.216      861.081
07/17/2014  03:23:00      -25.700        1.284        9.400       27.151       14.245       15.699      737.173      202.912      246.460        0.097        0.059       25.732       13.513        0.276      346.273       24.403      861.077
07/17/2014  03:24:00      -26.587      -17.056        5.176       26.136       25.645       13.929      683.104      657.647      194.028        0.128        0.077       31.588       12.010        0.145      346.615       24.990      861.076
07/17/2014  03:25:00      -27.435       13.097       -1.804       18.547       23.012       11.435      343.988      529.549      130.763        0.097        0.050       30.400        9.505        0.098      346.300       24.448      861.081
07/17/2014  03:26:00      -63.850       37.823       -4.404       30.269       26.673       17.049      916.241      711.446      290.669        0.372        0.096       74.212       15.209        0.042      345.914       23.787      861.086
07/17/2014  03:27:00      -78.182       13.187       -5.714       28.301       21.082       13.764      800.975      444.467      189.443        0.388        0.072       79.286       12.577        0.025      345.829       23.640      861.089
07/17/2014  03:28:00      -63.577        9.640       -7.391       24.669       18.418       12.226      608.542      339.236      149.473        0.264        0.055       64.303        9.335        0.021      345.732       23.473      861.093
07/17/2014  03:29:00      -65.957       31.168      -14.280       16.124       17.841       11.358      259.989      318.308      129.011        0.312        0.035       72.950        3.031        0.002      345.903       23.768      861.097
07/17/2014  03:30:00      -53.280       10.675      -12.117       16.180       21.938       13.115      261.783      481.269      172.014        0.201        0.046       54.338        9.152        0.028      345.857       23.688      861.106
07/17/2014  03:31:00      -47.078       29.199      -10.841       16.277       25.192       13.180      264.951      634.631      173.714        0.213        0.054       55.398        8.810        0.025      345.836       23.651      861.112
07/17/2014  03:32:00      -33.621        5.131       -3.080       22.659       13.923       13.580      513.430      193.855      184.409        0.103        0.045       34.010       11.247        0.109      345.926       23.806      861.112
07/17/2014  03:33:00      -54.060      -14.477       -5.651       23.353       14.663       12.494      545.385      215.000      156.095        0.204        0.046       55.965        7.867        0.020      345.787       23.569      861.110
07/17/2014  03:34:00      -84.422       -7.817      -14.129       20.488       18.488       11.778      419.753      341.805      138.718        0.414        0.045       84.783        9.889        0.014      345.608       23.262      861.102
07/17/2014  03:35:00      -78.158        0.770       -7.399       18.458       16.547       11.182      340.695      273.796      125.041        0.345        0.037       78.162        9.695        0.015      345.491       23.058      861.100
07/17/2014  03:36:00      -55.721       16.589      -12.497       17.105       13.458        8.664      292.592      181.123       75.065        0.204        0.027       58.138        9.042        0.024      345.586       23.224      861.101
07/17/2014  03:37:00      -38.956       72.373      -15.182       11.655       19.262       12.203      135.848      371.026      148.913        0.382        0.033       82.191       11.357        0.019      345.852       23.678      861.110
07/17/2014  03:38:00      -64.327       69.433      -14.594       21.716       18.399       12.344      471.591      338.523      152.382        0.507        0.048       94.652        6.803        0.005      345.756       23.514      861.128
07/17/2014  03:39:00      -18.059       81.526       -8.861       26.928       16.909       12.754      725.127      285.899      162.656        0.411        0.059       83.502       11.973        0.021      346.114       24.129      861.125
07/17/2014  03:40:00       18.185       30.571        1.967       21.902       25.577       12.764      479.701      654.187      162.930        0.128        0.065       35.570       12.467        0.123      346.141       24.175      861.107
07/17/2014  03:41:00        5.185       31.433       -0.628       28.156       13.274       12.093      792.759      176.201      146.246        0.107        0.056       31.858       12.205        0.147      346.118       24.136      861.107
07/17/2014  03:42:00      -59.114       -1.893       -4.816       17.470       16.798       15.213      305.208      282.161      231.438        0.217        0.041       59.144       14.121        0.057      345.732       23.474      861.124
07/17/2014  03:43:00     -102.491        1.131      -12.043       15.232        9.594        9.993      232.026       92.052       99.865        0.554        0.021      102.497        7.446        0.005      345.631       23.298      861.142
07/17/2014  03:44:00      -61.838       -3.020      -10.282       17.603       15.757       11.590      309.882      248.269      134.318        0.232        0.035       61.911        8.814        0.020      345.544       23.151      861.140
07/17/2014  03:45:00      -31.034       -8.260      -15.469       20.134       14.468       16.148      405.358      209.316      260.768        0.107        0.044       32.114       11.735        0.134      345.638       23.310      861.123
07/17/2014  03:46:00      -27.794       -1.441       -2.962       13.176        7.788        5.743      173.594       60.646       32.981        0.053        0.013       27.832        4.948        0.032      345.780       23.553      861.107
07/17/2014  03:47:00      -62.969      -23.114      -10.391       13.487       11.400        7.695      181.898      129.951       59.209        0.249        0.019       67.077        3.257        0.002      345.839       23.657      861.110
07/17/2014  03:48:00      -67.446      -32.575       -2.888       30.112       20.377       18.051      906.747      415.241      325.846        0.363        0.082       74.900       14.614        0.038      345.677       23.378      861.113
07/17/2014  03:49:00      -89.450      -32.779       -9.769       14.028       16.636        8.235      196.781      276.749       67.820        0.486        0.027       95.267        6.216        0.004      345.704       23.426      861.110
07/17/2014  03:50:00      -63.105      -22.273       -4.624       14.465       12.825        8.301      209.244      164.475       68.913        0.247        0.022       66.921        4.222        0.004      345.758       23.517      861.100
07/17/2014  03:51:00      -56.864       -4.066       -9.990       11.748        9.129        6.599      138.012       83.330       43.552        0.181        0.013       57.009        2.301        0.002      345.740       23.485      861.096
07/17/2014  03:52:00      -30.981        5.771       -5.086       11.723        8.497        4.995      137.435       72.191       24.954        0.063        0.012       31.514        5.785        0.034      345.834       23.649      861.091
07/17/2014  03:53:00       25.195       29.706        2.219       23.161       13.683       10.074      536.445      187.234      101.483        0.117        0.041       38.951        8.880        0.052      346.192       24.264      861.085
07/17/2014  03:54:00       36.104       22.191        2.157       11.392        7.938        7.561      129.788       63.007       57.161        0.103        0.012       42.379        4.903        0.013      346.295       24.439      861.086
07/17/2014  03:55:00      -10.512        2.495        3.829       23.019        7.261        7.277      529.862       52.724       52.961        0.038        0.032       10.804       10.009        0.858      346.040       23.999      861.090
07/17/2014  03:56:00      -75.191       -9.247       -8.384       24.857       15.254       13.348      617.859      232.681      178.162        0.342        0.051       75.757       10.598        0.020      345.753       23.509      861.111
07/17/2014  03:57:00     -164.819      -39.554       -9.253       28.312       21.099       15.740      801.563      445.161      247.762        1.515        0.075      169.499       15.065        0.008      345.526       23.118      861.128
07/17/2014  03:58:00     -174.880      -71.514      -11.003       30.376       35.147       19.911      922.730     1235.277      396.451        1.919        0.128      188.937       16.703        0.008      345.430       22.953      861.138
07/17/2014  03:59:00      -78.010      -37.358        9.501       44.083       44.027       27.901     1943.335     1938.378      778.472        0.611        0.233       86.494       24.960        0.083      345.467       23.018      861.155
07/17/2014  04:00:00      -73.595      -26.294       -6.671       21.892       31.164       17.537      479.240      971.206      307.552        0.395        0.088       78.151        9.447        0.015      345.526       23.119      861.166
07/17/2014  04:01:00      -27.752       -7.644        0.378       24.319       15.226       12.994      591.391      231.822      168.849        0.091        0.050       28.785       11.128        0.149      345.528       23.121      861.163
07/17/2014  04:02:00      -14.142      -10.248       -3.941        6.453        6.014        4.161       41.640       36.168       17.311        0.021        0.005       17.465        2.625        0.023      345.763       23.527      861.157
07/17/2014  04:03:00        1.408       -1.650       -4.951       10.388        4.568        7.186      107.909       20.869       51.634        0.010        0.009        2.169        6.267        8.346      345.923       23.800      861.156
07/17/2014  04:04:00      -31.211        3.758       -7.697       24.136       13.891        9.589      582.552      192.960       91.948        0.096        0.043       31.437        3.656        0.014      346.291       24.431      861.169
07/17/2014  04:05:00      -71.529      -11.605       -7.993       22.795       15.862       12.310      519.605      251.599      151.529        0.312        0.046       72.465        9.192        0.016      345.757       23.516      861.182
07/17/2014  04:06:00     -117.162      -25.183       -5.357       28.023       22.983       15.368      785.267      528.238      236.186        0.797        0.077      119.838       14.043        0.014      345.488       23.053      861.190
07/17/2014  04:07:00     -121.270      -30.285      -10.211       28.319       32.005       20.029      801.949     1024.326      401.177        0.898        0.111      124.995       15.440        0.015      345.367       22.847      861.197
07/17/2014  04:08:00      -79.161      -38.853       -4.105       53.292       25.975       19.815     2840.004      674.702      392.619        0.585        0.195       88.182       27.283        0.096      345.412       22.922      861.199
07/17/2014  04:09:00      -55.196      -27.198       -4.199       14.459       13.326       12.042      209.061      177.582      145.012        0.217        0.027       61.533        9.613        0.024      345.560       23.178      861.204
07/17/2014  04:10:00      -27.867      -11.083       -2.086       11.926       11.671        7.573      142.236      136.202       57.344        0.062        0.017       29.990        7.908        0.070      345.618       23.276      861.198
07/17/2014  04:11:00      -25.703      -15.034       -3.053       10.636       10.062        8.940      113.127      101.241       79.927        0.060        0.015       29.777        3.596        0.015      345.700       23.418      861.186
07/17/2014  04:12:00      -34.800      -11.766       -5.123       15.686       13.258        7.825      246.064      175.767       61.233        0.093        0.024       36.736        6.920        0.035      345.641       23.316      861.187
07/17/2014  04:13:00      -81.754      -25.012       -6.660       22.196       14.803        7.473      492.676      219.129       55.841        0.406        0.038       85.494        6.939        0.007      345.562       23.181      861.192
07/17/2014  04:14:00     -117.140      -26.524      -11.019       14.130       10.648       11.127      199.671      113.386      123.817        0.749        0.022      120.106        8.358        0.005      345.526       23.118      861.195
07/17/2014  04:15:00     -130.612      -41.318       -5.200       19.906       25.026       14.707      396.261      626.313      216.310        1.002        0.062      136.992       12.017        0.008      345.576       23.205      861.200
07/17/2014  04:16:00     -114.981      -49.784       -7.779       22.656       20.411       11.504      513.312      416.601      132.347        0.841        0.053      125.296        9.594        0.006      345.526       23.119      861.207
07/17/2014  04:17:00      -62.649      -23.775       -3.570       19.300       21.723       15.135      372.487      471.871      229.068        0.279        0.054       67.009       13.453        0.040      345.473       23.029      861.227
07/17/2014  04:18:00      -31.585       10.032       -2.851       25.630       17.441       10.856      656.911      304.186      117.858        0.109        0.054       33.140       12.916        0.152      345.502       23.078      861.228
07/17/2014  04:19:00      -30.987        1.408       -4.095       15.274       18.481        9.709      233.284      341.557       94.272        0.082        0.033       31.019       10.406        0.113      345.594       23.235      861.225
07/17/2014  04:20:00      -29.629       -1.026       -3.492       15.881        9.375        9.392      252.192       87.895       88.213        0.066        0.021       29.646        8.611        0.084      345.674       23.372      861.225
07/17/2014  04:21:00      -58.566      -14.511       -7.614       28.378       15.979        8.589      805.337      255.342       73.768        0.242        0.057       60.337        9.279        0.024      345.600       23.246      861.226
07/17/2014  04:22:00     -129.259      -20.242      -11.330       41.431       31.029       20.533     1716.568      962.817      421.620        1.017        0.155      130.834       16.550        0.016      345.441       22.972      861.231
07/17/2014  04:23:00     -106.802      -33.273        1.171       46.192       41.626       29.273     2133.735     1732.692      856.880        0.862        0.236      111.865       28.550        0.065      345.365       22.842      861.226
07/17/2014  04:24:00      -44.616      -14.284        4.495       28.086       26.193       15.016      788.851      686.088      225.493        0.196        0.085       46.847        9.758        0.043      345.322       22.769      861.219
07/17/2014  04:25:00      -31.766      -17.961       -6.887       17.688       18.816        8.460      312.870      354.044       71.575        0.106        0.037       36.492        8.678        0.057      345.394       22.892      861.215
07/17/2014  04:26:00      -10.830      -13.298        0.720        9.164        8.789        8.437       83.981       77.253       71.185        0.026        0.012       17.150        7.182        0.175      345.585       23.220      861.205
07/17/2014  04:27:00      -42.640      -25.414       -6.263       22.947       10.595       10.890      526.569      112.259      118.598        0.163        0.038       49.639       12.282        0.061      345.731       23.473      861.202
07/17/2014  04:28:00     -135.971      -43.831      -14.460       21.372       14.769       10.930      456.779      218.125      119.460        1.071        0.040      142.862        9.022        0.004      345.414       22.928      861.208
07/17/2014  04:29:00     -139.603      -46.168      -11.368       21.631       27.136       15.057      467.889      736.366      226.719        1.159        0.072      147.039        5.539        0.001      345.274       22.685      861.228
07/17/2014  04:30:00      -73.783      -19.948       -0.620       32.168       23.237       19.603     1034.749      539.971      384.280        0.390        0.098       76.432       19.301        0.064      345.224       22.601      861.255
07/17/2014  04:31:00      -41.046       -9.354       -3.869       17.304       18.722       13.923      299.440      350.499      193.855        0.132        0.042       42.098        9.308        0.049      345.308       22.745      861.260
07/17/2014  04:32:00      -66.352      -19.203      -15.882       24.764       23.285       19.148      613.261      542.172      366.647        0.327        0.076       69.075       14.111        0.042      345.500       23.073      861.260
07/17/2014  04:33:00      -81.424      -54.810       -8.346       24.363       23.144       14.873      593.541      535.628      221.206        0.553        0.068       98.153        9.411        0.009      345.321       22.767      861.271
07/17/2014  04:34:00     -107.621      -36.474       -5.680       22.783       26.790       16.023      519.082      717.720      256.732        0.722        0.075      113.633        9.344        0.007      345.326       22.775      861.279
07/17/2014  04:35:00     -124.867       -7.274       -6.726       38.370       31.015       24.778     1472.228      961.903      613.938        0.937        0.152      125.079       23.007        0.034      345.253       22.652      861.277
07/17/2014  04:36:00      -72.310      -38.697        2.088       24.797       27.991       21.088      614.875      783.518      444.705        0.429        0.092       82.013       18.944        0.053      345.222       22.598      861.279
07/17/2014  04:37:00      -57.902      -33.847       -1.567       12.826       18.704       11.517      164.512      349.834      132.649        0.257        0.032       67.069        9.201        0.019      345.388       22.883      861.294
07/17/2014  04:38:00      -26.777      -22.245       -1.073       20.839        9.271        7.654      434.246       85.954       58.584        0.090        0.029       34.812        7.922        0.052      345.418       22.932      861.298
07/17/2014  04:39:00      -53.448      -33.921       -1.403       13.745       10.769        7.851      188.939      115.979       61.636        0.219        0.018       63.303        6.750        0.011      345.546       23.153      861.303
07/17/2014  04:40:00      -67.758      -15.477       -6.511       12.916       10.913        8.206      166.816      119.096       67.337        0.261        0.018       69.503        6.633        0.009      345.606       23.256      861.309
07/17/2014  04:41:00      -87.021       14.414       -8.080       28.049       18.811       10.217      786.723      353.846      104.383        0.455        0.062       88.206       11.005        0.016      345.439       22.970      861.332
07/17/2014  04:42:00     -110.690       30.634      -10.642       37.687       32.521       18.687     1420.305     1057.608      349.210        0.806        0.141      114.851       14.413        0.016      345.248       22.642      861.344
07/17/2014  04:43:00      -61.152        1.280       -4.555       31.383       36.376       20.652      984.897     1323.182      426.489        0.325        0.137       61.166       15.585        0.065      345.166       22.503      861.348
07/17/2014  04:44:00      -80.392       31.394      -18.171       19.217       26.693       14.732      369.298      712.519      217.023        0.454        0.065       86.305        5.711        0.004      345.209       22.575      861.352
07/17/2014  04:45:00      -52.180       44.533      -11.600       25.469       16.200       15.207      648.695      262.449      231.251        0.299        0.057       68.600       13.899        0.041      345.571       23.196      861.346
07/17/2014  04:46:00      -15.119       30.438       -1.158       12.853       17.804        9.944      165.188      316.970       98.890        0.087        0.029       33.986       11.580        0.116      345.571       23.196      861.342
07/17/2014  04:47:00      -10.572       10.201        0.680       10.273        9.213        9.643      105.540       84.876       92.985        0.025        0.014       14.691        7.173        0.238      345.453       22.994      861.331
07/17/2014  04:48:00      -65.290       -1.592       -8.183       31.589       10.925        8.973      997.865      119.349       80.514        0.276        0.060       65.309       10.906        0.028      345.376       22.861      861.330
07/17/2014  04:49:00     -108.639      -11.593      -13.616       22.412       24.687       17.550      502.298      609.453      308.001        0.677        0.071      109.256       13.604        0.016      345.194       22.549      861.327
07/17/2014  04:50:00      -48.027       43.936       -9.247       33.248       39.596       24.090     1105.447     1567.829      580.320        0.379        0.163       65.091       19.000        0.085      345.184       22.534      861.326
07/17/2014  04:51:00      -40.411       44.217       -4.324       23.919       25.780       12.876      572.125      664.609      165.790        0.250        0.070       59.902       12.658        0.045      345.460       23.005      861.316
07/17/2014  04:52:00      -47.050      -14.869       -4.192       14.815       16.935       11.203      219.480      286.794      125.515        0.154        0.032       49.344        4.025        0.007      345.307       22.744      861.306
07/17/2014  04:53:00     -103.037      -42.404      -10.676       20.568       20.743       14.841      423.060      430.272      220.261        0.680        0.054      111.421        9.221        0.007      345.146       22.468      861.317
07/17/2014  04:54:00      -89.514      -16.322       -8.626       35.827       24.938       14.866     1283.548      621.922      221.002        0.524        0.106       90.990       15.479        0.029      345.045       22.296      861.326
07/17/2014  04:55:00      -28.366        7.313       -5.333       26.735       16.919       16.450      714.738      286.254      270.599        0.108        0.064       29.294       14.284        0.238      345.049       22.302      861.338
07/17/2014  04:56:00      -12.930       43.964       -4.449       15.915       22.637       13.898      253.293      512.435      193.157        0.154        0.048       45.826       13.587        0.088      345.436       22.965      861.337
07/17/2014  04:57:00      -21.315       17.535        2.396       14.389       19.258       11.826      207.034      370.888      139.850        0.074        0.036       27.601       10.395        0.142      345.462       23.010      861.335
07/17/2014  04:58:00      -73.966      -16.981      -12.599       20.328       17.833       11.961      413.222      318.026      143.061        0.340        0.044       75.890       12.059        0.025      345.315       22.756      861.358
07/17/2014  04:59:00     -111.672      -72.571       -8.615       26.078       33.223       19.254      680.050     1103.786      370.708        0.998        0.108      133.181       17.359        0.017      345.103       22.394      861.383
07/17/2014  05:00:00      -96.134      -48.957       -3.550       42.330       34.491       24.613     1791.825     1189.633      605.805        0.762        0.179      107.882       18.727        0.030      344.982       22.187      861.394
07/17/2014  05:01:00      -78.807       17.258       -5.303       48.183       37.274       23.084     2321.559     1389.387      532.885        0.539        0.212       80.675       19.552        0.059      344.973       22.173      861.391
07/17/2014  05:02:00      -20.049        7.487        2.453       20.102       15.020       14.159      404.101      225.602      200.475        0.065        0.042       21.402       12.058        0.317      344.969       22.165      861.380
07/17/2014  05:03:00        8.570        1.223       -2.740       17.552       10.318       10.722      308.072      106.471      114.964        0.031        0.026        8.656       11.796        1.857      345.123       22.427      861.380
07/17/2014  05:04:00       -6.620      -28.118       -5.254       23.329       21.847       14.254      544.227      477.281      203.163        0.104        0.061       28.887       10.011        0.120      345.178       22.522      861.384
07/17/2014  05:05:00      -85.418      -51.292        0.340       31.611       24.927       18.021      999.257      621.345      324.766        0.594        0.097       99.635        9.750        0.010      345.104       22.397      861.388
07/17/2014  05:06:00     -111.109      -66.637       -8.113       19.006       20.815       12.968      361.226      433.247      168.169        0.891        0.048      129.559        8.139        0.004      345.199       22.558      861.383
07/17/2014  05:07:00      -91.881      -14.498       -6.856       19.860       20.478       11.729      394.416      419.366      137.575        0.483        0.048       93.017        9.738        0.011      345.235       22.619      861.384
07/17/2014  05:08:00      -63.837       -1.833       -4.200       23.852       16.427       14.898      568.936      269.859      221.959        0.258        0.053       63.863       15.237        0.057      345.195       22.553      861.386
07/17/2014  05:09:00      -55.972        7.150       -5.139       16.978       12.815       10.133      288.246      164.216      102.672        0.188        0.028       56.426        7.981        0.020      345.168       22.505      861.387
07/17/2014  05:10:00      -33.796        2.711       -8.634        9.772        7.833        4.758       95.491       61.363       22.639        0.070        0.009       33.904        6.458        0.036      345.261       22.665      861.389
07/17/2014  05:11:00       -2.482        5.563        3.016        7.114        5.419        6.314       50.613       29.361       39.873        0.008        0.006        6.092        4.694        0.594      345.395       22.894      861.407
07/17/2014  05:12:00        5.895        0.372       -0.273        9.536        7.027        4.853       90.934       49.381       23.552        0.010        0.008        5.907        3.083        0.272      345.333       22.790      861.429
07/17/2014  05:13:00       -5.293       -9.257        0.024        8.394        6.529        4.869       70.464       42.622       23.704        0.013        0.007       10.664        5.764        0.292      345.357       22.830      861.432
07/17/2014  05:14:00        2.917      -15.175        1.515        5.607       11.009        4.754       31.440      121.196       22.604        0.021        0.009       15.453        3.463        0.050      345.345       22.808      861.434
07/17/2014  05:15:00       -7.826      -28.736       -7.240       19.579       21.726       11.047      383.323      472.007      122.043        0.096        0.049       29.783        3.013        0.010      345.344       22.806      861.438
07/17/2014  05:16:00      -47.738      -21.447       -0.260       32.793       16.777       14.646     1075.368      281.456      214.497        0.215        0.079       52.334       14.674        0.079      344.998       22.214      861.446
07/17/2014  05:17:00      -96.035      -21.029      -11.194       17.766       20.805       12.167      315.628      432.840      148.047        0.534        0.045       98.311        6.287        0.004      345.027       22.265      861.456
07/17/2014  05:18:00     -104.327      -17.159       -8.799       22.417       17.861       13.742      502.535      319.015      188.831        0.613        0.051      105.729       11.010        0.011      345.026       22.261      861.453
07/17/2014  05:19:00      -51.135      -13.275       -1.361       26.278       14.069        9.253      690.524      197.933       85.617        0.188        0.049       52.830        5.715        0.012      344.987       22.196      861.456
07/17/2014  05:20:00      -47.058      -15.921       -0.548       27.583       21.145       12.778      760.826      447.107      163.277        0.192        0.069       49.678       15.563        0.098      344.955       22.141      861.460
07/17/2014  05:21:00      -59.907       -9.874       -3.241       13.445       11.635        7.438      180.770      135.384       55.317        0.203        0.019       60.715        4.888        0.006      344.969       22.166      861.468
07/17/2014  05:22:00      -47.470       -2.249       -5.230        6.595       10.498        6.322       43.493      110.212       39.968        0.124        0.010       47.523        3.607        0.006      345.078       22.350      861.477
07/17/2014  05:23:00      -27.967       12.093       -4.071        9.748        5.789        4.907       95.020       33.517       24.083        0.055        0.008       30.469        3.147        0.011      345.124       22.430      861.476
07/17/2014  05:24:00      -24.690       22.880       -8.086       11.259        9.229        5.895      126.760       85.174       34.746        0.072        0.012       33.661        6.601        0.038      345.248       22.646      861.471
07/17/2014  05:25:00      -55.350       39.366      -19.428        5.222        5.958        3.178       27.269       35.500       10.099        0.253        0.004       67.921        1.226        0.000      345.182       22.530      861.483
07/17/2014  05:26:00      -55.143       44.773      -14.884       10.249       11.328        8.613      105.036      128.331       74.185        0.279        0.015       71.030        5.446        0.006      345.052       22.308      861.503
07/17/2014  05:27:00      -43.172       31.098       -9.448       14.232       13.546        9.724      202.547      183.491       94.547        0.170        0.024       53.206        4.904        0.008      345.059       22.320      861.515
07/17/2014  05:28:00        0.024       34.688       -5.202       22.968       17.264        8.725      527.533      298.044       76.118        0.107        0.045       34.688       10.939        0.099      345.138       22.454      861.516
07/17/2014  05:29:00       14.721       34.785        3.763       18.108       24.943       10.899      327.913      622.143      118.784        0.125        0.053       37.772       11.938        0.100      345.221       22.597      861.513
07/17/2014  05:30:00       32.388       26.561        3.226       11.969       12.108        9.248      143.250      146.606       85.525        0.107        0.019       41.886        4.916        0.014      345.320       22.765      861.523
07/17/2014  05:31:00       38.860       29.261       10.775       14.430       14.822        9.889      208.234      219.701       97.790        0.150        0.026       48.644        7.979        0.027      345.513       23.097      861.549
07/17/2014  05:32:00        3.754       43.112        1.682       19.403       16.794        9.466      376.472      282.042       89.609        0.131        0.037       43.275        9.474        0.048      345.540       23.143      861.570
07/17/2014  05:33:00      -13.356       39.019       -2.110       13.323       12.983        5.512      177.498      168.555       30.382        0.104        0.019       41.241        4.486        0.012      345.382       22.872      861.585
07/17/2014  05:34:00        6.417       24.351       -2.964       13.005       20.091        5.828      169.121      403.652       33.961        0.062        0.030       25.182        4.340        0.030      345.427       22.950      861.586
07/17/2014  05:35:00       16.541       -5.079       -0.695       14.321       16.967        6.310      205.081      287.870       39.814        0.042        0.027       17.304        4.154        0.058      345.368       22.848      861.595
07/17/2014  05:36:00       12.530      -36.312       -8.671       11.003        7.517       10.590      121.056       56.511      112.142        0.092        0.014       38.413        5.940        0.024      345.388       22.886      861.605
07/17/2014  05:37:00        5.549      -28.989       -4.886       11.980        7.821        6.647      143.510       61.167       44.185        0.057        0.012       29.516        2.077        0.005      345.357       22.830      861.622
07/17/2014  05:38:00        1.364      -18.622        3.460        6.528        7.431        5.282       42.612       55.227       27.900        0.024        0.006       18.671        2.596        0.019      345.406       22.913      861.636
07/17/2014  05:39:00        1.309       -0.691        5.409        5.521       11.063        6.390       30.485      122.396       40.833        0.011        0.010        1.481        3.081        4.330      345.348       22.814      861.640
07/17/2014  05:40:00        3.788       36.200       -5.788       15.335        9.834        6.097      235.163       96.717       37.171        0.086        0.018       36.398        4.609        0.016      345.433       22.961      861.651
07/17/2014  05:41:00      -28.814       44.386      -10.563        9.866        7.310        5.423       97.346       53.436       29.411        0.155        0.009       52.918        2.998        0.003      345.445       22.979      861.656
07/17/2014  05:42:00      -30.781       25.890       -7.380        9.112        9.118        4.881       83.022       83.133       23.822        0.093        0.009       40.221        4.400        0.012      345.511       23.094      861.657
07/17/2014  05:43:00      -36.880      -11.722       -4.261        5.221       15.566        5.177       27.259      242.304       26.803        0.091        0.015       38.697        4.373        0.013      345.313       22.755      861.658
07/17/2014  05:44:00      -25.767      -16.089       -2.018       10.955        8.038        8.271      120.023       64.614       68.408        0.059        0.013       30.377        1.757        0.003      345.229       22.609      861.671
07/17/2014  05:45:00       -1.670      -18.598       -3.125       10.150        8.166        7.736      103.018       66.680       59.853        0.029        0.011       18.672        6.605        0.125      345.276       22.691      861.679
07/17/2014  05:46:00       -6.793        7.759       -2.889        8.334       11.155        6.886       69.451      124.444       47.421        0.018        0.012       10.312        6.841        0.440      345.383       22.874      861.684
07/17/2014  05:47:00       27.923       39.579        2.396       11.490        8.491        7.735      132.032       72.101       59.834        0.131        0.013       48.438        4.185        0.007      345.474       23.030      861.704
07/17/2014  05:48:00       -1.190       44.387       -3.240        6.893        7.577        3.931       47.517       57.416       15.454        0.105        0.006       44.403        3.863        0.008      345.557       23.174      861.720
07/17/2014  05:49:00       -0.422       42.917       -4.177        4.224        4.873        3.511       17.846       23.750       12.329        0.096        0.003       42.919        1.649        0.001      345.654       23.341      861.741
07/17/2014  05:50:00        6.869       38.119        0.250        9.751        7.656        6.860       95.073       58.615       47.065        0.085        0.010       38.733        4.927        0.016      345.611       23.266      861.749
07/17/2014  05:51:00       33.966       20.284        5.826       13.338       11.300        8.664      177.908      127.693       75.060        0.099        0.019       39.562        5.439        0.019      345.550       23.159      861.766
07/17/2014  05:52:00        7.337      -19.451        2.018       11.542       11.865        9.940      133.215      140.785       98.810        0.040        0.019       20.789        6.728        0.105      345.435       22.962      861.775
07/17/2014  05:53:00        0.097      -27.907       -2.762       15.172       12.729        8.160      230.187      162.027       66.586        0.062        0.023       27.907        6.451        0.053      345.388       22.882      861.789
07/17/2014  05:54:00      -22.872       -5.951       -3.745       16.244        7.891        7.072      263.875       62.270       50.014        0.047        0.019       23.633        8.407        0.127      345.285       22.703      861.799
07/17/2014  05:55:00      -34.675       -3.284       -8.479        6.972        6.079        8.939       48.606       36.954       79.905        0.073        0.008       34.830        4.687        0.018      345.215       22.584      861.802
07/17/2014  05:56:00      -28.657       -9.284       -1.692        5.930        5.884        6.070       35.170       34.625       36.848        0.051        0.005       30.123        0.918        0.001      345.199       22.558      861.801
07/17/2014  05:57:00      -26.933      -36.261        1.871       14.252        9.327        8.595      203.131       86.987       73.882        0.120        0.018       45.169        3.589        0.006      345.373       22.856      861.805
07/17/2014  05:58:00      -23.837      -38.697      -11.516       10.096       16.147        7.772      101.935      260.727       60.402        0.131        0.021       45.449        5.688        0.016      345.381       22.871      861.807
07/17/2014  05:59:00      -34.410      -15.566       -4.221       20.453       11.473        8.160      418.331      131.622       66.579        0.103        0.031       37.767        7.478        0.039      345.294       22.721      861.811
07/17/2014  06:00:00       -1.640      -13.377        0.201       13.892       11.855       10.191      192.979      140.531      103.857        0.031        0.022       13.477        8.970        0.443      345.309       22.749      861.819
07/17/2014  06:01:00      -41.466      -18.941       -4.964       15.233       10.244       11.214      232.055      104.946      125.746        0.128        0.023       45.587        7.043        0.024      345.326       22.778      861.828
07/17/2014  06:02:00      -32.726      -12.576       -1.082        6.323       10.991        6.162       39.974      120.792       37.969        0.071        0.010       35.059        3.866        0.012      345.393       22.893      861.835
07/17/2014  06:03:00      -28.046       -1.565        3.593        4.724        7.030        5.592       22.312       49.418       31.265        0.045        0.005       28.089        3.463        0.015      345.400       22.903      861.836
07/17/2014  06:04:00      -30.412       -3.912        2.740        6.395        6.726        4.894       40.899       45.239       23.955        0.053        0.006       30.662        4.567        0.022      345.408       22.916      861.848
07/17/2014  06:05:00      -13.788        7.565        0.634       11.947       14.995        7.707      142.742      224.862       59.402        0.034        0.021       15.727        6.373        0.164      345.483       23.044      861.864
07/17/2014  06:06:00        1.360      -23.126        2.210       14.517       23.233        8.711      210.734      539.795       75.890        0.068        0.041       23.166        9.078        0.154      345.485       23.047      861.879
07/17/2014  06:07:00        6.223      -27.987       17.637       17.012       23.924       20.672      289.419      572.361      427.348        0.121        0.064       28.671       15.906        0.308      345.596       23.240      861.873
07/17/2014  06:08:00        6.040      -15.092       22.655       16.864       28.101       16.858      284.403      789.644      284.206        0.107        0.068       16.256       14.180        0.761      345.503       23.080      861.871
07/17/2014  06:09:00      -14.948      -20.721        3.262       37.778       45.293       17.394     1427.208     2051.416      302.539        0.222        0.189       25.550       20.872        0.667      345.435       22.963      861.890
07/17/2014  06:10:00      -83.206       29.312       -9.572       18.101       16.150       12.096      327.645      260.830      146.315        0.430        0.037       88.218       10.393        0.014      345.259       22.660      861.910
07/17/2014  06:11:00      -48.449       19.340       -4.251       26.962       24.452       16.980      726.943      597.877      288.311        0.218        0.081       52.167       11.100        0.045      345.226       22.605      861.932
07/17/2014  06:12:00      -40.581       -0.095       -3.847       17.309       19.483       12.493      299.603      379.578      156.065        0.125        0.042       40.581        8.440        0.043      345.192       22.545      861.937
07/17/2014  06:13:00        7.498      -38.881       -3.353       14.752       11.241        6.659      217.625      126.365       44.336        0.098        0.019       39.598        4.908        0.015      345.265       22.673      861.917
07/17/2014  06:14:00       22.064      -54.629       -9.301       17.408       17.647        9.877      303.046      311.412       97.546        0.213        0.036       58.916        5.211        0.008      345.401       22.904      861.894
07/17/2014  06:15:00       -6.418       -4.935        8.022        9.664       17.351       11.683       93.384      301.073      136.484        0.033        0.027        8.096       12.595        2.420      345.425       22.944      861.873
07/17/2014  06:16:00      -37.927       -6.453       -3.039       16.095       11.173        7.542      259.042      124.832       56.880        0.096        0.022       38.472        7.436        0.037      345.450       22.987      861.873
07/17/2014  06:17:00      -80.365       -6.389       -6.193       28.046       16.475       12.183      786.564      271.430      148.426        0.387        0.060       80.619       14.344        0.032      345.350       22.818      861.889
07/17/2014  06:18:00     -111.087        6.542      -10.040       23.694       15.784       13.408      561.386      249.137      179.767        0.674        0.050      111.279       13.167        0.014      345.254       22.653      861.902
07/17/2014  06:19:00      -34.873       10.531       -0.145       27.634       19.595       14.427      763.629      383.975      208.130        0.134        0.068       36.428       11.946        0.108      345.209       22.573      861.910
07/17/2014  06:20:00      -33.713       23.396       -3.895       25.409       23.656       12.326      645.616      559.606      151.921        0.153        0.068       41.036       14.561        0.126      345.296       22.725      861.908
07/17/2014  06:21:00      -36.599       34.548       -3.513       14.146       15.271       10.388      200.105      233.215      107.902        0.154        0.027       50.330        8.055        0.026      345.313       22.755      861.911
07/17/2014  06:22:00      -22.875       -5.746       -5.928       18.351       14.148       14.828      336.748      200.157      219.856        0.067        0.038       23.585       15.100        0.410      345.333       22.788      861.919
07/17/2014  06:23:00        3.421      -15.636        4.699       10.146       13.367        7.373      102.949      178.684       54.358        0.031        0.017       16.006        5.478        0.117      345.344       22.806      861.919
07/17/2014  06:24:00       20.170      -35.835        0.308       10.972       14.927        7.464      120.379      222.812       55.713        0.104        0.020       41.121        8.444        0.042      345.396       22.895      861.923
07/17/2014  06:25:00        4.415      -41.516        2.799       18.781       23.372       15.751      352.725      546.263      248.097        0.145        0.057       41.750       13.078        0.098      345.539       23.144      861.926
07/17/2014  06:26:00      -56.546       -2.743       -3.676       32.501       15.406       12.834     1056.339      237.351      164.721        0.234        0.073       56.613       15.014        0.070      345.587       23.224      861.942
07/17/2014  06:27:00      -77.937       23.291        0.587       27.965       27.469       16.017      782.019      754.531      256.557        0.420        0.090       81.343       10.265        0.016      345.441       22.973      861.970
07/17/2014  06:28:00      -64.807       43.529       -4.742       31.239       27.793       19.775      975.880      772.437      391.040        0.413        0.107       78.069       15.301        0.038      345.358       22.830      861.985
07/17/2014  06:29:00      -74.700       34.122       -4.340       26.397       20.369       18.206      696.786      414.889      331.476        0.410        0.072       82.124       11.845        0.021      345.420       22.938      861.995
07/17/2014  06:30:00      -70.298       -0.351      -10.260       19.786       31.271       13.508      391.498      977.848      182.457        0.330        0.078       70.299       11.999        0.029      345.455       22.998      861.994
07/17/2014  06:31:00        5.661      -45.646       -3.167       20.796       16.402       14.305      432.485      269.025      204.639        0.152        0.045       45.996       10.163        0.049      345.487       23.055      861.982
07/17/2014  06:32:00        3.904      -39.178        6.326       40.661       24.972       25.434     1653.316      623.622      646.874        0.226        0.146       39.372       22.197        0.318      345.552       23.164      861.964
07/17/2014  06:33:00      -58.417      -50.344        6.787       44.060       38.809       27.283     1941.244     1506.173      744.389        0.509        0.210       77.118       19.178        0.062      345.429       22.953      861.940
07/17/2014  06:34:00      -75.937      -79.576        0.463       29.780       28.346       20.414      886.860      803.488      416.751        0.710        0.105      109.994       17.480        0.025      345.488       23.053      861.924
07/17/2014  06:35:00      -79.508      -63.321       -4.061       31.447       19.957       16.379      988.935      398.262      268.269        0.600        0.083      101.641       13.296        0.017      345.577       23.205      861.928
07/17/2014  06:36:00     -102.436      -63.472      -11.314       19.098       31.838       15.412      364.727     1013.681      237.516        0.813        0.081      120.507       15.332        0.016      345.602       23.247      861.941
07/17/2014  06:37:00      -98.037      -46.063       -1.709       44.321       33.464       16.651     1964.325     1119.854      277.243        0.755        0.168      108.319       13.496        0.016      345.560       23.179      861.959
07/17/2014  06:38:00      -91.405      -17.437       -3.238       29.072       24.383       16.895      845.186      594.537      285.427        0.520        0.086       93.053        7.471        0.006      345.550       23.162      861.966
07/17/2014  06:39:00      -89.001        1.335       -5.829       29.895       28.389       16.139      893.700      805.944      260.467        0.496        0.098       89.011       15.979        0.032      345.468       23.016      861.965
07/17/2014  06:40:00      -75.289       -2.844      -10.041       14.643       15.827       12.930      214.418      250.494      167.175        0.320        0.032       75.343        5.705        0.006      345.424       22.944      861.962
07/17/2014  06:41:00      -59.762       23.398       -4.327       13.896       13.883       14.115      193.085      192.747      199.238        0.236        0.029       64.180        5.175        0.007      345.402       22.908      861.964
07/17/2014  06:42:00      -76.888       32.822      -12.334       33.043       14.659       13.061     1091.826      214.892      170.601        0.431        0.074       83.601        6.341        0.006      345.367       22.846      861.981
07/17/2014  06:43:00      -65.709        4.509       -6.300       23.234       16.217       10.336      539.823      263.000      106.842        0.264        0.045       65.863        9.883        0.023      345.413       22.925      861.989
07/17/2014  06:44:00      -86.379       32.496       -2.352       23.319       17.844       14.994      543.767      318.417      224.819        0.480        0.054       92.290        6.205        0.005      345.415       22.931      861.996
07/17/2014  06:45:00      -65.079       20.977       -0.687       32.836       14.708       11.912     1078.209      216.335      141.886        0.306        0.072       68.376       11.247        0.027      345.417       22.931      862.004
07/17/2014  06:46:00      -69.193       28.641       -3.878       36.396       20.622       15.768     1324.675      425.251      248.638        0.381        0.100       74.886       15.940        0.045      345.418       22.933      862.008
07/17/2014  06:47:00     -112.391        9.895       -9.487       35.551       16.328       12.488     1263.871      266.589      155.938        0.725        0.084      112.825       11.508        0.010      345.431       22.955      862.015
07/17/2014  06:48:00      -98.528      -18.409       -4.638       27.254       29.156       13.798      742.757      850.051      190.378        0.593        0.089      100.233       11.443        0.013      345.459       23.005      862.009
07/17/2014  06:49:00      -59.092      -39.935        3.125       26.668       18.020       16.140      711.165      324.721      260.508        0.320        0.065       71.321       15.584        0.048      345.473       23.027      862.006
07/17/2014  06:50:00      -37.278      -33.286       -0.701       20.706       20.161        9.085      428.745      406.449       82.544        0.171        0.046       49.976        8.161        0.027      345.495       23.067      861.997
07/17/2014  06:51:00      -35.829      -19.571       -3.988       11.157       16.846        5.438      124.470      283.793       29.576        0.106        0.022       40.826        3.747        0.008      345.510       23.089      861.987
07/17/2014  06:52:00        1.871       -6.721        6.753        9.936       14.780        9.591       98.732      218.435       91.996        0.025        0.020        6.976        9.434        1.829      345.695       23.410      861.975
07/17/2014  06:53:00      -23.990      -35.627        1.633       35.082       20.933       14.893     1230.751      438.172      221.816        0.187        0.095       42.951       10.822        0.063      345.645       23.322      861.960
07/17/2014  06:54:00      -64.127      -57.817      -12.424       20.178       20.486       15.307      407.148      419.672      234.316        0.434        0.053       86.343       10.484        0.015      345.644       23.321      861.953
07/17/2014  06:55:00      -54.278      -49.185       -1.405       30.209       26.819       17.667      912.562      719.268      312.127        0.366        0.097       73.248       17.521        0.057      345.675       23.374      861.963
07/17/2014  06:56:00     -102.077      -45.904       -8.333       23.528       17.595       11.609      553.559      309.575      134.765        0.680        0.050      111.924       10.816        0.009      345.643       23.322      861.972
07/17/2014  06:57:00      -61.475      -14.139        2.213       34.000       29.544       17.606     1156.015      872.868      309.960        0.316        0.117       63.080       18.780        0.089      345.657       23.343      861.980
07/17/2014  06:58:00      -51.060        4.626       -1.145       34.598       23.775       15.889     1197.041      565.251      252.465        0.232        0.101       51.269       17.190        0.112      345.625       23.289      861.978
07/17/2014  06:59:00      -64.211       12.521       -4.845       43.965       13.446       15.237     1932.930      180.794      232.172        0.332        0.117       65.421       18.601        0.081      345.613       23.265      861.994
07/17/2014  07:00:00      -52.386        7.798       -8.184       18.125       17.882       13.151      328.503      319.783      172.956        0.185        0.041       52.963       13.014        0.060      345.625       23.292      861.996
07/17/2014  07:01:00      -47.132      -15.417       -6.614       22.659       19.579       12.606      513.413      383.347      158.912        0.178        0.053       49.589       11.364        0.053      345.690       23.399      861.994
07/17/2014  07:02:00      -48.276      -29.784        0.242       23.597       16.772       16.178      556.815      281.284      261.735        0.216        0.055       56.725       13.245        0.055      345.709       23.431      861.989
07/17/2014  07:03:00      -87.667      -31.559       -7.285       11.889       12.287        8.280      141.340      150.981       68.560        0.455        0.018       93.174        5.148        0.003      345.634       23.307      862.001
07/17/2014  07:04:00      -68.117      -26.315       -2.893       11.281        8.016        6.667      127.258       64.253       44.449        0.279        0.012       73.023        5.197        0.005      345.680       23.383      862.015
07/17/2014  07:05:00      -45.870       -9.320       -1.285        7.308       12.384        7.583       53.413      153.362       57.500        0.123        0.013       46.807        3.886        0.007      345.741       23.488      862.021
07/17/2014  07:06:00      -39.732       -4.658        2.934       22.297       14.352       10.043      497.170      205.974      100.854        0.121        0.040       40.004        9.967        0.062      345.819       23.622      862.031
07/17/2014  07:07:00      -37.400      -20.709       -0.859       24.095       16.958       10.139      580.551      287.586      102.791        0.140        0.049       42.750        7.217        0.028      345.781       23.555      862.044
07/17/2014  07:08:00       -8.577      -47.917       -4.222       12.982       24.228       10.062      168.531      586.995      101.237        0.162        0.043       48.678        4.079        0.007      345.815       23.614      862.045
07/17/2014  07:09:00      -23.438      -87.150       -3.557       14.082       16.981        9.110      198.307      288.357       82.995        0.436        0.028       90.247        5.667        0.004      345.772       23.542      862.052
07/17/2014  07:10:00      -48.894     -108.158       -7.160       20.729       22.069       16.623      429.698      487.032      276.330        0.767        0.060      118.696        8.364        0.005      345.786       23.564      862.067
07/17/2014  07:11:00      -30.093      -74.090        3.498       36.459       43.783       23.544     1329.273     1916.957      554.308        0.510        0.190       79.968       21.388        0.072      345.815       23.615      862.073
07/17/2014  07:12:00      -46.049      -78.749       -4.794       33.372       23.638       13.904     1113.712      558.762      193.319        0.510        0.093       91.225       12.855        0.020      345.807       23.601      862.089
07/17/2014  07:13:00      -26.519      -30.454       -5.337       25.035       20.794       14.667      626.769      432.394      215.127        0.147        0.064       40.382       12.820        0.101      345.850       23.676      862.114
07/17/2014  07:14:00      -16.303      -43.489        1.273       23.175       21.065       16.513      537.077      443.749      272.684        0.171        0.063       46.444       11.835        0.065      345.901       23.763      862.114
07/17/2014  07:15:00      -41.077       -6.646       -0.979       24.113       14.602       12.399      581.443      213.228      153.736        0.134        0.047       41.611       15.520        0.139      345.958       23.859      862.127
07/17/2014  07:16:00      -13.674      -24.258        5.577       17.499       27.765       14.245      306.201      770.914      202.928        0.104        0.064       27.847       16.936        0.370      346.056       24.029      862.139
07/17/2014  07:17:00       -6.337      -37.619        5.273       11.145       14.938       12.353      124.200      223.135      152.593        0.099        0.025       38.149       10.653        0.078      345.954       23.857      862.137
07/17/2014  07:18:00      -26.112      -56.593        0.525       22.701       23.744       16.288      515.322      563.800      265.304        0.261        0.067       62.326       15.463        0.062      345.949       23.846      862.143
07/17/2014  07:19:00      -16.884      -55.125       -0.288       21.442       22.592       13.104      459.773      510.392      171.712        0.223        0.057       57.653       11.985        0.043      345.943       23.833      862.154
07/17/2014  07:20:00      -34.670      -43.240        5.810       27.616       26.150       15.007      762.650      683.808      225.215        0.239        0.084       55.423       14.919        0.072      345.989       23.913      862.158
07/17/2014  07:21:00      -28.299      -52.567       -3.820       17.611       25.376       12.720      310.164      643.942      161.798        0.235        0.056       59.701        8.050        0.018      345.926       23.806      862.170
07/17/2014  07:22:00      -21.123      -43.667        5.988       19.285       26.324       19.056      371.910      692.940      363.132        0.191        0.071       48.508       10.540        0.047      346.050       24.018      862.179
07/17/2014  07:23:00       -7.155      -34.955       -1.855       21.519       42.953       19.713      463.054     1844.960      388.612        0.199        0.135       35.679       23.398        0.430      346.065       24.044      862.172
07/17/2014  07:24:00      -47.131       -7.865       -0.698       39.595       22.836       21.646     1567.780      521.469      468.556        0.242        0.128       47.783       23.606        0.244      346.062       24.041      862.192
07/17/2014  07:25:00      -61.696      -26.224       -2.427       35.378       20.734       17.746     1251.581      429.912      314.924        0.325        0.100       67.038       21.845        0.106      346.019       23.967      862.219
07/17/2014  07:26:00      -67.438      -32.182        4.713       31.766       22.439       15.594     1009.092      503.496      243.159        0.368        0.088       74.723       17.681        0.056      346.032       23.990      862.233
07/17/2014  07:27:00      -66.647      -34.634       -5.047       19.502       15.743       11.114      380.342      247.854      123.523        0.321        0.038       75.109        3.642        0.002      345.995       23.926      862.235
07/17/2014  07:28:00      -39.843      -33.000       -3.776       17.072       21.709       13.789      291.465      471.296      190.136        0.182        0.048       51.734       13.230        0.065      346.063       24.039      862.245
07/17/2014  07:29:00      -20.984      -39.463       -1.188       23.529       23.408       16.492      553.603      547.955      271.977        0.169        0.069       44.695       14.086        0.099      346.038       24.000      862.254
07/17/2014  07:30:00      -52.741      -27.277       -2.228       28.339       16.791       13.417      803.097      281.934      180.029        0.240        0.063       59.377        8.470        0.020      346.030       23.983      862.259
07/17/2014  07:31:00      -84.671      -37.071       -6.293       13.470       13.794       11.654      181.448      190.262      135.819        0.455        0.025       92.431        5.672        0.004      346.013       23.956      862.268
07/17/2014  07:32:00      -66.464      -55.765        1.156       28.392       25.708       17.171      806.085      660.889      294.850        0.464        0.088       86.760       13.525        0.024      346.066       24.045      862.271
07/17/2014  07:33:00      -41.728      -52.705       -0.210       33.407       25.911       20.515     1116.009      671.376      420.851        0.336        0.110       67.223       19.125        0.081      346.141       24.174      862.263
07/17/2014  07:34:00      -68.909       -7.537       -3.390       27.004       24.320       17.935      729.242      591.465      321.663        0.323        0.082       69.320       15.323        0.049      346.069       24.050      862.273
07/17/2014  07:35:00      -42.323      -14.158        3.810       28.872       25.234       17.301      833.590      636.748      299.330        0.189        0.088       44.629       10.331        0.054      346.100       24.103      862.292
07/17/2014  07:36:00      -54.236      -52.762       -5.234       23.263       14.434       12.002      541.173      208.332      144.056        0.332        0.045       75.666       13.225        0.031      346.048       24.012      862.297
07/17/2014  07:37:00      -64.794      -74.069       -4.945       27.310       30.240       15.980      745.828      914.454      255.372        0.581        0.096       98.410       15.445        0.025      346.057       24.029      862.318
07/17/2014  07:38:00      -42.313     -110.459       -8.441       28.322       19.895       15.534      802.120      395.799      241.313        0.775        0.072      118.286       14.636        0.015      346.092       24.091      862.325
07/17/2014  07:39:00      -71.267      -63.299        0.324       42.891       27.684       23.398     1839.654      766.386      547.488        0.612        0.158       95.319       21.748        0.052      346.143       24.177      862.319
07/17/2014  07:40:00      -87.227      -46.202       -4.158       28.558       27.054       11.360      815.571      731.928      129.059        0.572        0.084       98.708        8.915        0.008      346.154       24.198      862.328
07/17/2014  07:41:00      -91.479      -45.514        1.312       29.135       44.223       17.219      848.848     1955.696      296.488        0.677        0.155      102.176       14.186        0.019      346.176       24.235      862.320
07/17/2014  07:42:00     -125.381      -41.450       -4.854       21.043       14.172       13.287      442.823      200.843      176.535        0.914        0.041      132.055        9.858        0.006      346.129       24.153      862.330
07/17/2014  07:43:00     -107.947      -15.725       -0.711       38.315       34.323       20.748     1468.005     1178.035      430.467        0.749        0.154      109.086       21.738        0.040      346.173       24.229      862.344
07/17/2014  07:44:00      -91.046      -32.159        4.441       44.558       42.395       21.931     1985.374     1797.317      480.957        0.680        0.213       96.559       24.297        0.063      346.186       24.253      862.346
07/17/2014  07:45:00     -106.480      -16.170        4.087       44.208       22.863       21.837     1954.341      522.726      476.875        0.728        0.148      107.701       24.147        0.050      346.132       24.160      862.348
07/17/2014  07:46:00     -111.613      -67.988       -4.115       47.226       39.112       20.315     2230.304     1529.747      412.714        1.063        0.209      130.690       19.706        0.023      346.098       24.100      862.357
07/17/2014  07:47:00      -46.958      -45.692       -3.365       17.871       21.137       11.842      319.380      446.761      140.228        0.261        0.045       65.519        7.744        0.014      346.116       24.132      862.356
07/17/2014  07:48:00      -78.344      -36.843        0.408       28.848       24.670       16.565      832.180      608.615      274.388        0.460        0.086       86.575       12.617        0.021      346.153       24.197      862.334
07/17/2014  07:49:00      -69.343      -71.953       -1.147       23.632       26.588       16.484      558.456      706.910      271.720        0.576        0.077       99.928       10.473        0.011      346.146       24.183      862.341
07/17/2014  07:50:00      -75.003      -50.108       -4.618       22.336       34.596        9.995      498.894     1196.873       99.898        0.498        0.090       90.201       10.565        0.014      346.149       24.187      862.347
07/17/2014  07:51:00      -24.635      -63.150       11.376       23.781       22.805       17.756      565.533      520.052      315.292        0.306        0.070       67.785       14.780        0.048      346.255       24.371      862.348
07/17/2014  07:52:00      -40.858        7.606        5.472       16.536       19.579       11.508      273.454      383.344      132.445        0.127        0.039       41.559       11.357        0.075      346.226       24.321      862.347
07/17/2014  07:53:00      -51.300        4.504       -0.373        6.073       12.029        6.104       36.881      144.697       37.256        0.144        0.011       51.497        3.305        0.004      346.196       24.271      862.352
07/17/2014  07:54:00      -57.479       -6.372       -1.424       16.009       14.839        9.940      256.291      220.195       98.806        0.196        0.029       57.831        6.714        0.013      346.188       24.259      862.353
07/17/2014  07:55:00      -27.786        3.655        2.124        7.531        8.313        5.417       56.713       69.109       29.341        0.047        0.008       28.026        2.612        0.009      346.206       24.286      862.360
07/17/2014  07:56:00      -50.851       -9.003       -0.247       14.170        9.808        8.352      200.779       96.205       69.755        0.152        0.018       51.642        7.613        0.022      346.228       24.322      862.360
07/17/2014  07:57:00      -53.052      -17.208       -1.887       14.621       12.130        8.530      213.788      147.140       72.757        0.177        0.022       55.773        4.546        0.007      346.254       24.370      862.361
07/17/2014  07:58:00      -35.373      -37.173       -2.379       19.990       29.608       15.394      399.611      876.611      236.971        0.208        0.076       51.314       14.782        0.083      346.288       24.428      862.373
07/17/2014  07:59:00      -39.991      -55.631        0.416       13.636       33.833        9.242      185.944     1144.699       85.415        0.305        0.071       68.513       12.940        0.036      346.265       24.390      862.386
07/17/2014  08:00:00      -29.619      -75.035        0.861       16.227       27.258        8.256      263.311      743.006       68.162        0.379        0.054       80.670        2.481        0.001      346.252       24.367      862.397
07/17/2014  08:01:00      -28.031      -29.488        2.360       25.930       19.580       11.293      672.340      383.373      127.521        0.142        0.059       40.685        5.706        0.020      346.354       24.541      862.399
07/17/2014  08:02:00      -18.485      -40.757       -0.919       24.816       25.524       13.632      615.842      651.485      185.831        0.173        0.073       44.753       14.842        0.110      346.376       24.581      862.396
07/17/2014  08:03:00      -24.365      -59.096       -1.796       16.569       34.282       16.161      274.535     1175.229      261.167        0.290        0.086       63.922       16.578        0.067      346.343       24.522      862.396
07/17/2014  08:04:00       -7.667      -66.260        1.512       26.656       33.362       20.459      710.526     1113.031      418.580        0.335        0.112       66.702       14.957        0.050      346.352       24.538      862.394
07/17/2014  08:05:00      -24.855      -89.995       -0.364        9.718       14.699        9.913       94.447      216.061       98.277        0.456        0.020       93.364        7.995        0.007      346.296       24.442      862.397
07/17/2014  08:06:00      -42.500      -95.060       -1.152       10.101       17.425        6.933      102.033      303.634       48.063        0.565        0.023      104.128        6.184        0.004      346.277       24.407      862.395
07/17/2014  08:07:00      -33.114     -102.825       -1.020       17.719       24.851        8.682      313.969      617.569       75.371        0.634        0.050      108.025        7.244        0.004      346.281       24.416      862.390
07/17/2014  08:08:00      -24.614      -57.440       -0.582        7.258       11.614        7.035       52.681      134.895       49.492        0.207        0.012       62.491        0.885        0.000      346.312       24.471      862.398
07/17/2014  08:09:00      -20.879      -40.765       -0.795       13.229       12.608        9.872      175.019      158.955       97.455        0.126        0.022       45.801        7.960        0.030      346.324       24.492      862.402
07/17/2014  08:10:00      -23.363      -71.400        3.819       10.590       10.798        8.075      112.149      116.603       65.203        0.298        0.015       75.125        4.924        0.004      346.365       24.561      862.407
07/17/2014  08:11:00      -28.070      -82.081       -4.352        8.764       11.730        8.120       76.811      137.594       65.927        0.391        0.014       86.748        4.737        0.003      346.375       24.570      862.410
07/17/2014  08:12:00      -20.783      -67.656        4.641        9.830        7.672        7.792       96.625       58.857       60.716        0.262        0.011       70.776        4.710        0.004      346.403       24.625      862.397
07/17/2014  08:13:00      -42.041      -59.398       -0.393       22.441       16.974       15.654      503.602      288.115      245.062        0.317        0.052       72.771       11.881        0.027      346.429       24.668      862.400
07/17/2014  08:14:00      -31.105      -30.287       -0.055       25.904       25.350       16.015      671.023      642.608      256.492        0.173        0.079       43.415       17.341        0.160      346.510       24.808      862.408
07/17/2014  08:15:00      -34.334      -59.704       -1.014       17.204       22.991       18.278      295.971      528.565      334.094        0.295        0.058       68.873        8.852        0.017      346.470       24.738      862.420
07/17/2014  08:16:00      -24.276      -40.052        0.293       22.209       14.096       13.831      493.250      198.690      191.288        0.154        0.044       46.834       15.045        0.103      346.484       24.766      862.423
07/17/2014  08:17:00      -46.076      -21.518       -3.713        9.314       17.628        7.755       86.760      310.743       60.134        0.153        0.023       50.853        7.987        0.025      346.471       24.740      862.423
07/17/2014  08:18:00      -43.227       -8.099       -0.944       16.815       14.080        8.633      282.760      198.236       74.531        0.125        0.028       43.979        4.094        0.009      346.520       24.827      862.431
07/17/2014  08:19:00      -18.928      -48.209       -1.174       16.695       16.696       11.554      278.723      278.763      133.488        0.169        0.035       51.792        7.768        0.022      346.536       24.855      862.444
07/17/2014  08:20:00      -14.216      -32.482       -4.028        8.819       16.873        7.354       77.773      284.704       54.087        0.084        0.021       35.456        7.098        0.040      346.529       24.845      862.453
07/17/2014  08:21:00      -77.372      -26.698       -6.896       21.647       19.864       11.229      468.612      394.566      126.083        0.387        0.049       81.849        4.019        0.002      346.561       24.897      862.458
07/17/2014  08:22:00      -54.129      -19.256       -9.318       21.088       17.159       10.261      444.686      294.431      105.291        0.212        0.042       57.452        9.230        0.026      346.585       24.939      862.455
07/17/2014  08:23:00      -26.700      -18.885       -9.161       12.179       23.369       10.840      148.320      546.102      117.498        0.098        0.041       32.703        9.931        0.092      346.633       25.020      862.468
07/17/2014  08:24:00      -32.224      -22.631        1.265       13.923       18.295       10.445      193.841      334.701      109.099        0.109        0.032       39.377       11.448        0.085      346.682       25.103      862.479
07/17/2014  08:25:00      -50.199      -54.097       -0.547       25.264       34.906       13.146      638.282     1218.448      172.815        0.374        0.101       73.800       16.097        0.048      346.648       25.045      862.482
07/17/2014  08:26:00       -7.809      -36.823        1.185       24.567       23.747       20.131      603.559      563.922      405.265        0.150        0.079       37.642       11.787        0.098      346.759       25.238      862.475
07/17/2014  08:27:00       -8.382      -29.187       -3.719       25.620       27.811       19.359      656.393      773.458      374.776        0.137        0.090       30.367       16.746        0.304      346.751       25.224      862.478
07/17/2014  08:28:00      -33.017      -26.993        0.187       18.995       23.035       17.416      360.819      530.598      303.313        0.151        0.060       42.647       12.241        0.082      346.757       25.233      862.475
07/17/2014  08:29:00      -39.063       -3.868        4.597       14.416       10.759       12.179      207.835      115.760      148.320        0.102        0.024       39.254        7.627        0.038      346.755       25.230      862.484
07/17/2014  08:30:00      -37.724       14.493       -2.639       13.633        9.211        7.936      185.868       84.851       62.988        0.099        0.017       40.412        4.722        0.014      346.768       25.254      862.485
07/17/2014  08:31:00      -12.432       -7.077       -3.257       18.274       19.322       20.521      333.929      373.339      421.112        0.067        0.056       14.306       16.118        1.269      346.863       25.417      862.480
07/17/2014  08:32:00      -30.774       -5.794        6.294       18.978       20.354       14.457      360.160      414.276      208.995        0.100        0.049       31.314       17.889        0.326      346.899       25.478      862.471
07/17/2014  08:33:00      -30.014      -35.891       -7.981       21.968       17.926       16.013      482.593      321.354      256.410        0.166        0.053       46.787        8.679        0.034      346.799       25.307      862.469
07/17/2014  08:34:00       -5.359      -34.327        0.805       12.042       20.383       11.052      145.006      415.447      122.137        0.095        0.034       34.743        9.503        0.075      346.849       25.393      862.456
07/17/2014  08:35:00      -18.559      -18.241        7.171       13.620       25.117       11.366      185.516      630.857      129.185        0.084        0.047       26.022        9.081        0.122      346.845       25.384      862.448
07/17/2014  08:36:00      -40.452      -14.794        8.424       22.773       19.127       15.299      518.625      365.860      234.060        0.152        0.056       43.072       13.960        0.105      346.868       25.425      862.459
07/17/2014  08:37:00      -50.317      -12.407       -8.553       30.782       20.131       19.562      947.556      405.271      382.679        0.225        0.087       51.824        6.281        0.015      346.802       25.311      862.473
07/17/2014  08:38:00      -50.831      -22.544       -1.520       25.459       19.282       16.384      648.181      371.795      268.443        0.219        0.064       55.606        7.652        0.019      346.796       25.301      862.476
07/17/2014  08:39:00      -30.971      -27.966       -7.532       31.414       20.890       14.110      986.847      436.383      199.104        0.171        0.081       41.729       11.600        0.077      346.864       25.420      862.483
07/17/2014  08:40:00      -42.249      -20.134       -3.319       29.740       31.171       14.786      884.473      971.634      218.637        0.214        0.104       46.801        8.467        0.033      346.813       25.329      862.498
07/17/2014  08:41:00      -48.152      -11.171       13.905       34.987       28.226       17.810     1224.121      796.715      317.206        0.249        0.117       49.430       18.048        0.133      346.940       25.548      862.498
07/17/2014  08:42:00      -23.816      -36.283        1.032       38.269       30.173       18.496     1464.501      910.391      342.084        0.230        0.136       43.402       20.032        0.213      346.881       25.447      862.525
07/17/2014  08:43:00      -78.908      -30.441       -5.788       32.948       28.960       22.146     1085.557      838.699      490.432        0.480        0.121       84.577       12.342        0.021      346.793       25.296      862.540
07/17/2014  08:44:00      -44.787      -49.731       -6.800       33.040       43.003       16.959     1091.629     1849.244      287.600        0.388        0.161       66.926       17.443        0.068      346.836       25.370      862.544
07/17/2014  08:45:00      -15.402      -79.335       -0.433       27.665       28.823       19.854      765.340      830.753      394.164        0.426        0.100       80.817        9.516        0.014      346.803       25.313      862.565
07/17/2014  08:46:00      -42.191      -53.952        6.121       31.945       41.786       18.479     1020.454     1746.078      341.463        0.392        0.155       68.490       18.462        0.073      346.829       25.358      862.582
07/17/2014  08:47:00      -94.984      -95.242      -10.776       21.879       30.473       23.994      478.697      928.581      575.690        1.010        0.099      134.510       18.823        0.020      346.697       25.131      862.587
07/17/2014  08:48:00      -66.531     -108.923       -6.703       46.131       33.886       22.191     2128.058     1148.275      492.423        1.005        0.188      127.635       14.229        0.012      346.722       25.175      862.604
07/17/2014  08:49:00      -41.006      -64.049        1.542       39.285       47.878       19.034     1543.333     2292.295      362.287        0.499        0.210       76.051       22.659        0.089      346.791       25.293      862.612
07/17/2014  08:50:00      -34.738      -42.259        9.642       37.021       40.353       20.303     1370.534     1628.402      412.213        0.325        0.171       54.704       21.778        0.158      346.898       25.476      862.609
07/17/2014  08:51:00      -43.271       12.893        9.620       29.537       19.849       20.119      872.444      393.966      404.771        0.190        0.084       45.151       16.016        0.126      346.867       25.420      862.615
07/17/2014  08:52:00      -51.673      -12.923        4.250       41.237       30.644       20.717     1700.531      939.058      429.187        0.296        0.153       53.265       17.127        0.103      346.945       25.558      862.618
07/17/2014  08:53:00      -32.244      -11.976        0.135       26.693       18.270       14.972      712.496      333.800      224.147        0.123        0.064       34.396        9.569        0.077      346.908       25.494      862.613
07/17/2014  08:54:00      -32.480      -12.593       -4.705       22.162       13.767       12.396      491.155      189.533      153.657        0.103        0.042       34.836        7.413        0.045      346.931       25.532      862.622
07/17/2014  08:55:00       -7.397      -35.074       -3.689       31.162       37.043       24.196      971.069     1372.173      585.432        0.211        0.146       35.845       12.655        0.125      346.974       25.607      862.623
07/17/2014  08:56:00      -55.114      -38.153        3.556       34.991       35.227       19.395     1224.391     1240.914      376.153        0.367        0.142       67.032       21.364        0.102      346.981       25.620      862.618
07/17/2014  08:57:00      -60.182      -17.230       -8.545       35.097       38.643       15.237     1231.777     1493.281      232.172        0.347        0.148       62.600       11.033        0.031      346.856       25.405      862.622
07/17/2014  08:58:00      -85.336      -85.145       -8.326       53.517       43.727       24.192     2864.019     1912.060      585.246        0.998        0.268      120.549       12.427        0.011      346.860       25.411      862.637
07/17/2014  08:59:00      -45.451      -49.478        5.502       52.326       41.036       28.349     2737.987     1683.930      803.644        0.488        0.261       67.185       19.877        0.088      346.937       25.542      862.635
07/17/2014  09:00:00      -47.026      -63.715       -6.597       41.301       42.581       22.970     1705.764     1813.137      527.613        0.518        0.202       79.190       19.116        0.058      346.954       25.572      862.629
07/17/2014  09:01:00      -41.159      -26.363       -1.690       34.259       25.424       15.457     1173.666      646.359      238.905        0.223        0.103       48.879        9.986        0.042      347.002       25.656      862.632
07/17/2014  09:02:00      -19.235      -16.777        3.556       19.401       16.702       12.758      376.400      278.941      162.766        0.074        0.041       25.524       12.077        0.224      347.127       25.872      862.633
07/17/2014  09:03:00      -18.124      -20.671        1.513       35.456       23.432       18.571     1257.108      549.044      344.884        0.145        0.108       27.491       10.484        0.145      347.185       25.972      862.627
07/17/2014  09:04:00      -25.849       -7.782       14.639       30.643       22.391       17.299      938.969      501.360      299.251        0.134        0.087       26.995       15.645        0.336      347.198       25.995      862.628
07/17/2014  09:05:00       -3.373      -26.085       -7.507       29.736       21.190       13.043      884.240      449.009      170.129        0.113        0.075       26.302       14.798        0.317      347.155       25.921      862.639
07/17/2014  09:06:00       -8.387        7.186       23.033       20.569       20.589       20.430      423.066      423.915      417.381        0.096        0.063       11.044       13.176        1.423      347.341       26.239      862.641
07/17/2014  09:07:00      -21.786      -23.891        5.734       26.619       28.458       16.695      708.564      809.830      278.722        0.144        0.090       32.332       14.930        0.213      347.205       26.005      862.632
07/17/2014  09:08:00       -8.939      -31.698       -2.952       35.428       36.602       20.302     1255.168     1339.708      412.171        0.205        0.150       32.935       20.363        0.382      347.156       25.921      862.640
07/17/2014  09:09:00      -21.239      -58.262       -6.229       22.595       42.850       20.196      510.544     1836.126      407.869        0.332        0.138       62.013       17.121        0.076      347.094       25.815      862.643
07/17/2014  09:10:00      -17.830      -77.076      -18.195       21.793       40.331       16.386      474.934     1626.621      268.492        0.448        0.119       79.111       14.121        0.032      347.071       25.774      862.640
07/17/2014  09:11:00      -40.344      -21.267        3.990       36.459       18.705       17.803     1329.270      349.864      316.944        0.205        0.100       45.606       18.527        0.165      347.255       26.092      862.645
07/17/2014  09:12:00      -27.055      -45.329      -17.407       23.828       27.337       23.865      567.768      747.287      569.525        0.249        0.094       52.789        8.836        0.028      347.148       25.907      862.640
07/17/2014  09:13:00      -27.366      -39.726        1.745       25.886       20.873       16.947      670.096      435.699      287.214        0.186        0.070       48.240       11.875        0.061      347.209       26.013      862.639
07/17/2014  09:14:00      -64.418      -59.221       -8.526       41.382       24.605       18.509     1712.473      605.393      342.586        0.519        0.133       87.503        9.581        0.012      347.115       25.850      862.643
07/17/2014  09:15:00      -26.312        3.702        4.391       21.167       25.309       20.342      448.036      640.538      413.783        0.111        0.075       26.571       16.927        0.406      347.244       26.075      862.638
07/17/2014  09:16:00       -1.261      -22.399       -5.146       16.330       21.782       16.886      266.678      474.452      285.153        0.078        0.051       22.434       10.449        0.217      347.323       26.211      862.634
07/17/2014  09:17:00      -21.643       -7.960      -11.710       15.944       15.409       10.402      254.222      237.427      108.194        0.063        0.030       23.060        6.015        0.068      347.310       26.186      862.634
07/17/2014  09:18:00       -4.667      -14.884       -2.996       19.763       20.411       13.662      390.595      416.621      186.648        0.062        0.050       15.598       10.612        0.463      347.316       26.196      862.636
07/17/2014  09:19:00       -6.099       23.590      -17.446       35.406       27.641       22.128     1253.606      763.997      489.646        0.170        0.125       24.365       19.518        0.642      347.184       25.969      862.626
07/17/2014  09:20:00       -5.240       32.346       -7.508       17.482       16.393       11.765      305.611      268.745      138.410        0.092        0.036       32.767        7.883        0.058      347.210       26.015      862.631
07/17/2014  09:21:00       -3.553       35.918       -0.317       23.270       22.057       17.265      541.510      486.521      298.096        0.131        0.066       36.093       13.431        0.138      347.273       26.125      862.636
07/17/2014  09:22:00       21.171      -15.794       -4.169       21.929       27.079       17.917      480.887      733.256      321.015        0.112        0.077       26.413       11.592        0.193      347.263       26.106      862.630
07/17/2014  09:23:00       31.697      -11.293        9.616       26.362       18.477       19.851      694.955      341.404      394.061        0.133        0.072       33.648       15.980        0.226      347.292       26.156      862.624
07/17/2014  09:24:00       35.478      -47.182      -15.660       38.544       33.213       26.821     1485.674     1103.107      719.373        0.352        0.165       59.032       25.271        0.183      347.106       25.835      862.618
07/17/2014  09:25:00        1.627      -94.228      -22.124       40.326       31.826       21.210     1626.206     1012.914      449.864        0.623        0.154       94.242       14.095        0.022      347.278       26.131      862.611
07/17/2014  09:26:00      -46.489      -29.458        0.915       23.916       22.287       19.519      571.983      496.723      380.984        0.224        0.072       55.037       14.105        0.066      347.393       26.328      862.600
07/17/2014  09:27:00      -33.539        6.179       -6.577       28.228       12.615       20.820      796.804      159.139      433.460        0.130        0.069       34.103       17.967        0.278      347.418       26.373      862.608
07/17/2014  09:28:00        4.706        9.371        8.166       33.832       12.610       23.973     1144.621      159.006      574.713        0.103        0.094       10.486       24.600        5.503      347.514       26.539      862.600
07/17/2014  09:29:00       18.193        0.998       14.038       26.075       30.534       19.677      679.925      932.331      387.173        0.126        0.100       18.220       18.479        1.029      347.549       26.600      862.589
07/17/2014  09:30:00       18.469       16.705       32.597       27.450       17.722       17.934      753.485      314.086      321.624        0.154        0.069       24.903       19.167        0.592      347.639       26.754      862.586
07/17/2014  09:31:00       36.981       -3.911       11.469       41.553       21.203       25.168     1726.671      449.567      633.438        0.216        0.140       37.187       27.093        0.531      347.566       26.628      862.572
07/17/2014  09:32:00       22.479        0.521       22.609       18.016       19.944       17.874      324.580      397.760      319.462        0.103        0.052       22.485        7.105        0.100      347.666       26.802      862.561
07/17/2014  09:33:00       28.910       -7.579       27.120       27.346       36.973       21.533      747.786     1367.011      463.689        0.210        0.129       29.887       14.942        0.250      347.555       26.609      862.554
07/17/2014  09:34:00        6.559       -5.730       24.695       21.606       25.719       19.180      466.818      661.474      367.888        0.109        0.075        8.709       11.502        1.744      347.705       26.868      862.543
07/17/2014  09:35:00        6.592      -17.093       20.184       23.243       24.401       24.477      540.216      595.392      599.113        0.124        0.087       18.320       12.090        0.436      347.751       26.947      862.526
07/17/2014  09:36:00       31.811      -31.605       12.573       23.158       39.648       26.567      536.304     1571.978      705.797        0.249        0.141       44.842       27.662        0.381      347.707       26.871      862.534
07/17/2014  09:37:00       35.213      -60.778       -0.569       21.394       32.228       22.694      457.706     1038.657      515.013        0.347        0.101       70.242       23.136        0.108      347.710       26.877      862.531
07/17/2014  09:38:00       19.904        3.025       23.194       31.241       29.555       28.559      976.010      873.511      815.602        0.180        0.133       20.132       15.458        0.590      347.917       27.235      862.516
07/17/2014  09:39:00        7.806       -8.409       17.363       14.024       29.305       21.112      196.669      858.755      445.724        0.097        0.075       11.473       16.805        2.145      347.965       27.317      862.516
07/17/2014  09:40:00       12.856       -9.650       22.283       19.808       15.604       14.179      392.356      243.483      201.031        0.080        0.042       16.075       10.878        0.458      348.151       27.636      862.514
07/17/2014  09:41:00       14.547       -2.156       13.494       24.857       18.137       16.161      617.849      328.954      261.180        0.080        0.060       14.706       14.133        0.924      348.050       27.463      862.505
07/17/2014  09:42:00       10.133       -8.365       18.366       15.222       22.596       15.668      231.710      510.587      245.486        0.075        0.049       13.140       14.708        1.253      348.108       27.563      862.504
07/17/2014  09:43:00       43.870      -65.965        1.111       32.913       33.973       19.567     1083.240     1154.155      382.869        0.445        0.131       79.221       17.933        0.051      347.828       27.081      862.503
07/17/2014  09:44:00       13.089      -77.558       -4.416       18.448       23.939       21.910      340.315      573.068      480.051        0.380        0.070       78.655       13.679        0.030      347.855       27.127      862.493
07/17/2014  09:45:00        4.409      -79.664       18.132       27.952       29.389       27.243      781.339      863.735      742.162        0.454        0.119       79.786       16.755        0.044      348.034       27.436      862.488
07/17/2014  09:46:00       30.999      -31.802       12.624       26.574       31.464       24.684      706.176      989.958      609.288        0.222        0.115       44.411       13.396        0.091      348.069       27.496      862.494
07/17/2014  09:47:00       26.079      -19.040       13.813       25.484       41.883       21.710      649.427     1754.210      471.304        0.205        0.144       32.290       11.872        0.135      347.975       27.333      862.489
07/17/2014  09:48:00       41.453       31.657        3.237       25.651       20.687       27.014      657.977      427.961      729.763        0.227        0.091       52.159       16.726        0.103      348.042       27.449      862.497
07/17/2014  09:49:00       29.403       75.350       -8.849       29.828       38.183       29.351      889.708     1457.952      861.476        0.491        0.160       80.884       25.897        0.103      347.905       27.212      862.496
07/17/2014  09:50:00       13.667       15.080        9.652       34.851       18.672       20.169     1214.585      348.626      406.801        0.124        0.099       20.352       16.970        0.695      348.132       27.605      862.482
07/17/2014  09:51:00       -7.794       24.639       13.488       32.774       18.409       20.792     1074.126      338.900      432.316        0.135        0.092       25.843       13.974        0.292      348.105       27.559      862.475
07/17/2014  09:52:00      102.581       66.138       46.261       45.481       40.734       49.730     2068.505     1659.245     2473.024        1.162        0.310      122.053       33.345        0.075      347.954       27.296      862.458
07/17/2014  09:53:00       75.048       68.391       28.138       41.220       39.458       38.705     1699.115     1556.922     1498.110        0.793        0.238      101.535       12.058        0.014      348.069       27.497      862.450
07/17/2014  09:54:00       43.719      111.697      -18.731       40.140       64.149       25.415     1611.199     4115.060      645.915        1.055        0.319      119.948       23.692        0.039      348.116       27.577      862.458
07/17/2014  09:55:00      -84.623      187.720      -21.035       45.871       99.528       34.878     2104.154     9905.868     1216.464        2.803        0.661      205.912       35.857        0.030      348.059       27.477      862.459
07/17/2014  09:56:00      -67.024      279.858      -35.696       48.179       70.359       29.888     2321.244     4950.355      893.270        4.612        0.408      287.772       26.308        0.008      348.020       27.407      862.456
07/17/2014  09:57:00        7.586      209.226      -15.060       63.925       94.716       51.015     4086.440     8971.175     2602.537        2.986        0.783      209.364       50.799        0.059      348.187       27.696      862.442
07/17/2014  09:58:00        1.744      138.089       -7.958       49.034       54.394       39.592     2404.318     2958.684     1567.515        1.303        0.347      138.100       38.993        0.080      348.349       27.980      862.450
07/17/2014  09:59:00        7.340      124.521      -12.445       39.409       65.526       38.563     1553.098     4293.680     1487.109        1.152        0.367      124.737       41.228        0.109      348.341       27.965      862.449
07/17/2014  10:00:00      -98.645      191.872      -24.068       65.992       86.545       39.687     4354.945     7490.075     1575.095        3.027        0.671      215.745       40.252        0.035      348.236       27.782      862.438
07/17/2014  10:01:00       95.064      120.961       10.694       85.562       73.839       59.672     7320.824     5452.249     3560.710        2.006        0.817      153.846       54.203        0.124      348.402       28.070      862.441
07/17/2014  10:02:00       32.971      182.429       -2.709       74.876      103.599       55.633     5606.387    10732.800     3095.041        2.690        0.972      185.385       62.752        0.115      348.366       28.009      862.450
07/17/2014  10:03:00      -15.361      249.734      -28.589       52.330       62.540       31.100     2738.433     3911.288      967.186        3.552        0.381      250.206       27.720        0.012      348.209       27.735      862.443
07/17/2014  10:04:00       14.023      205.902       -0.355       73.191      136.029       62.739     5356.896    18503.801     3936.207        3.519        1.390      206.379       80.106        0.151      348.453       28.156      862.445
07/17/2014  10:05:00      -78.449      280.096      -34.649       68.804      107.650       41.099     4733.966    11588.428     1689.097        5.191        0.901      290.875       44.823        0.024      348.286       27.868      862.447
07/17/2014  10:06:00      -76.942      200.675      -34.188       57.213       81.447       42.358     3273.336     6633.569     1794.184        2.953        0.585      214.919       40.433        0.035      348.324       27.936      862.458
07/17/2014  10:07:00      -85.356      142.843      -12.590       84.277       93.722       47.208     7102.546     8783.843     2228.549        2.298        0.906      166.402       52.526        0.100      348.294       27.883      862.456
07/17/2014  10:08:00      -54.335      337.038      -45.701       58.285       80.358       44.720     3397.109     6457.477     1999.865        6.524        0.593      341.389       41.613        0.015      348.096       27.539      862.441
07/17/2014  10:09:00        8.099      221.681      -20.650       44.175       75.257       42.934     1951.465     5663.623     1843.361        2.954        0.473      221.829       44.528        0.040      348.223       27.759      862.426
07/17/2014  10:10:00     -123.188      167.681      -12.745       73.442      107.709       54.531     5393.761    11601.235     2973.621        3.171        0.998      208.068       50.433        0.059      348.316       27.921      862.427
07/17/2014  10:11:00     -120.439      150.891      -15.109       63.361       95.829       42.298     4014.589     9183.257     1789.139        2.624        0.749      193.064       44.308        0.053      348.414       28.089      862.427
07/17/2014  10:12:00      -75.916       63.503        0.961       80.670       55.016       39.559     6507.697     3026.735     1564.936        1.045        0.555       98.974       36.736        0.138      348.657       28.513      862.422
07/17/2014  10:13:00      -67.660      187.040      -16.837      104.634      116.060       45.053    10948.227    13469.908     2029.767        3.314        1.322      198.902       44.356        0.050      348.382       28.035      862.431
07/17/2014  10:14:00      -76.984      276.163      -38.207       90.019       87.388       42.208     8103.382     7636.601     1781.485        5.058        0.876      286.693       44.823        0.024      348.359       27.994      862.433
07/17/2014  10:15:00      -77.299      159.585      -19.111       58.001      104.620       40.030     3364.152    10945.331     1602.426        2.386        0.796      177.320       40.471        0.052      348.580       28.377      862.427
07/17/2014  10:16:00      -89.528      120.876      -19.373       66.774       77.476       43.553     4458.761     6002.466     1896.884        1.768        0.618      150.420       41.738        0.077      348.440       28.137      862.441
07/17/2014  10:17:00     -232.428      242.314      -52.921      102.818      126.377       57.494    10571.569    15971.067     3305.539        7.269        1.492      335.767       56.604        0.028      348.378       28.027      862.436
07/17/2014  10:18:00     -139.856      136.158      -19.894      100.778       85.195       58.444    10156.241     7258.191     3415.678        2.966        1.042      195.189       61.179        0.098      348.482       28.208      862.455
07/17/2014  10:19:00     -137.803       86.392      -18.255      102.709       78.579       45.888    10549.222     6174.714     2105.692        2.280        0.941      162.645       44.324        0.074      348.435       28.126      862.442
07/17/2014  10:20:00     -107.314      174.641      -18.724       73.762       84.885       50.234     5440.862     7205.498     2523.432        2.877        0.758      204.978       51.385        0.063      348.423       28.105      862.431
07/17/2014  10:21:00     -164.902      104.414      -23.706      121.062      103.136       64.094    14656.077    10636.952     4108.004        3.402        1.470      195.179       73.561        0.142      348.490       28.223      862.435
07/17/2014  10:22:00     -168.129      140.386      -21.002      133.210       97.830       64.233    17744.941     9570.801     4125.818        3.992        1.572      219.033       52.293        0.057      348.347       27.975      862.415
07/17/2014  10:23:00     -139.166      124.393       -8.191      109.828      100.372       56.185    12062.262    10074.514     3156.699        3.010        1.265      186.657       55.744        0.089      348.452       28.156      862.432
07/17/2014  10:24:00     -193.498       87.306      -24.258      120.834       73.776       46.206    14600.783     5442.855     2134.953        3.391        1.109      212.282       58.214        0.075      348.361       27.999      862.433
07/17/2014  10:25:00      -62.789      121.617        3.260       61.213      125.913       52.532     3747.073    15853.964     2759.645        2.055        1.118      136.869       53.275        0.152      348.591       28.397      862.417
07/17/2014  10:26:00      -18.510      110.768       -2.878       66.304       98.049       47.424     4396.196     9613.664     2249.062        1.444        0.813      112.304       50.353        0.201      348.725       28.629      862.436
07/17/2014  10:27:00        1.042      262.399      -31.454       59.159      134.059       56.355     3499.845    17971.751     3175.886        4.724        1.232      262.401       53.234        0.041      348.577       28.373      862.425
07/17/2014  10:28:00      -16.305      263.257      -27.641       83.959      140.000       53.377     7049.080    19599.870     2849.078        4.991        1.475      263.761       68.348        0.067      348.545       28.315      862.436
07/17/2014  10:29:00      -34.640      256.091      -22.295      109.300      119.966       66.237    11946.572    14391.744     4387.387        4.900        1.536      258.423       66.117        0.065      348.547       28.319      862.458
07/17/2014  10:30:00       -3.887      277.104      -35.812       70.724      152.054       55.692     5001.881    23120.384     3101.649        5.465        1.561      277.131       74.371        0.072      348.575       28.370      862.450
07/17/2014  10:31:00      -68.652      202.395      -20.955       88.968      114.088       48.115     7915.247    13016.052     2315.078        3.468        1.162      213.722       49.626        0.054      348.604       28.418      862.457
07/17/2014  10:32:00     -148.456      299.296      -40.527       69.111       74.841       44.497     4776.368     5601.197     1980.014        6.281        0.618      334.092       39.475        0.014      348.372       28.016      862.486
07/17/2014  10:33:00      -82.141      242.647      -19.057       74.400      106.668       55.147     5535.351    11378.160     3041.171        4.297        0.998      256.173       55.591        0.047      348.703       28.591      862.462
07/17/2014  10:34:00      -94.178      190.222      -30.222       98.862      113.476       55.654     9773.702    12876.867     3097.334        3.585        1.287      212.259       73.883        0.121      348.578       28.374      862.472
07/17/2014  10:35:00      -60.354       76.556       -0.700       47.986       66.702       36.016     2302.668     4449.129     1297.180        0.877        0.402       97.486       29.962        0.094      348.769       28.707      862.466
07/17/2014  10:36:00     -126.982      121.442      -23.824       77.219       85.708       54.511     5962.773     7345.823     2971.487        2.386        0.814      175.706       52.755        0.090      348.603       28.417      862.462
07/17/2014  10:37:00     -125.082      177.906      -25.329       77.213       93.518       45.865     5961.836     8745.572     2103.596        3.237        0.841      217.476       44.833        0.042      348.586       28.388      862.456
07/17/2014  10:38:00     -183.915      222.584      -48.638       91.139      118.085       58.075     8306.366    13944.134     3372.678        5.567        1.281      288.736       64.413        0.050      348.628       28.460      862.471
07/17/2014  10:39:00     -148.910      241.383      -28.762       71.698      115.723       53.952     5140.668    13391.829     2910.783        5.135        1.072      283.619       54.611        0.037      348.522       28.276      862.482
07/17/2014  10:40:00      -70.825      116.446      -15.004       47.507       59.602       33.007     2256.910     3552.343     1089.482        1.285        0.345      136.293       31.983        0.055      348.654       28.508      862.477
07/17/2014  10:41:00      -56.808      212.615      -18.994       57.857      112.043       49.557     3347.403    12553.630     2455.939        3.357        0.918      220.074       54.258        0.061      348.660       28.516      862.474
07/17/2014  10:42:00       82.739      105.686       36.494       96.330       92.555       74.948     9279.494     8566.383     5617.234        2.140        1.173      134.221       63.643        0.225      348.820       28.794      862.463
07/17/2014  10:43:00      -91.974      192.850      -25.131       74.088       89.048       48.510     5489.005     7929.492     2353.247        3.102        0.789      213.659       41.706        0.038      348.699       28.582      862.466
07/17/2014  10:44:00      -32.499      176.274      -13.207       81.705      123.508       63.886     6675.781    15254.199     4081.472        2.915        1.301      179.245       75.157        0.176      348.771       28.707      862.471
07/17/2014  10:45:00      -37.884      170.649        2.957       88.389      116.099       62.695     7812.546    13478.917     3930.675        2.789        1.261      174.803       69.708        0.159      348.873       28.884      862.486
07/17/2014  10:46:00       18.126      265.925      -11.000       65.166      110.670       58.245     4246.661    12247.783     3392.441        4.552        0.994      266.542       65.033        0.060      348.636       28.470      862.490
07/17/2014  10:47:00      -32.433      227.698      -25.589       85.940      111.804       57.278     7385.711    12500.209     3280.751        3.836        1.158      229.996       54.006        0.055      348.758       28.685      862.486
07/17/2014  10:48:00      -53.707      302.537      -19.589       81.382      110.519       55.072     6623.091    12214.339     3032.889        5.833        1.094      307.267       49.996        0.026      348.689       28.565      862.494
07/17/2014  10:49:00      -27.401      290.281      -27.603       52.397       89.445       33.706     2745.461     8000.320     1136.113        4.883        0.594      291.571       36.532        0.016      348.681       28.550      862.498
07/17/2014  10:50:00      -28.580      197.919      -18.622       72.489       79.846       52.054     5254.659     6375.373     2709.637        2.733        0.717      199.972       48.604        0.059      348.668       28.528      862.489
07/17/2014  10:51:00      -36.149      110.973       -2.091       49.256       67.675       36.289     2426.155     4579.847     1316.912        1.097        0.416      116.712       42.229        0.131      348.932       28.988      862.480
07/17/2014  10:52:00     -135.482      196.994      -27.578       80.225      136.100       59.315     6436.085    18523.276     3518.277        4.319        1.424      239.086       64.688        0.073      348.769       28.704      862.478
07/17/2014  10:53:00     -107.673      249.321      -22.639       93.946      149.723       49.981     8825.874    22417.082     2498.092        5.400        1.687      271.578       50.136        0.034      348.787       28.733      862.490
07/17/2014  10:54:00      -95.507      271.454      -19.138       94.969      129.132       60.961     9019.065    16674.995     3716.201        5.629        1.471      287.766       63.329        0.048      348.658       28.511      862.514
07/17/2014  10:55:00      -60.342      182.895      -19.943       59.958       54.846       37.373     3595.009     3008.076     1396.727        2.274        0.400      192.592       30.732        0.025      348.664       28.523      862.520
07/17/2014  10:56:00        0.951      305.835      -36.805       46.908       82.612       51.215     2200.319     6824.661     2623.003        5.327        0.582      305.836       39.007        0.016      348.595       28.401      862.514
07/17/2014  10:57:00      -44.636      363.085      -42.966       62.175      154.622       46.478     3865.741    23907.968     2160.204        8.280        1.497      365.818       52.093        0.020      348.677       28.545      862.507
07/17/2014  10:58:00      -75.861      190.992      -26.137       81.289      140.118       46.326     6607.963    19633.016     2146.064        3.565        1.419      205.507       45.668        0.049      348.768       28.704      862.504
07/17/2014  10:59:00      -41.732      246.964      -28.880       78.529      110.804       42.665     6166.732    12277.586     1820.283        4.191        1.013      250.465       47.055        0.035      348.913       28.953      862.504
07/17/2014  11:00:00      -37.745      256.136      -23.940       51.727       73.271       38.816     2675.674     5368.651     1506.652        3.858        0.478      258.902       35.010        0.018      348.712       28.602      862.523
07/17/2014  11:01:00     -108.073      183.708      -22.661       55.756      115.662       40.599     3108.763    13377.768     1648.255        3.203        0.907      213.139       45.693        0.046      348.927       28.978      862.535
07/17/2014  11:02:00      -65.187      127.022       -4.583       66.915       68.666       44.930     4477.648     4714.978     2018.677        1.581        0.561      142.772       45.096        0.100      349.096       29.272      862.532
07/17/2014  11:03:00       -9.234      148.917       -5.754       76.346       92.218       61.712     5828.753     8504.104     3808.417        2.021        0.907      149.203       55.971        0.141      349.091       29.265      862.522
07/17/2014  11:04:00      -72.909      322.515      -35.305       87.972      176.489       56.085     7739.141    31148.279     3145.567        7.630        2.102      330.653       75.323        0.052      348.904       28.937      862.531
07/17/2014  11:05:00       42.148      225.254      -24.981       85.297      105.499       57.635     7275.613    11130.022     3321.840        3.743        1.086      229.163       57.945        0.064      349.036       29.166      862.512
07/17/2014  11:06:00      -39.104      320.040      -39.372      105.111      193.714       63.278    11048.420    37525.250     4004.093        7.903        2.629      322.420       80.577        0.062      348.961       29.037      862.507
07/17/2014  11:07:00     -148.509      337.693      -42.710       74.218      125.065       58.082     5508.378    15641.272     3373.476        8.121        1.226      368.906       57.904        0.025      348.971       29.055      862.510
07/17/2014  11:08:00      -30.147      296.894      -24.110       83.451      100.407       51.113     6964.093    10081.503     2612.529        5.464        0.983      298.421       55.496        0.035      349.041       29.175      862.509
07/17/2014  11:09:00       19.349      189.133       -6.153       97.787      114.689       67.350     9562.265    13153.657     4536.020        3.171        1.363      190.120       71.794        0.143      349.214       29.474      862.508
07/17/2014  11:10:00       -2.718      185.414      -10.368       69.039       93.358       50.892     4766.334     8715.740     2590.023        2.528        0.804      185.434       55.787        0.091      349.269       29.571      862.491
07/17/2014  11:11:00     -125.344      138.677      -26.647      109.521      150.124       48.025    11994.798    22537.285     2306.398        3.624        1.842      186.929       20.236        0.012      349.250       29.536      862.472
07/17/2014  11:12:00     -123.708       43.937      -10.304       83.201       77.940       52.884     6922.466     6074.692     2796.689        1.656        0.790      131.279       46.746        0.127      349.128       29.327      862.465
07/17/2014  11:13:00      -82.933      250.264      -17.198       80.399      133.181       58.357     6464.044    17737.258     3405.512        4.870        1.380      263.648       80.167        0.092      349.157       29.376      862.513
07/17/2014  11:14:00      -21.010      245.842      -27.643       30.667       91.264       37.466      940.485     8329.046     1403.734        3.616        0.534      246.738       39.585        0.026      348.905       28.941      862.504
07/17/2014  11:15:00       32.891      140.855       -7.633       76.836       76.963       50.563     5903.773     5923.361     2556.573        1.768        0.719      144.644       41.631        0.083      349.430       29.852      862.461
07/17/2014  11:16:00      -52.672      391.386      -44.860       83.668      129.025       53.241     7000.279    16647.384     2834.558        9.222        1.324      394.915       51.766        0.017      349.015       29.130      862.487
07/17/2014  11:17:00      -22.595      189.994      -11.984       76.973      122.894       59.388     5924.775    15102.959     3526.989        3.065        1.228      191.333       73.032        0.146      349.186       29.427      862.455
07/17/2014  11:18:00       25.795      189.205       -4.671       86.062       89.305       55.739     7406.656     7975.432     3106.840        2.748        0.924      190.955       58.274        0.093      349.676       30.275      862.437
07/17/2014  11:19:00       57.227      220.327       -8.971       97.950      135.371       87.811     9594.274    18325.332     7710.776        4.376        1.782      227.637       76.483        0.113      349.499       29.968      862.423
07/17/2014  11:20:00       -5.464      208.367      -18.651      121.670      103.707       60.336    14803.657    10755.242     3640.490        3.649        1.460      208.438       59.118        0.080      349.370       29.745      862.437
07/17/2014  11:21:00      -39.875      160.473      -10.144       45.933       57.677       36.116     2109.871     3326.600     1304.355        1.709        0.337      165.353       30.176        0.033      349.470       29.921      862.427
07/17/2014  11:22:00       29.245      127.205       -6.568       54.053       89.221       44.451     2921.703     7960.405     1975.909        1.497        0.643      130.524       46.658        0.128      349.666       30.260      862.433
07/17/2014  11:23:00       52.884       87.877        1.784      100.150       66.364       44.612    10030.011     4404.225     1990.209        1.347        0.821      102.562       40.650        0.157      349.223       29.494      862.423
07/17/2014  11:24:00      -90.858       87.786      -11.836       66.415      101.236       49.718     4410.985    10248.787     2471.898        1.661        0.857      126.339       33.465        0.070      349.612       30.167      862.430
07/17/2014  11:25:00      -72.255       38.372        8.920       73.792       76.267       44.305     5445.217     5816.676     1962.931        1.000        0.661       81.812       34.903        0.182      349.719       30.353      862.395
07/17/2014  11:26:00      -79.606       16.738        5.955       61.628       40.782       33.690     3797.987     1663.170     1135.002        0.662        0.330       81.347       30.319        0.139      349.792       30.481      862.397
07/17/2014  11:27:00      -59.019       33.619        8.120       61.971       58.929       37.345     3840.460     3472.682     1394.673        0.669        0.435       67.923       36.600        0.290      349.968       30.787      862.396
07/17/2014  11:28:00     -118.803      -50.403        1.478       85.262       79.363       39.096     7269.650     6298.503     1528.488        1.587        0.755      129.053       42.562        0.109      349.415       29.825      862.383
07/17/2014  11:29:00     -144.344       42.474      -16.056       27.140       35.119       21.262      736.559     1233.342      452.072        1.266        0.121      150.464       11.465        0.006      349.000       29.106      862.384
07/17/2014  11:30:00     -210.823       29.527      -22.612      152.400      100.545       39.536    23225.777    10109.216     1563.083        4.036        1.745      212.881       10.607        0.002      349.360       29.728      862.362
07/17/2014  11:31:00      -57.369      138.893      -20.187       61.516       61.736       37.232     3784.168     3811.277     1386.254        1.598        0.449      150.275       36.239        0.058      349.515       30.000      862.370
07/17/2014  11:32:00       -8.494      186.071       -1.016       60.986       75.114       56.907     3719.238     5642.134     3238.384        2.365        0.630      186.265       52.831        0.080      349.690       30.302      862.357
07/17/2014  11:33:00      -39.057      229.914      -43.033       87.766       86.610       42.241     7702.884     7501.363     1784.286        3.661        0.849      233.208       45.135        0.037      349.394       29.788      862.322
07/17/2014  11:34:00      -31.482      124.264       16.825       53.136      101.284       67.161     2823.456    10258.474     4510.555        1.715        0.880      128.190       59.798        0.218      349.822       30.532      862.296
07/17/2014  11:35:00       17.154      190.834       -9.910       52.384      114.457       54.071     2744.063    13100.341     2923.656        2.779        0.938      191.603       59.570        0.097      349.948       30.749      862.317
07/17/2014  11:36:00      233.185      221.950       29.374      208.009      123.547       75.654    43267.845    15263.878     5723.455        8.436        3.213      321.927       55.763        0.030      349.631       30.198      862.283
07/17/2014  11:37:00      175.887      208.632        2.235      156.036      131.528       84.725    24347.340    17299.551     7178.348        6.164        2.441      272.880       63.078        0.053      349.537       30.034      862.259
07/17/2014  11:38:00      105.039      176.306        3.171       88.901      124.450       73.215     7903.392    15487.782     5360.408        3.543        1.438      205.224       74.594        0.132      349.718       30.348      862.277
07/17/2014  11:39:00       42.759       55.585       10.829       75.362       75.490       43.677     5679.415     5698.679     1907.695        0.916        0.664       70.129       34.763        0.246      349.971       30.792      862.270
07/17/2014  11:40:00      -27.980       65.249        1.022       55.257       38.575       32.632     3053.386     1488.067     1064.852        0.532        0.280       70.995       22.685        0.102      350.213       31.212      862.265
07/17/2014  11:41:00       53.601       84.946        6.626      108.918       67.336       48.438    11863.133     4534.100     2346.250        1.443        0.937      100.444       39.691        0.156      350.163       31.125      862.260
07/17/2014  11:42:00       86.672      164.963       -3.857       89.642      118.726       61.231     8035.693    14095.869     3749.252        3.031        1.294      186.346       67.736        0.132      349.566       30.086      862.279
07/17/2014  11:43:00       20.332      116.064       -8.100       77.972       66.398       50.400     6079.693     4408.759     2540.130        1.349        0.651      117.831       45.789        0.151      349.601       30.149      862.261
07/17/2014  11:44:00        4.657      262.904      -16.875       54.441      120.353       50.592     2963.836    14484.839     2559.514        4.471        1.000      262.945       64.615        0.060      349.497       29.966      862.246
07/17/2014  11:45:00       90.401       69.703        6.423       42.315       40.368       32.375     1790.601     1629.562     1048.112        0.877        0.223      114.152       18.697        0.027      349.275       29.583      862.210
07/17/2014  11:46:00       87.268      128.885       -0.127       51.613       89.919       43.725     2663.930     8085.366     1911.865        1.844        0.633      155.650       50.202        0.104      349.334       29.686      862.198
07/17/2014  11:47:00       -0.826      203.753       11.821       56.785      119.303       65.866     3224.512    14233.211     4338.305        3.172        1.090      203.755       69.139        0.115      349.881       30.633      862.192
07/17/2014  11:48:00     -162.373      107.240      -18.077       95.078      112.195       56.543     9039.890    12587.776     3197.118        3.150        1.241      194.591       52.576        0.073      349.933       30.722      862.170
07/17/2014  11:49:00     -236.803      131.672      -52.556      114.827      104.168       60.246    13185.133    10851.027     3629.527        5.192        1.383      270.949       71.038        0.069      349.449       29.880      862.211
07/17/2014  11:50:00     -172.726      160.640      -30.969       70.905      103.436       43.122     5027.463    10698.924     1859.465        3.709        0.879      235.880       36.926        0.025      349.301       29.626      862.201
07/17/2014  11:51:00     -117.042      126.138      -30.836       86.964       94.748       46.820     7562.656     8977.257     2192.124        2.464        0.937      172.074       41.893        0.059      349.501       29.973      862.174
07/17/2014  11:52:00      -36.139      181.179       -9.702       52.904       58.337       39.547     2798.792     3403.224     1563.969        2.099        0.388      184.748       29.630        0.026      349.849       30.577      862.153
07/17/2014  11:53:00      -23.862      353.237      -36.731       71.930      156.029       56.326     5173.915    24345.196     3172.654        7.969        1.635      354.042       64.668        0.033      349.687       30.295      862.174
07/17/2014  11:54:00      -45.679      375.455      -42.408       84.400       98.425       57.765     7123.407     9687.501     3336.787        8.250        1.007      378.224       55.293        0.021      349.464       29.909      862.193
07/17/2014  11:55:00      -44.008      310.027      -25.923       68.698      105.974       54.372     4719.392    11230.565     2956.273        5.881        0.945      313.135       53.732        0.029      349.525       30.013      862.170
07/17/2014  11:56:00     -140.491      142.433      -15.173       91.279      104.313       56.400     8331.818    10881.101     3180.930        3.132        1.120      200.062       54.170        0.073      349.729       30.369      862.162
07/17/2014  11:57:00      -98.620      152.462        4.869       85.271      105.570       68.801     7271.125    11144.995     4733.544        2.807        1.157      181.578       45.220        0.062      349.868       30.610      862.163
07/17/2014  11:58:00     -168.969      158.738      -29.527       78.800       93.642       58.880     6209.408     8768.771     3466.883        3.653        0.922      231.837       60.080        0.067      349.655       30.239      862.182
07/17/2014  11:59:00     -125.335      171.053      -33.484       67.462       65.421       44.416     4551.094     4279.903     1972.758        2.844        0.540      212.057       38.799        0.033      349.567       30.088      862.154
07/17/2014  12:00:00      -45.520       61.564        9.158       65.670       56.572       34.349     4312.555     3200.402     1179.882        0.732        0.435       76.565       25.625        0.112      350.230       31.241      862.133
07/17/2014  12:01:00      -37.900       41.413       11.942       63.360       76.787       43.289     4014.473     5896.198     1873.921        0.754        0.589       56.138       36.409        0.421      350.344       31.439      862.138
07/17/2014  12:02:00      -93.973      115.591      -11.397      102.437      131.304       51.508    10493.297    17240.799     2653.115        2.635        1.519      148.970       46.882        0.099      349.995       30.829      862.148
07/17/2014  12:03:00     -116.800       87.021      -31.463       88.599       66.365       36.591     7849.861     4404.333     1338.885        1.790        0.680      145.653       37.548        0.066      349.868       30.613      862.168
07/17/2014  12:04:00     -140.455      163.912      -13.071      106.793       74.090       51.602    11404.825     5489.267     2662.735        3.316        0.978      215.858       57.150        0.070      349.718       30.348      862.174
07/17/2014  12:05:00       35.209      198.085       -1.349       89.169      120.288       75.846     7951.047    14469.086     5752.688        3.432        1.409      201.190       69.910        0.121      349.842       30.565      862.160
07/17/2014  12:06:00       -8.394      190.322       -7.666       74.613      106.857       59.350     5567.101    11418.447     3522.406        2.843        1.025      190.507       65.271        0.117      350.011       30.858      862.168
07/17/2014  12:07:00       28.003      192.090      -13.689       83.820      104.358       58.435     7025.846    10890.511     3414.603        2.960        1.067      194.120       64.632        0.111      349.698       30.317      862.154
07/17/2014  12:08:00      -24.873      165.004      -12.275       66.339       95.818       43.787     4400.855     9181.100     1917.267        2.174        0.775      166.868       47.818        0.082      349.784       30.464      862.163
07/17/2014  12:09:00      -18.384      270.613      -28.313       80.742       91.168       47.572     6519.259     8311.586     2263.091        4.573        0.855      271.237       36.734        0.018      349.631       30.198      862.146
07/17/2014  12:10:00       -1.173      170.780      -22.566       80.981       76.850       37.721     6557.913     5905.953     1422.906        2.178        0.694      170.784       29.381        0.030      349.499       29.970      862.137
07/17/2014  12:11:00      -53.310      147.840      -10.876       78.296       67.798       35.330     6130.304     4596.543     1248.223        1.839        0.599      157.158       33.823        0.046      349.532       30.028      862.130
07/17/2014  12:12:00      -56.667      114.455       -7.946       54.943       50.808       39.045     3018.695     2581.434     1524.513        1.175        0.356      127.715       33.068        0.067      349.787       30.473      862.117
07/17/2014  12:13:00     -153.342      269.043      -35.420       58.443       87.517       53.048     3415.565     7659.305     2814.058        5.552        0.694      309.674       47.533        0.024      349.523       30.007      862.134
07/17/2014  12:14:00      -61.957      165.619      -18.470       60.467       99.491       43.933     3656.289     9898.457     1930.086        2.354        0.774      176.829       51.005        0.083      349.438       29.864      862.130
07/17/2014  12:15:00      -21.767      234.399      -16.095       54.577       57.087       34.175     2978.671     3258.973     1167.926        3.154        0.370      235.407       26.593        0.013      349.517       29.999      862.107
07/17/2014  12:16:00     -117.330      123.815       -5.938       79.680      124.072       53.719     6348.829    15393.957     2885.724        2.688        1.231      170.577       42.801        0.063      349.817       30.522      862.093
07/17/2014  12:17:00      -83.178       37.432       24.898      104.617       86.928       46.518    10944.701     7556.490     2163.958        1.480        1.033       91.213       46.691        0.262      350.020       30.874      862.085
07/17/2014  12:18:00     -203.725      -55.513       -2.746      152.678      103.973       67.481    23310.517    10810.339     4553.624        4.163        1.934      211.153       73.541        0.121      349.820       30.527      862.095
07/17/2014  12:19:00     -311.784     -120.686        1.112      158.053      118.722       68.325    24980.848    14094.877     4668.281        7.775        2.187      334.327       70.235        0.044      349.700       30.317      862.056
07/17/2014  12:20:00     -142.799        3.824       -6.124       72.518       89.392       37.907     5258.908     7990.932     1436.932        1.756        0.734      142.850       28.150        0.039      349.752       30.409      862.076
07/17/2014  12:21:00     -131.518      158.820      -19.953       63.832       87.416       49.855     4074.511     7641.514     2485.471        2.856        0.710      206.206       36.231        0.031      349.896       30.658      862.094
07/17/2014  12:22:00     -187.536      197.374      -44.439       91.148       95.934       56.965     8308.027     9203.376     3245.053        4.842        1.038      272.261       52.436        0.037      349.360       29.726      862.115
07/17/2014  12:23:00      -64.039      159.834      -17.338       75.841       68.055       54.571     5751.875     4631.539     2978.035        2.165        0.668      172.186       47.905        0.077      349.713       30.341      862.097
07/17/2014  12:24:00     -151.356      189.641      -24.592       92.006      100.299       52.947     8465.132    10059.856     2803.435        4.040        1.066      242.636       49.882        0.042      349.821       30.527      862.094
07/17/2014  12:25:00      -94.823       14.358       -6.245       64.371       92.900       46.197     4143.567     8630.466     2134.182        1.207        0.745       95.904       38.362        0.160      349.842       30.567      862.072
07/17/2014  12:26:00     -186.488      -11.201      -22.590       85.266       73.059       53.337     7270.343     5337.642     2844.827        2.543        0.773      186.825       48.626        0.068      349.789       30.471      862.036
07/17/2014  12:27:00     -179.626      -24.776      -22.613       96.791       77.271       40.255     9368.520     5970.844     1620.498        2.517        0.848      181.327       22.787        0.016      349.684       30.290      862.021
07/17/2014  12:28:00      -99.670      -22.313        3.700      102.222       62.579       49.863    10449.394     3916.115     2486.350        1.365        0.843      102.137       46.065        0.203      349.974       30.795      862.004
07/17/2014  12:29:00      -65.244       78.758        2.382       55.578       82.406       44.905     3088.886     6790.762     2016.475        1.118        0.595      102.273       38.623        0.143      350.088       30.995      862.017
07/17/2014  12:30:00      -93.446       21.402        0.730       91.308       84.543       56.931     8337.105     7147.531     3241.100        1.395        0.936       95.865       47.326        0.244      350.383       31.505      861.974
07/17/2014  12:31:00      -79.986      278.314      -29.035       99.976      118.487       54.689     9995.224    14039.091     2990.837        5.586        1.351      289.579       60.588        0.044      349.920       30.700      861.998
07/17/2014  12:32:00       29.254      346.162      -40.770       73.709      123.503       63.220     5433.031    15252.925     3996.748        7.351        1.234      347.396       70.419        0.041      349.821       30.528      861.993
07/17/2014  12:33:00       35.165      122.656       20.616       60.789      108.078       61.073     3695.302    11680.847     3729.884        1.790        0.955      127.597       67.957        0.284      350.148       31.098      861.978
07/17/2014  12:34:00      -44.617      160.495        1.309       73.487      107.446       49.620     5400.371    11544.581     2462.124        2.358        0.970      166.581       51.625        0.096      350.326       31.407      861.947
07/17/2014  12:35:00      -34.979      293.464      -25.771       64.596      109.131       53.086     4172.660    11909.469     2818.109        5.345        0.945      295.541       53.295        0.033      349.902       30.667      861.969
07/17/2014  12:36:00       -7.659      177.412       -1.457       58.687      106.444       50.913     3444.125    11330.248     2592.116        2.445        0.868      177.577       57.698        0.106      350.138       31.079      861.956
07/17/2014  12:37:00      -51.881      145.789      -19.184       49.073       75.922       40.567     2408.141     5764.163     1645.712        1.706        0.491      154.745       29.330        0.036      349.799       30.491      861.933
07/17/2014  12:38:00       37.669      100.787       -0.155       54.788       64.825       43.467     3001.686     4202.267     1889.338        1.033        0.455      107.596       45.205        0.177      349.952       30.757      861.897
07/17/2014  12:39:00      -34.462      315.039      -36.893       55.254       54.384       38.710     3052.995     2957.589     1498.491        5.465        0.375      316.919       31.113        0.010      349.776       30.447      861.911
07/17/2014  12:40:00      -72.735      207.829      -43.550       74.814      128.522       38.830     5597.193    16517.839     1507.805        3.700        1.181      220.189       44.529        0.041      349.871       30.615      861.903
07/17/2014  12:41:00      -32.972       47.411        6.656       82.818       28.860       31.625     6858.797      832.876     1000.165        0.603        0.435       57.749       19.815        0.118      350.183       31.160      861.816
07/17/2014  12:42:00      -93.565      194.137      -10.590      105.640      133.981       57.840    11159.864    17950.813     3345.428        3.950        1.623      215.508       77.862        0.131      350.194       31.177      861.828
07/17/2014  12:43:00     -103.991      242.181      -33.128       98.522       89.251       50.375     9706.670     7965.728     2537.600        4.538        1.010      263.564       50.743        0.037      349.979       30.802      861.842
07/17/2014  12:44:00      -60.402      215.697      -30.958       91.098       93.312       45.429     8298.904     8707.086     2063.803        3.510        0.953      223.994       38.015        0.029      349.849       30.578      861.834
07/17/2014  12:45:00      -64.788       48.624        7.657       38.229       71.242       27.298     1461.457     5075.465      745.170        0.695        0.364       81.005       36.612        0.204      349.940       30.738      861.801
07/17/2014  12:46:00      -42.894       29.634        5.786       33.549       66.572       34.512     1125.526     4431.793     1191.068        0.475        0.337       52.135       38.900        0.557      350.123       31.054      861.773
07/17/2014  12:47:00       77.542       47.178       16.005       53.280       32.877       32.474     2838.751     1080.909     1054.571        0.673        0.249       90.766       26.075        0.083      350.210       31.207      861.750
07/17/2014  12:48:00       15.722      112.585       -2.765       50.011      117.903       41.124     2501.137    13901.087     1691.191        1.551        0.905      113.678       58.011        0.260      350.542       31.783      861.759
07/17/2014  12:49:00       73.156      274.430      -24.812      105.159      180.558       74.157    11058.415    32601.167     5499.270        6.521        2.458      284.013       84.668        0.089      350.145       31.091      861.739
07/17/2014  12:50:00       64.635      140.101       -0.144       83.474       92.002       46.911     6967.863     8464.366     2200.657        2.072        0.882      154.292       47.572        0.095      350.191       31.171      861.730
07/17/2014  12:51:00      223.247      151.923       43.794      157.483      106.598       84.942    24800.765    11363.061     7215.152        5.910        2.169      270.036       79.435        0.087      350.297       31.355      861.690
07/17/2014  12:52:00      154.658      153.891      148.361      168.496      104.203      112.418    28391.058    10858.210    12637.694        6.074        2.594      218.178      102.447        0.220      350.206       31.196      861.646
07/17/2014  12:53:00       69.726      120.629      110.602       82.028       82.382       63.295     6728.512     6786.851     4006.261        2.458        0.876      139.331       41.910        0.090      350.387       31.512      861.652
07/17/2014  12:54:00       49.233       43.315       31.699       70.806       73.650       56.341     5013.507     5424.304     3174.288        0.946        0.681       65.575       47.117        0.516      350.536       31.773      861.663
07/17/2014  12:55:00       55.514     -157.781       -7.860       44.549       63.690       35.194     1984.650     4056.470     1238.631        1.766        0.364      167.262       19.253        0.013      349.829       30.543      861.651
07/17/2014  12:56:00       82.080      -59.761       58.378       95.792      170.912      102.158     9176.049    29210.840    10436.291        3.126        2.441      101.531      106.744        1.105      350.070       30.962      861.589
07/17/2014  12:57:00      295.782      183.097       57.460       82.478       88.716       74.873     6802.592     7870.571     5605.990        7.229        1.014      347.868       33.874        0.009      349.942       30.736      861.596
07/17/2014  12:58:00      210.285      107.913       72.847      167.668       91.907       78.533    28112.421     8446.954     6167.446        5.194        2.136      236.358       75.273        0.101      350.206       31.197      861.574
07/17/2014  12:59:00      184.775       98.465       72.856      113.705       75.435       74.199    12928.837     5690.397     5505.515        3.663        1.206      209.373       58.147        0.077      350.313       31.382      861.552
07/17/2014  13:00:00      189.025       77.766       38.021      110.530       90.062       68.030    12216.905     8111.205     4628.013        3.409        1.248      204.397       26.526        0.017      350.643       31.957      861.539
07/17/2014  13:01:00      261.971      188.048       31.614      142.672       98.292       80.316    20355.436     9661.397     6450.733        7.072        1.823      322.476       59.126        0.034      350.073       30.966      861.558
07/17/2014  13:02:00      181.602      186.021       12.252      163.153      114.686       83.129    26618.989    13152.990     6910.357        5.720        2.334      259.967       60.622        0.054      350.085       30.985      861.536
07/17/2014  13:03:00      146.107       86.894       21.938      122.591       76.446       50.682    15028.644     5843.998     2568.656        2.641        1.172      169.993       37.214        0.048      350.226       31.233      861.546
07/17/2014  13:04:00       66.392       36.651       31.307       85.158       62.729       47.102     7251.852     3934.970     2218.567        1.007        0.670       75.837       32.270        0.181      350.705       32.066      861.539
07/17/2014  13:05:00       46.954       59.772       62.300       66.467       90.422       71.483     4417.874     8176.104     5109.804        1.368        0.885       76.009       61.722        0.659      350.270       31.309      861.508
07/17/2014  13:06:00       63.093       70.846       26.590      101.831       60.153       55.362    10369.643     3618.360     3064.903        1.338        0.853       94.867       22.417        0.056      350.769       32.179      861.529
07/17/2014  13:07:00      131.373      116.007       16.775       80.652       48.616       57.621     6504.736     2363.491     3320.152        2.159        0.609      175.261       26.244        0.022      350.581       31.849      861.508
07/17/2014  13:08:00       91.264      147.153       85.429      113.214      115.726      128.277    12817.370    13392.508    16454.943        3.996        2.133      173.157       73.593        0.181      350.470       31.655      861.494
07/17/2014  13:09:00      231.707      189.465      120.442      178.611      134.232      136.493    31901.745    18018.197    18630.405        8.631        3.428      299.308       62.212        0.043      350.251       31.274      861.402
07/17/2014  13:10:00      216.755      180.451       16.674      140.433      143.529      102.165    19721.361    20600.502    10437.693        6.528        2.538      282.037       80.439        0.081      350.589       31.863      861.452
07/17/2014  13:11:00      129.702      244.629      -11.892       93.545      125.540       85.878     8750.581    15760.384     7374.946        5.434        1.594      276.887       77.697        0.079      350.099       31.009      861.502
07/17/2014  13:12:00      124.582      127.401       11.074       63.076       48.386       50.604     3978.639     2341.250     2560.767        2.038        0.444      178.190       37.416        0.044      350.209       31.203      861.452
07/17/2014  13:13:00      128.484       81.379       26.173       88.308       59.421       42.579     7798.258     3530.827     1813.001        1.848        0.657      152.088       29.510        0.038      350.757       32.156      861.445
07/17/2014  13:14:00      210.537      122.278       45.912      136.153       86.824       79.653    18537.773     7538.328     6344.563        4.690        1.621      243.471       70.475        0.084      350.606       31.893      861.451
07/17/2014  13:15:00      215.477      100.351       92.505      142.509      115.034       91.847    20308.933    13232.814     8435.888        5.351        2.099      237.699       85.325        0.129      350.281       31.327      861.396
07/17/2014  13:16:00      132.623      105.847       73.942       75.991       58.223       60.528     5774.599     3389.932     3663.619        2.354        0.641      169.683       38.346        0.051      350.654       31.976      861.383
07/17/2014  13:17:00      345.125      176.299       76.865      176.916      117.823       85.830    31299.343    13882.265     7366.718       10.431        2.627      387.547       64.238        0.027      350.474       31.663      861.353
07/17/2014  13:18:00      247.386      145.660       38.609      151.454      103.676       82.620    22938.209    10748.726     6826.073        6.220        2.026      287.083       42.597        0.022      350.419       31.566      861.352
07/17/2014  13:19:00      318.130      206.305       35.410      206.508      155.903       93.681    42645.416    24305.850     8776.159       11.036        3.786      379.168       52.706        0.019      350.281       31.327      861.315
07/17/2014  13:20:00      440.760      262.295       55.438      148.239      118.612      107.099    21974.776    14068.768    11470.291       15.682        2.376      512.902       54.645        0.011      350.314       31.384      861.293
07/17/2014  13:21:00      410.748      226.589       24.717      161.362      155.382       96.117    26037.565    24143.590     9238.453       14.003        2.971      469.102       58.950        0.016      350.282       31.329      861.266
07/17/2014  13:22:00      365.810      247.858       38.034      155.383      118.577      100.059    24144.009    14060.443    10011.881       12.245        2.411      441.872       62.915        0.020      350.240       31.254      861.261
07/17/2014  13:23:00      184.593      175.249       37.127      137.242      112.876       91.839    18835.489    12741.061     8434.376        5.308        2.001      254.532       65.981        0.067      350.467       31.651      861.257
07/17/2014  13:24:00      199.317      155.021       22.117      121.121       87.558       78.538    14670.184     7666.370     6168.289        4.637        1.425      252.505       51.063        0.041      350.499       31.706      861.274
07/17/2014  13:25:00      149.086      108.411       31.587      122.353       88.936       68.395    14970.255     7909.580     4677.910        3.126        1.378      184.335       28.988        0.025      350.750       32.143      861.258
07/17/2014  13:26:00      231.270      133.421       67.805      120.819      100.034       58.056    14597.140    10006.758     3370.475        5.192        1.399      266.996       39.222        0.022      350.515       31.734      861.237
07/17/2014  13:27:00      282.836      169.319       31.130      122.659      107.772       71.706    15045.137    11614.839     5141.784        7.071        1.590      329.644       64.213        0.038      350.648       31.966      861.232
07/17/2014  13:28:00      159.492      119.581       22.582      119.898       86.992       77.774    14375.492     7567.590     6048.743        3.411        1.400      199.342       60.857        0.093      350.493       31.697      861.233
07/17/2014  13:29:00      187.972      159.817       27.467      124.746       88.864       80.848    15561.488     7896.744     6536.442        4.581        1.500      246.729       44.166        0.032      350.474       31.661      861.228
07/17/2014  13:30:00      147.162      139.649       14.846      127.482      114.324       76.138    16251.564    13070.091     5796.981        3.824        1.756      202.875       68.904        0.115      350.520       31.742      861.195
07/17/2014  13:31:00      223.327      138.747       47.909      121.263       81.863       72.219    14704.808     6701.516     5215.534        4.902        1.331      262.917       40.637        0.024      350.493       31.695      861.183
07/17/2014  13:32:00      134.323      276.174       10.237      190.010      134.983       93.858    36103.976    18220.480     8809.250        7.876        3.157      307.107       96.744        0.099      350.310       31.378      861.173
07/17/2014  13:33:00       71.645      116.364       56.687      148.913      137.673       70.382    22175.007    18953.870     4953.618        3.398        2.304      136.651       68.887        0.254      350.832       32.286      861.134
07/17/2014  13:34:00      236.320      172.904        5.954      121.243       86.508       71.555    14699.820     7483.572     5120.157        5.654        1.365      292.819       37.266        0.016      350.582       31.851      861.156
07/17/2014  13:35:00      201.004      142.800       28.315       93.770       72.649       66.177     8792.846     5277.930     4379.460        4.002        0.923      246.565       38.735        0.025      350.360       31.464      861.163
07/17/2014  13:36:00      201.283      116.780       36.944      108.090       80.337       62.658    11683.413     6453.979     3926.055        3.879        1.103      232.706       14.848        0.004      350.791       32.213      861.145
07/17/2014  13:37:00      226.693      129.431       25.451      111.253       88.927       67.738    12377.144     7908.044     4588.378        4.683        1.244      261.041       46.339        0.032      350.462       31.643      861.144
07/17/2014  13:38:00      117.395       80.807       29.312       72.214       63.366       52.733     5214.867     4015.282     2780.739        1.659        0.601      142.517       34.527        0.059      350.629       31.935      861.128
07/17/2014  13:39:00       53.812       91.249       35.689       56.675       69.266       48.568     3212.030     4797.733     2358.895        1.143        0.518      105.934       29.853        0.079      350.780       32.197      861.113
07/17/2014  13:40:00      100.727      103.780       -8.364       77.481       82.129       55.448     6003.317     6745.229     3074.471        1.840        0.791      144.625       35.172        0.059      350.631       31.937      861.100
07/17/2014  13:41:00      279.873      211.614       24.387      175.203      101.170      108.162    30696.262    10235.463    11699.003        8.816        2.632      350.870       76.403        0.047      350.440       31.603      861.084
07/17/2014  13:42:00      128.871       82.433       27.943       85.770       53.427       50.626     7356.449     2854.458     2563.039        1.848        0.639      152.980       24.844        0.026      350.338       31.428      861.101
07/17/2014  13:43:00      111.839      125.463       21.620       98.440       97.398       74.503     9690.486     9486.379     5550.691        2.672        1.236      168.074       60.347        0.129      350.428       31.584      861.070
07/17/2014  13:44:00      214.842      138.879       33.043      134.765       81.849       63.472    18161.729     6699.277     4028.684        4.771        1.444      255.821       47.564        0.035      350.477       31.666      861.052
07/17/2014  13:45:00       54.383       19.352       28.818       54.807       46.383       34.397     3003.769     2151.381     1183.167        0.525        0.317       57.723       29.964        0.269      350.933       32.465      861.041
07/17/2014  13:46:00       66.685      112.635       -7.869       73.429      120.786       46.425     5391.843    14589.346     2155.318        1.966        1.107      130.895       62.877        0.231      350.923       32.446      861.024
07/17/2014  13:47:00      132.393      167.015       17.928      138.033      127.448       74.922    19053.069    16242.998     5613.375        4.332        2.045      213.124       66.560        0.098      350.692       32.042      861.017
07/17/2014  13:48:00       92.634      119.786        3.183      115.432       75.177       70.076    13324.457     5651.647     4910.698        2.341        1.194      151.425       40.108        0.070      350.770       32.180      861.008
07/17/2014  13:49:00      196.658      120.345       24.294      143.033       81.652       79.451    20458.483     6667.091     6312.384        4.359        1.672      230.559       46.597        0.041      350.721       32.092      860.971
07/17/2014  13:50:00      136.245      161.058       27.498      120.798       96.541       77.327    14592.148     9320.243     5979.490        3.757        1.495      210.956       60.817        0.083      350.947       32.486      860.969
07/17/2014  13:51:00      120.141      106.264       20.873       96.187       70.008       60.755     9251.937     4901.067     3691.159        2.200        0.892      160.393       46.155        0.083      350.909       32.420      860.947
07/17/2014  13:52:00       66.295      114.269        0.532      116.244      104.405       53.269    13512.698    10900.305     2837.556        2.235        1.363      132.107       55.860        0.179      350.859       32.332      860.932
07/17/2014  13:53:00      166.635      125.958       25.795      164.819      114.602       76.231    27165.369    13133.691     5811.182        4.519        2.306      208.885       37.299        0.032      350.852       32.323      860.943
07/17/2014  13:54:00      305.782      181.656       24.628      119.193      101.005       76.087    14206.926    10202.008     5789.254        7.865        1.510      355.671       32.593        0.008      350.492       31.692      860.936
07/17/2014  13:55:00      163.145      124.511       48.386      154.624       94.984       69.831    23908.651     9022.032     4876.348        4.113        1.890      205.230       57.269        0.078      350.600       31.882      860.920
07/17/2014  13:56:00      262.267      228.791       19.676      168.434      121.987      101.321    28370.127    14880.901    10265.905        8.751        2.676      348.036       73.708        0.045      350.413       31.556      860.903
07/17/2014  13:57:00      201.551      186.386       36.506      120.006      120.638       94.591    14401.409    14553.471     8947.453        5.729        1.895      274.523       63.938        0.054      350.369       31.478      860.898
07/17/2014  13:58:00      215.791      166.798       27.695      102.853       69.783       51.647    10578.827     4869.716     2667.461        4.663        0.906      272.740       18.661        0.005      350.392       31.520      860.888
07/17/2014  13:59:00      144.373      173.407       27.307      128.763      112.018       87.967    16579.975    12547.966     7738.177        4.426        1.843      225.641       74.675        0.110      350.768       32.175      860.912
07/17/2014  14:00:00      115.103      275.629      -19.718      117.880      144.731       89.016    13895.703    20947.129     7923.832        6.618        2.138      298.698       89.807        0.090      350.587       31.858      860.924
07/17/2014  14:01:00        7.579      366.123      -43.009       87.134       90.800       56.947     7592.419     8244.714     3242.915        7.751        0.954      366.201       54.375        0.022      350.366       31.474      860.914
07/17/2014  14:02:00       58.888      116.052       -6.239       64.777       92.064       50.614     4196.061     8475.825     2561.767        1.610        0.762      130.138       49.754        0.146      350.611       31.904      860.890
07/17/2014  14:03:00      293.949      205.942       42.572      184.747      161.353       94.724    34131.524    26034.726     8972.634        9.987        3.457      358.912       57.131        0.025      350.610       31.902      860.900
07/17/2014  14:04:00      327.325      172.895       30.368      195.336      133.338      104.999    38156.175    17778.964    11024.685       10.244        3.348      370.182       55.834        0.023      350.479       31.670      860.862
07/17/2014  14:05:00      256.628       96.691       53.643      136.527      105.333       97.695    18639.540    11095.064     9544.312        5.867        1.964      274.239       80.319        0.086      350.509       31.724      860.846
07/17/2014  14:06:00      177.471      129.322       51.392       80.512       76.915       84.760     6482.198     5915.907     7184.217        3.522        0.979      219.591       31.931        0.021      350.520       31.742      860.832
07/17/2014  14:07:00      134.063       85.019       41.498       77.178       55.809       52.029     5956.479     3114.680     2707.033        1.935        0.589      158.748       25.693        0.026      350.680       32.023      860.805
07/17/2014  14:08:00      226.892      165.445       20.851      120.582       85.234       58.900    14540.132     7264.902     3469.202        5.228        1.264      280.806       43.872        0.024      350.682       32.023      860.807
07/17/2014  14:09:00      276.594      181.202       47.386      164.739      105.876       85.877    27138.991    11209.720     7374.931        7.864        2.286      330.664       47.899        0.021      350.793       32.218      860.763
07/17/2014  14:10:00      244.890      144.020       26.648      175.337      125.675       79.604    30743.119    15794.142     6336.818        6.714        2.644      284.100       47.777        0.028      350.768       32.175      860.763
07/17/2014  14:11:00      243.789      145.709       62.165      145.614      108.426       79.905    21203.439    11756.144     6384.753        6.193        1.967      284.014       42.417        0.022      350.932       32.459      860.761
07/17/2014  14:12:00      219.688      137.946       33.406      120.032       94.988       76.807    14407.743     9022.663     5899.354        4.886        1.466      259.407       56.287        0.047      351.063       32.687      860.770
07/17/2014  14:13:00      148.539       93.701       37.147      120.423       96.088       79.069    14501.718     9232.875     6251.876        3.110        1.499      175.624       54.752        0.097      351.262       33.036      860.740
07/17/2014  14:14:00      200.875      100.114       56.269      105.242      123.905       78.000    11075.849    15352.442     6083.963        4.302        1.626      224.441       57.372        0.065      351.005       32.588      860.735
07/17/2014  14:15:00      222.151      116.529       44.977       89.847       77.900       67.035     8072.511     6068.376     4493.699        4.179        0.932      250.858       43.824        0.031      350.972       32.527      860.728
07/17/2014  14:16:00       31.606      139.236      108.494       78.686      109.030      102.142     6191.555    11887.627    10432.981        3.033        1.426      142.778       57.501        0.162      351.226       32.973      860.687
07/17/2014  14:17:00      217.320      206.902       35.935      242.702      154.202       99.017    58904.365    23778.175     9804.405        9.189        4.624      300.061       66.554        0.049      351.259       33.030      860.718
07/17/2014  14:18:00      382.254      177.744       52.921      216.343      155.121      111.582    46804.200    24062.388    12450.604       13.190        4.166      421.558      108.166        0.066      350.984       32.550      860.722
07/17/2014  14:19:00      330.816      174.316       47.637      191.124      130.282       88.481    36528.248    16973.481     7828.907       10.170        3.067      373.932       30.312        0.007      351.097       32.746      860.768
07/17/2014  14:20:00      282.149      180.583       39.958      131.001      121.865       83.293    17161.308    14851.190     6937.732        7.637        1.948      334.990       71.946        0.046      350.769       32.175      860.804
07/17/2014  14:21:00      181.591      140.685        8.644      149.469       88.508       66.161    22341.027     7833.641     4377.330        4.369        1.728      229.712       41.916        0.033      351.015       32.603      860.809
07/17/2014  14:22:00       80.867      157.206       -5.406       76.353       77.198       47.851     5829.825     5959.503     2289.707        2.268        0.704      176.786       45.489        0.066      350.659       31.984      860.786
07/17/2014  14:23:00      201.483       91.595       51.962      129.114       87.510       74.370    16670.474     7658.038     5530.961        4.077        1.493      221.326       57.116        0.067      350.634       31.942      860.756
07/17/2014  14:24:00      116.296       81.080       16.313      108.743       90.329       51.115    11825.139     8159.355     2612.747        2.148        1.130      141.770       23.851        0.028      350.582       31.851      860.733
07/17/2014  14:25:00      103.182       84.083       11.537      105.037       80.358       54.728    11032.812     6457.451     2995.135        1.916        1.024      133.104       44.932        0.114      350.743       32.132      860.691
07/17/2014  14:26:00      181.918      133.801       46.998      104.756       71.265       65.079    10973.872     5078.707     4235.243        3.674        1.014      225.825       32.893        0.021      350.833       32.288      860.674
07/17/2014  14:27:00       61.915       54.637       46.413       49.531       52.400       35.087     2453.363     2745.750     1231.067        0.770        0.322       82.576       11.526        0.019      350.923       32.445      860.683
07/17/2014  14:28:00      126.493       65.684       42.157       81.230       50.542       45.941     6598.321     2554.463     2110.592        1.668        0.563      142.530       35.088        0.061      350.679       32.021      860.698
07/17/2014  14:29:00      126.573      113.742       18.394      120.031       95.740       63.669    14407.493     9166.195     4053.799        2.846        1.381      170.171       42.896        0.064      350.933       32.463      860.702
07/17/2014  14:30:00       66.739      227.566      -10.076       91.799      119.611       61.602     8426.966    14306.759     3794.827        4.143        1.326      237.150       66.200        0.078      350.923       32.444      860.705
07/17/2014  14:31:00       83.987       89.975        4.262       97.076       57.979       44.646     9423.739     3361.507     1993.231        1.497        0.739      123.082       23.367        0.036      350.976       32.537      860.688
07/17/2014  14:32:00      244.378      148.987       37.546       93.348       75.362       80.622     8713.812     5679.431     6499.911        5.211        1.045      286.213       54.582        0.036      350.798       32.225      860.662
07/17/2014  14:33:00      309.727      182.373       31.625      111.179       83.515       65.517    12360.879     6974.732     4292.527        7.690        1.181      359.432       43.529        0.015      350.547       31.788      860.634
07/17/2014  14:34:00       90.641      157.871       12.042      101.705      100.184       83.754    10343.874    10036.780     7014.798        3.033        1.370      182.041       67.972        0.139      350.738       32.122      860.641
07/17/2014  14:35:00      -33.934      230.913      -13.133       84.456       70.540       46.021     7132.867     4975.923     2117.891        3.443        0.711      233.393       32.828        0.020      350.623       31.920      860.622
07/17/2014  14:36:00       19.297      221.495      -22.918       55.030       77.342       41.435     3028.285     5981.822     1716.823        3.034        0.536      222.334       47.012        0.045      350.741       32.127      860.609
07/17/2014  14:37:00      161.766      118.698       33.930      112.433       84.950       48.819    12641.084     7216.548     2383.298        3.182        1.112      200.643       20.443        0.010      350.796       32.222      860.594
07/17/2014  14:38:00      210.904      147.998       30.107      111.724       72.555       79.075    12482.218     5264.212     6252.866        4.564        1.200      257.651       45.095        0.031      350.737       32.119      860.581
07/17/2014  14:39:00       98.194      115.466       31.102      104.800       80.660       75.851    10982.939     6506.088     5753.394        2.359        1.162      151.574       48.042        0.100      350.824       32.274      860.580
07/17/2014  14:40:00       66.526       89.240       15.158       71.416       69.135       48.906     5100.203     4779.695     2391.810        1.244        0.614      111.308       45.786        0.169      350.999       32.579      860.573
07/17/2014  14:41:00      100.160      242.547      -20.848       91.409      107.955       59.839     8355.527    11654.183     3580.714        4.644        1.180      262.414       63.981        0.059      350.738       32.121      860.564
07/17/2014  14:42:00       21.139      169.193       -9.380       56.773      109.671       57.293     3223.226    12027.762     3282.471        2.384        0.927      170.508       57.895        0.115      350.860       32.334      860.546
07/17/2014  14:43:00       60.000       92.959       -1.230       60.510       59.998       46.525     3661.462     3599.769     2164.544        1.083        0.471      110.641       33.373        0.091      350.889       32.388      860.531
07/17/2014  14:44:00       38.029      107.398       -0.690       70.437       60.382       31.060     4961.429     3646.012      964.712        1.127        0.479      113.932       24.542        0.046      350.882       32.376      860.532
07/17/2014  14:45:00       61.428      162.522       -2.964      106.080       84.029       70.779    11253.020     7060.803     5009.601        2.675        1.166      173.743       60.094        0.120      350.932       32.460      860.525
07/17/2014  14:46:00      102.189      217.830       -3.551      113.588      118.020       92.709    12902.280    13928.760     8594.998        4.666        1.771      240.608       78.020        0.105      350.805       32.237      860.489
07/17/2014  14:47:00      128.046      144.166       -2.248       92.942       94.459       49.984     8638.204     8922.589     2498.357        2.862        1.003      192.820       49.368        0.066      350.764       32.166      860.472
07/17/2014  14:48:00       43.548      114.417        0.935       62.773      112.164       34.604     3940.502    12580.677     1197.418        1.635        0.886      122.424       51.389        0.176      350.873       32.358      860.449
07/17/2014  14:49:00      -80.339      185.697      -36.044       68.376       59.108       35.963     4675.278     3493.783     1293.360        2.585        0.473      202.331       25.453        0.016      350.815       32.256      860.439
07/17/2014  14:50:00     -127.684      121.097      -33.309       49.405       42.993       30.214     2440.866     1848.417      912.901        1.864        0.260      175.976       28.132        0.026      350.644       31.961      860.449
07/17/2014  14:51:00      -29.719      111.180      -13.461       26.548       65.134       28.655      704.770     4242.389      821.119        0.960        0.288      115.083       31.272        0.074      350.707       32.072      860.436
07/17/2014  14:52:00        1.580      201.815      -20.334       40.178       59.275       30.475     1614.244     3513.572      928.755        2.360        0.303      201.821       22.920        0.013      350.776       32.187      860.437
07/17/2014  14:53:00        9.675      130.959      -10.251       49.532       64.800       29.461     2453.468     4199.066      867.967        1.243        0.376      131.316       31.244        0.057      350.841       32.304      860.435
07/17/2014  14:54:00       19.514       79.419       16.045       45.380       52.587       36.415     2059.347     2765.358     1326.046        0.655        0.308       81.781       38.232        0.219      350.864       32.344      860.435
07/17/2014  14:55:00       28.172      112.573        2.561       52.344       75.306       40.001     2739.924     5671.007     1600.093        1.174        0.501      116.044       44.602        0.148      350.881       32.371      860.442
07/17/2014  14:56:00       69.621      243.016      -35.259       56.407      135.863       60.351     3181.712    18458.842     3642.236        4.521        1.264      252.792       64.888        0.066      350.620       31.915      860.446
07/17/2014  14:57:00      134.155      100.243       -0.232       77.087       57.652       38.197     5942.479     3323.752     1459.033        1.938        0.536      167.470       29.794        0.032      350.653       31.975      860.441
07/17/2014  14:58:00       97.589       91.684       20.552       59.476       57.863       47.283     3537.393     3348.161     2235.683        1.373        0.456      133.901       37.237        0.077      350.710       32.074      860.440
07/17/2014  14:59:00      113.217       70.404       10.556       58.175       43.446       38.487     3384.334     1887.530     1481.247        1.232        0.338      133.323       23.047        0.030      350.764       32.169      860.431
07/17/2014  15:00:00       64.949       55.368       14.183       48.025       44.742       35.128     2306.414     2001.806     1233.951        0.651        0.277       85.347       30.469        0.127      350.755       32.153      860.428
07/17/2014  15:01:00       19.877       46.256        3.820       36.311       20.156       24.691     1318.461      406.273      609.663        0.244        0.117       50.346       21.193        0.177      350.712       32.078      860.415
07/17/2014  15:02:00       49.295       40.119       38.470       26.769       26.596       22.745      716.564      707.323      517.346        0.373        0.097       63.557       11.841        0.035      350.332       31.417      860.393
07/17/2014  15:03:00       22.246       10.488        3.137       26.276       48.457       22.157      690.452     2348.120      490.954        0.207        0.176       24.594       12.632        0.264      350.390       31.520      860.355
07/17/2014  15:04:00        7.914       46.845       21.035       43.662       56.804       26.839     1906.356     3226.653      720.340        0.428        0.293       47.509       16.722        0.124      350.533       31.767      860.342
07/17/2014  15:05:00       43.431       83.096        5.915       59.146       66.655       41.968     3498.281     4442.902     1761.291        0.926        0.485       93.762       32.755        0.122      350.855       32.329      860.331
07/17/2014  15:06:00      -19.232      128.729       -5.769       59.479       72.875       40.923     3537.733     5310.809     1674.677        1.375        0.526      130.157       37.922        0.085      350.839       32.300      860.324
07/17/2014  15:07:00      108.930       84.194       24.366      106.338       89.810       51.568    11307.743     8065.854     2659.211        2.079        1.102      137.675       40.778        0.088      350.850       32.317      860.306
07/17/2014  15:08:00      199.041      213.948       10.599      139.448      124.479       96.728    19445.746    15494.972     9356.211        6.489        2.215      292.217       86.286        0.087      350.727       32.102      860.284
07/17/2014  15:09:00      147.749      170.608       16.407      124.532       99.935       71.153    15508.304     9986.998     5062.707        4.088        1.528      225.692       50.193        0.049      350.718       32.085      860.279
07/17/2014  15:10:00      216.223      137.252       43.050      104.301       59.543       62.711    10878.784     3545.387     3932.660        4.290        0.918      256.107       58.305        0.052      350.636       31.944      860.249
07/17/2014  15:11:00      316.136      191.246       42.605      130.518      101.727       77.834    17035.003    10348.338     6058.102        8.588        1.672      369.482       33.094        0.008      350.600       31.879      860.245
07/17/2014  15:12:00      115.576      128.082       -3.935      123.907       78.621       67.307    15352.865     6181.338     4530.295        2.792        1.303      172.518       50.425        0.085      350.681       32.022      860.247
07/17/2014  15:13:00       89.699       67.473       14.348       62.749       68.403       46.737     3937.462     4678.957     2184.368        1.180        0.540      112.243       34.310        0.093      350.736       32.120      860.227
07/17/2014  15:14:00      157.082       77.595       21.267       86.694       55.835       45.913     7515.917     3117.549     2107.982        2.194        0.637      175.201       41.011        0.055      350.696       32.049      860.208
07/17/2014  15:15:00      113.849       82.785       47.280       64.824       64.231       64.907     4202.140     4125.599     4212.896        1.729        0.627      140.766       39.807        0.080      350.540       31.779      860.188
07/17/2014  15:16:00       51.745       28.587       25.140       52.247       36.793       31.095     2729.758     1353.751      966.874        0.459        0.253       59.116       12.906        0.048      350.723       32.098      860.194
07/17/2014  15:17:00       87.840       51.359       -1.255       48.712       55.118       47.089     2372.827     3037.939     2217.359        0.899        0.381      101.753       24.567        0.058      350.411       31.556      860.176
07/17/2014  15:18:00       84.762       89.504        7.073       55.238       55.567       50.206     3051.205     3087.738     2520.667        1.195        0.433      123.270       42.669        0.120      350.645       31.963      860.146
07/17/2014  15:19:00       39.981       54.332        5.096       50.057       50.606       28.711     2505.691     2560.977      824.296        0.523        0.295       67.457       34.658        0.264      350.721       32.094      860.134
07/17/2014  15:20:00       39.994       42.129        7.407       45.682       38.071       28.705     2086.835     1449.431      823.992        0.389        0.218       58.089       18.973        0.107      350.690       32.042      860.123
07/17/2014  15:21:00       82.729       57.092       24.561       66.340       34.711       31.225     4400.950     1204.833      974.983        0.864        0.329      100.516       25.247        0.063      350.666       32.000      860.121
07/17/2014  15:22:00       31.879       80.674       -2.836       32.214       37.703       28.046     1037.744     1421.526      786.556        0.539        0.162       86.744       24.553        0.080      350.700       32.058      860.119
07/17/2014  15:23:00       37.448        2.916        9.979       31.477       19.028       18.411      990.817      362.048      338.980        0.160        0.085       37.561       18.311        0.238      350.433       31.596      860.113
07/17/2014  15:24:00       91.465       53.733       21.786       29.690       32.087       29.540      881.506     1029.544      872.597        0.726        0.139      106.081        6.160        0.003      350.442       31.609      860.111
07/17/2014  15:25:00      113.111       79.336       14.034       60.026       57.400       41.503     3603.127     3294.761     1722.540        1.395        0.431      138.160       24.929        0.033      350.663       31.993      860.095
07/17/2014  15:26:00      201.777      137.865       34.851       91.594       61.562       52.836     8389.487     3789.877     2791.673        3.795        0.749      244.378       18.220        0.006      350.642       31.954      860.079
07/17/2014  15:27:00      204.495      134.351       55.492       79.612       67.023       61.242     6338.148     4492.032     3750.616        3.876        0.729      244.680       46.088        0.035      350.697       32.049      860.071
07/17/2014  15:28:00      199.063       91.553       49.442      115.062       84.737       74.509    13239.317     7180.393     5551.539        3.821        1.299      219.107       45.736        0.044      350.704       32.063      860.074
07/17/2014  15:29:00      145.382      102.900       55.145       83.489       61.265       47.770     6970.449     3753.435     2282.006        2.388        0.650      178.113       29.694        0.028      350.525       31.753      860.071
07/17/2014  15:30:00      247.076      158.814       35.126      102.838       73.279       61.857    10575.581     5369.822     3826.338        5.363        0.989      293.715       38.044        0.017      350.802       32.234      860.088
07/17/2014  15:31:00      104.828       81.329       38.953       81.551       51.111       58.596     6650.509     2612.366     3433.543        1.591        0.635      132.677       34.286        0.067      350.676       32.015      860.101
07/17/2014  15:32:00      207.462      152.369       15.672       91.858       62.739       57.587     8437.891     3936.165     3316.215        4.109        0.785      257.403       32.965        0.016      350.700       32.055      860.122
07/17/2014  15:33:00      104.070      123.990        2.089       63.154       65.193       50.674     3988.379     4250.118     2567.828        1.851        0.540      161.877       42.246        0.068      350.712       32.078      860.154
07/17/2014  15:34:00      110.280      113.493       -0.575       88.877       79.145       47.110     7899.133     6263.992     2219.318        2.071        0.819      158.248       44.993        0.081      350.697       32.050      860.172
07/17/2014  15:35:00       49.936      181.177      -22.257       66.495       78.116       50.937     4421.650     6102.143     2594.580        2.446        0.656      187.933       41.293        0.048      350.711       32.073      860.196
07/17/2014  15:36:00       -6.881      164.936      -19.039       41.224       64.141       30.787     1699.386     4114.008      947.825        1.719        0.338      165.079       30.664        0.035      350.696       32.051      860.225
07/17/2014  15:37:00      126.229       48.135       36.785       81.534       60.351       42.389     6647.825     3642.229     1796.859        1.584        0.604      135.096       24.932        0.034      350.515       31.736      860.222
07/17/2014  15:38:00      132.878      111.789       14.617       94.785       61.354       44.553     8984.184     3764.268     1984.971        2.255        0.737      173.647       34.607        0.040      350.652       31.971      860.224
07/17/2014  15:39:00      160.167      121.575       21.590       96.494       53.258       46.832     9310.996     2836.439     2193.225        2.762        0.717      201.082       33.004        0.027      350.690       32.039      860.227
07/17/2014  15:40:00      132.689       88.391       16.900       61.473       49.583       44.204     3778.886     2458.489     1953.988        1.695        0.410      159.434       25.717        0.026      350.675       32.014      860.214
07/17/2014  15:41:00      146.751       76.768       23.361       74.146       48.717       52.126     5497.698     2373.341     2717.168        1.928        0.529      165.618       31.662        0.037      350.691       32.041      860.200
07/17/2014  15:42:00      144.563       74.739       18.917       79.933       59.267       50.235     6389.300     3512.567     2523.595        1.963        0.621      162.740       29.574        0.033      350.696       32.049      860.186
07/17/2014  15:43:00      126.422      106.247       14.494       71.813       64.658       43.690     5157.060     4180.649     1908.859        1.936        0.562      165.139       26.244        0.025      350.704       32.063      860.189
07/17/2014  15:44:00      139.285       51.617        7.753       82.900       58.405       44.685     6872.469     3411.097     1996.739        1.720        0.614      148.542       25.745        0.030      350.689       32.036      860.178
07/17/2014  15:45:00      109.313       86.111       17.749       82.783       73.422       50.877     6853.004     5390.799     2588.504        1.725        0.742      139.156       39.541        0.081      350.705       32.067      860.185
07/17/2014  15:46:00       20.169       98.651        5.215       37.641       65.521       30.515     1416.817     4293.037      931.186        0.840        0.332      100.691       36.245        0.130      350.687       32.036      860.186
07/17/2014  15:47:00       99.121       53.546        9.047       48.415       29.163       26.841     2343.994      850.456      720.434        0.834        0.196      112.659       25.284        0.050      350.573       31.837      860.180
07/17/2014  15:48:00       54.679       79.518        3.044       71.975       70.228       48.649     5180.465     4931.941     2366.756        1.090        0.624       96.503       44.109        0.209      350.697       32.053      860.181
07/17/2014  15:49:00      217.827      145.884       32.177       78.299       69.871       54.915     6130.765     4882.018     3015.688        4.189        0.701      262.166       23.752        0.008      350.669       32.001      860.180
07/17/2014  15:50:00      109.227      133.055       -5.749      132.576       76.721       44.619    17576.486     5886.139     1990.825        2.756        1.273      172.146       28.684        0.028      350.646       31.962      860.159
07/17/2014  15:51:00       52.164      120.652        0.908       58.980       93.692       57.318     3478.628     8778.172     3285.377        1.641        0.777      131.446       54.329        0.171      350.723       32.095      860.158
07/17/2014  15:52:00      106.063       84.788        3.574       67.802       44.148       45.697     4597.068     1949.024     2088.173        1.354        0.432      135.788       23.202        0.029      350.722       32.094      860.146
07/17/2014  15:53:00       51.448      185.862      -18.104       53.677       85.541       43.070     2881.215     7317.275     1854.990        2.478        0.603      192.852       42.495        0.049      350.673       32.009      860.137
07/17/2014  15:54:00       87.024       77.868       23.402       62.056       42.216       48.221     3850.904     1782.217     2325.304        1.107        0.398      116.776       28.966        0.062      350.710       32.076      860.118
07/17/2014  15:55:00       59.540       90.979        5.868       59.622       58.919       57.612     3554.755     3471.399     3319.196        1.110        0.517      108.730       46.691        0.184      350.718       32.088      860.108
07/17/2014  15:56:00      134.966       98.071       22.804       81.902       62.040       57.620     6707.921     3848.949     3320.113        2.111        0.694      166.835       41.552        0.062      350.674       32.012      860.106
07/17/2014  15:57:00       53.183       84.876       -2.903       64.722       47.846       31.702     4188.987     2289.250     1005.037        0.876        0.374      100.162       30.312        0.092      350.658       31.986      860.089
07/17/2014  15:58:00       37.252      158.975      -16.073       46.610       74.096       36.074     2172.463     5490.205     1301.334        1.794        0.448      163.281       32.577        0.040      350.647       31.964      860.084
07/17/2014  15:59:00       90.200      141.226        1.215       92.818       68.812       46.063     8615.254     4735.138     2121.821        2.177        0.774      167.574       38.813        0.054      350.653       31.976      860.075
07/17/2014  16:00:00       -3.326      176.180      -15.285       50.489       76.674       33.692     2549.097     5878.885     1135.145        2.042        0.478      176.212       37.394        0.045      350.622       31.922      860.059
07/17/2014  16:01:00       61.099      119.731       -3.137       67.419       71.550       49.037     4545.293     5119.387     2404.624        1.507        0.603      134.419       39.827        0.088      350.674       32.014      860.045
07/17/2014  16:02:00       85.488      154.114        9.399       89.104       75.616       56.303     7939.512     5717.831     3170.033        2.398        0.841      176.237       55.610        0.100      350.642       31.955      860.040
07/17/2014  16:03:00      113.911      125.416        6.368       79.347       54.259       48.517     6295.932     2944.080     2353.875        2.017        0.580      169.425       45.464        0.072      350.620       31.918      860.026
07/17/2014  16:04:00       39.257      124.575       -8.100       42.198       79.309       41.653     1780.648     6289.865     1734.988        1.346        0.490      130.614       45.871        0.123      350.619       31.916      860.011
07/17/2014  16:05:00       -7.239      105.086       -3.733       34.751       57.871       30.175     1207.652     3349.091      910.534        0.829        0.273      105.335       33.632        0.102      350.597       31.880      859.999
07/17/2014  16:06:00       11.116       89.100       -5.941       31.828       49.445       24.027     1012.995     2444.855      577.314        0.607        0.202       89.790       24.428        0.074      350.610       31.902      859.990
07/17/2014  16:07:00       29.307       93.840       -7.277       33.396       60.145       31.672     1115.268     3617.407     1003.099        0.773        0.287       98.310       34.644        0.124      350.591       31.869      859.982
07/17/2014  16:08:00       70.357      158.551      -11.349       52.666       70.366       45.053     2773.697     4951.411     2029.793        1.998        0.488      173.460       31.219        0.032      350.590       31.867      859.963
07/17/2014  16:09:00       68.120       85.842        2.084       61.591       58.912       41.347     3793.404     3470.655     1709.570        1.049        0.449      109.587       33.396        0.093      350.580       31.850      859.961
07/17/2014  16:10:00       74.195       62.758       19.816       33.387       31.847       26.553     1114.682     1014.239      705.063        0.633        0.142       97.177       15.762        0.026      350.503       31.717      859.952
07/17/2014  16:11:00       53.777       63.689       19.565       44.286       29.873       34.508     1961.245      892.379     1190.811        0.569        0.202       83.356       20.287        0.059      350.519       31.742      859.945
07/17/2014  16:12:00       76.347       43.667       24.021       64.511       40.104       40.703     4161.666     1608.336     1656.769        0.787        0.371       87.953       14.239        0.026      350.532       31.765      859.954
07/17/2014  16:13:00       94.584       83.783       -1.756       81.083       57.426       37.960     6574.469     3297.785     1440.953        1.364        0.566      126.356       32.573        0.066      350.509       31.724      859.965
07/17/2014  16:14:00       86.773       80.768       10.944       68.665       58.920       49.184     4714.885     3471.601     2419.087        1.239        0.530      118.546       33.800        0.081      350.567       31.827      859.960
07/17/2014  16:15:00       83.043       72.882       15.616       71.099       51.107       37.111     5055.040     2611.885     1377.200        1.075        0.452      110.490       22.128        0.040      350.551       31.796      859.968
07/17/2014  16:16:00      101.417       43.403       26.235       40.246       41.624       33.846     1619.722     1732.519     1145.569        0.868        0.225      110.314       19.526        0.031      350.135       31.074      859.992
07/17/2014  16:17:00       87.148       55.368       25.857       50.631       30.831       32.570     2563.462      950.559     1060.830        0.795        0.229      103.249       24.397        0.056      350.231       31.243      860.006
07/17/2014  16:18:00       37.511       38.614        0.386       49.888       60.260       30.790     2488.835     3631.287      948.007        0.498        0.353       53.834       24.395        0.205      350.549       31.797      860.017
07/17/2014  16:19:00       56.312        0.147        6.686       26.258       28.558       24.754      689.462      815.575      612.746        0.267        0.106       56.312       13.356        0.056      349.859       30.596      860.035
07/17/2014  16:20:00       98.522       13.427       38.648       64.314       51.372       45.637     4136.234     2639.049     2082.770        1.012        0.443       99.433       32.588        0.107      349.879       30.630      860.047
07/17/2014  16:21:00       80.630       42.996       33.410       61.303       53.085       46.620     3758.011     2818.026     2173.437        0.911        0.437       91.378       29.299        0.103      350.264       31.301      860.060
07/17/2014  16:22:00       57.571       11.100       33.058       48.942       53.519       41.027     2395.330     2864.294     1683.204        0.574        0.347       58.631       42.451        0.524      349.845       30.571      860.077
07/17/2014  16:23:00      114.497       58.711       56.602       53.969       71.219       43.210     2912.624     5072.123     1867.090        1.480        0.493      128.672       37.371        0.084      350.346       31.442      860.091
07/17/2014  16:24:00       47.264       53.032       51.551       39.140       55.870       41.721     1531.905     3121.486     1740.625        0.705        0.320       71.037       31.772        0.200      350.299       31.361      860.107
07/17/2014  16:25:00       48.502       46.239       49.350       56.706       39.118       37.093     3215.529     1530.209     1375.879        0.652        0.306       67.011       30.797        0.211      350.168       31.133      860.108
07/17/2014  16:26:00      122.902       97.010       35.990       56.280       37.602       41.527     3167.455     1413.935     1724.472        1.606        0.315      156.576       32.692        0.044      350.256       31.285      860.128
07/17/2014  16:27:00       98.806       49.143       31.564       36.233       34.659       32.327     1312.798     1201.244     1045.031        0.837        0.178      110.353       20.694        0.035      350.159       31.119      860.117
07/17/2014  16:28:00       85.643       16.090       11.666       59.968       45.847       38.959     3596.190     2101.956     1517.784        0.747        0.361       87.141       40.758        0.219      350.134       31.073      860.102
07/17/2014  16:29:00       15.585        1.054       21.828       20.665       29.253       23.791      427.049      855.729      566.028        0.128        0.092       15.621       15.507        0.986      349.932       30.723      860.096
07/17/2014  16:30:00       13.197       12.511       16.398       21.740       19.083       18.410      472.646      364.160      338.945        0.089        0.059       18.185       12.884        0.502      350.100       31.016      860.083
07/17/2014  16:31:00       49.382       32.673       16.633       20.543       31.444       25.438      422.004      988.736      647.077        0.292        0.103       59.212       10.537        0.032      350.003       30.846      860.062
07/17/2014  16:32:00       44.065      -20.849       -4.190       27.102       34.668       21.877      734.545     1201.885      478.587        0.240        0.121       48.748       20.479        0.176      350.130       31.068      860.046
07/17/2014  16:33:00       34.244       -1.902       26.245       29.441       18.926       19.076      866.760      358.178      363.907        0.173        0.079       34.297       14.655        0.183      349.863       30.605      860.040
07/17/2014  16:34:00       30.427       26.977       35.178       32.084       32.004       25.976     1029.366     1024.238      674.732        0.281        0.136       40.664       13.453        0.109      350.019       30.875      860.024
07/17/2014  16:35:00       43.904        2.639       11.583       30.126       16.922       18.997      907.556      286.363      360.892        0.181        0.078       43.983       18.601        0.179      350.099       31.014      860.001
07/17/2014  16:36:00       35.623        6.316       23.931       29.392       36.562       24.524      863.896     1336.810      601.421        0.234        0.140       36.179       24.486        0.458      349.797       30.488      859.996
07/17/2014  16:37:00       55.043       26.666       52.423       36.024       43.275       39.948     1297.730     1872.692     1595.808        0.563        0.238       61.162       32.689        0.286      350.042       30.914      859.991
07/17/2014  16:38:00       86.195       64.065       42.806       35.446       37.061       38.239     1256.441     1373.488     1462.208        0.873        0.205      107.396       10.040        0.009      350.324       31.404      859.982
07/17/2014  16:39:00       56.229       33.612       10.824       50.524       28.822       22.133     2552.718      830.701      489.871        0.414        0.194       65.509       14.671        0.050      350.401       31.538      859.987
07/17/2014  16:40:00      103.804       72.968       16.195       39.726       30.069       27.966     1578.132      904.127      782.111        0.981        0.163      126.884       21.201        0.028      350.480       31.676      860.009
07/17/2014  16:41:00       58.438       36.988       12.014       47.679       27.452       23.368     2273.262      753.621      546.069        0.425        0.179       69.160       14.033        0.041      350.481       31.678      860.002
07/17/2014  16:42:00       49.700       39.397        5.772       29.252       29.229       23.919      855.681      854.361      572.116        0.317        0.114       63.421       10.558        0.028      350.404       31.545      859.994
07/17/2014  16:43:00       23.882       -2.884        2.708       14.559       19.548       18.182      211.967      382.142      330.573        0.076        0.046       24.056       12.326        0.263      349.970       30.789      859.992
07/17/2014  16:44:00       41.824       15.366       16.247       26.283       33.256       19.721      690.807     1105.945      388.933        0.222        0.109       44.558       10.996        0.061      349.826       30.540      859.994
07/17/2014  16:45:00       39.537       11.677       13.202       31.249       29.803       22.314      976.478      888.199      497.901        0.212        0.118       41.225       16.075        0.152      350.046       30.922      859.989
07/17/2014  16:46:00       33.449       35.826       22.247       38.566       34.278       26.273     1487.323     1175.001      690.261        0.312        0.168       49.013       21.969        0.201      350.385       31.510      859.988
07/17/2014  16:47:00       37.372       12.745       10.908       30.899       22.573       21.642      954.738      509.535      468.357        0.180        0.097       39.486       13.367        0.115      350.038       30.908      859.999
07/17/2014  16:48:00       63.431       37.832       25.169       50.805       35.198       35.488     2581.101     1238.889     1259.404        0.558        0.254       73.856       28.146        0.145      350.010       30.858      859.998
07/17/2014  16:49:00       63.482       24.831       31.601       36.097       45.006       23.911     1303.017     2025.572      571.716        0.477        0.195       68.166       15.719        0.053      350.108       31.030      859.998
07/17/2014  16:50:00       44.012      -19.083        9.543       28.870       28.522       24.656      833.462      813.528      607.932        0.232        0.113       47.971       12.905        0.072      349.676       30.281      860.006
07/17/2014  16:51:00       41.411      -32.429       10.265       53.999       70.084       29.175     2915.839     4911.822      851.197        0.577        0.434       52.598       37.330        0.504      350.043       30.916      860.019
07/17/2014  16:52:00       50.561      -25.112       -1.794       43.359       43.226       30.184     1879.990     1868.501      911.088        0.392        0.233       56.453       20.372        0.130      349.890       30.650      860.030
07/17/2014  16:53:00       39.917       15.737       17.405       20.360       28.032       18.232      414.528      785.802      332.418        0.184        0.077       42.907        8.107        0.036      350.053       30.933      860.030
07/17/2014  16:54:00       23.526      -17.053        3.829       28.479       38.492       17.738      811.078     1481.631      314.635        0.173        0.130       29.057        6.169        0.045      349.849       30.579      860.032
07/17/2014  16:55:00       37.149       35.217       42.458       45.269       38.564       28.231     2049.318     1487.159      796.995        0.438        0.217       51.189       19.755        0.149      350.171       31.138      860.050
07/17/2014  16:56:00      101.348       49.148       37.920       77.730       58.860       41.050     6041.904     3464.502     1685.078        1.266        0.560      112.637       35.758        0.101      350.424       31.577      860.056
07/17/2014  16:57:00       86.435       61.347       44.030       52.567       48.869       39.811     2763.322     2388.222     1584.907        0.995        0.337      105.993       28.906        0.074      350.449       31.622      860.063
07/17/2014  16:58:00       30.779       50.289       39.673       29.216       34.378       35.717      853.579     1181.817     1275.688        0.418        0.166       58.961        7.382        0.016      350.090       30.997      860.073
07/17/2014  16:59:00      132.785       55.595       38.383       54.955       59.222       39.012     3020.075     3507.294     1521.971        1.512        0.402      143.954       27.920        0.038      350.075       30.971      860.086
07/17/2014  17:00:00      108.940       55.223       27.549       51.128       45.394       32.487     2614.088     2060.602     1055.377        1.070        0.287      122.138       24.715        0.041      350.333       31.420      860.088
07/17/2014  17:01:00       95.042       43.383       28.529       42.148       34.880       27.799     1776.438     1216.638      772.798        0.775        0.188      104.475       17.979        0.030      350.066       30.956      860.084
07/17/2014  17:02:00       72.011       23.850       12.311       46.796       28.252       23.967     2189.833      798.189      574.408        0.473        0.178       75.858       20.337        0.072      349.980       30.808      860.072
07/17/2014  17:03:00       33.348       15.634       11.024       35.455       17.854       25.464     1257.031      318.780      648.393        0.185        0.111       36.831       15.900        0.186      349.697       30.314      860.061
07/17/2014  17:04:00       32.852       31.559       15.707       37.904       34.721       22.846     1436.751     1205.543      521.942        0.274        0.158       45.555       11.918        0.068      350.220       31.223      860.047
07/17/2014  17:05:00       80.184       52.697       10.918       29.059       29.038       18.592      844.398      843.201      345.648        0.568        0.102       95.951       16.688        0.030      350.425       31.580      860.029
07/17/2014  17:06:00       91.029       52.542       23.457       36.928       32.878       29.203     1363.708     1080.930      852.823        0.745        0.165      105.105       19.476        0.034      350.279       31.329      860.013
07/17/2014  17:07:00       95.292       66.385       29.901       29.905       23.427       20.048      894.280      548.847      401.911        0.811        0.092      116.136        9.339        0.006      350.345       31.441      860.006
07/17/2014  17:08:00      114.021       71.460       22.616       65.009       43.748       33.784     4226.150     1913.905     1141.368        1.295        0.364      134.563       22.074        0.027      350.398       31.532      860.004
07/17/2014  17:09:00       85.419       67.958       17.635       35.161       26.257       32.001     1236.263      689.415     1024.076        0.759        0.147      109.154       13.736        0.016      350.441       31.608      859.996
07/17/2014  17:10:00       86.102       67.512       17.236       52.078       31.421       27.784     2712.113      987.253      771.977        0.837        0.224      109.414       25.254        0.053      350.505       31.719      859.980
07/17/2014  17:11:00      104.089       89.932       31.899       42.523       32.525       27.520     1808.224     1057.894      757.354        1.178        0.181      137.559       22.519        0.027      350.559       31.812      859.975
07/17/2014  17:12:00       60.405       27.577       11.240       42.743       35.296       24.368     1826.970     1245.786      593.802        0.410        0.183       66.402       14.929        0.051      350.130       31.067      859.979
07/17/2014  17:13:00        5.392       16.395       26.941       16.755       19.596       16.842      280.742      383.996      283.667        0.099        0.047       17.259        9.978        0.334      349.684       30.293      859.989
07/17/2014  17:14:00       44.547       40.467       39.590       24.477       21.541       18.964      599.105      464.011      359.639        0.331        0.071       60.183       11.006        0.033      349.356       29.725      859.987
07/17/2014  17:15:00       46.155       24.563       18.883       23.722       28.796       26.208      562.744      829.201      686.843        0.258        0.104       52.285       22.252        0.181      349.556       30.071      859.971
07/17/2014  17:16:00       43.537       38.593       37.088       26.705       34.388       27.863      713.158     1182.510      776.342        0.372        0.134       58.180       20.684        0.126      349.819       30.528      859.955
07/17/2014  17:17:00       64.098       56.898       43.158       43.763       34.213       36.218     1915.169     1170.507     1311.752        0.680        0.220       85.709       26.219        0.094      350.057       30.942      859.945
07/17/2014  17:18:00       48.801       31.878       46.097       34.318       32.723       26.358     1177.755     1070.802      694.728        0.423        0.147       58.290        9.197        0.025      350.070       30.963      859.940
07/17/2014  17:19:00       15.339       18.999       43.071       29.279       36.116       20.660      857.246     1304.364      426.820        0.252        0.129       24.419       11.799        0.233      350.033       30.898      859.938
07/17/2014  17:20:00       34.970       22.202       39.773       33.240       43.722       27.661     1104.877     1911.605      765.149        0.354        0.189       41.423       22.057        0.284      350.074       30.969      859.931
07/17/2014  17:21:00       68.224      -20.771       26.954       81.277       56.935       43.522     6605.958     3241.595     1894.140        0.877        0.587       71.316       34.812        0.238      349.995       30.832      859.932
07/17/2014  17:22:00        7.092       47.380       95.374       47.976       73.839       52.637     2301.709     5452.237     2770.677        1.096        0.526       47.908       53.321        1.239      349.861       30.601      859.966
07/17/2014  17:23:00      128.108      -48.398       29.427      118.734      130.162       67.982    14097.792    16942.104     4621.525        2.763        1.783      136.946       80.893        0.349      350.120       31.048      859.944
07/17/2014  17:24:00       98.716     -215.867        0.165       92.276      153.180       62.419     8514.946    23464.069     3896.082        4.610        1.794      237.368       69.655        0.086      350.164       31.122      859.952
07/17/2014  17:25:00       84.951     -135.331       57.593      112.054      169.128       97.107    12556.016    28604.176     9429.728        3.971        2.529      159.785      108.333        0.460      350.090       30.994      859.920
07/17/2014  17:26:00      172.420     -315.462      -26.206      106.707      123.132       79.398    11386.366    15161.514     6303.993        8.139        1.643      359.506       55.080        0.023      349.973       30.791      859.939
07/17/2014  17:27:00      163.081     -211.247       -8.379      127.548      159.625      101.776    16268.562    25480.157    10358.433        6.169        2.605      266.872      105.177        0.155      349.904       30.673      859.931
07/17/2014  17:28:00      153.580     -254.670      -25.319      141.140      165.142       84.353    19920.520    27271.754     7115.373        7.169        2.715      297.395       76.494        0.066      349.814       30.514      859.907
07/17/2014  17:29:00      155.898     -247.168      -14.992       96.242       97.524       49.874     9262.533     9510.868     2487.419        5.344        1.063      292.226       44.128        0.023      349.784       30.462      859.897
07/17/2014  17:30:00      236.271     -186.678       10.379      161.807      153.639       82.109    26181.407    23605.034     6741.877        7.364        2.826      301.119       91.561        0.092      349.756       30.413      859.910
07/17/2014  17:31:00      143.340     -291.673        0.714      170.673      215.260       98.179    29129.188    46336.837     9639.115        9.535        4.255      324.992      110.120        0.115      349.694       30.307      859.868
07/17/2014  17:32:00      183.376      -28.301      131.233      202.743      246.866      150.449    41104.885    60943.002    22634.973        8.814        6.234      185.547      172.042        0.860      349.648       30.227      859.823
07/17/2014  17:33:00      198.988     -230.623       18.015      195.222      187.704      132.288    38111.559    35232.865    17500.002        9.196        4.542      304.603      127.852        0.176      349.681       30.282      859.827
07/17/2014  17:34:00       80.398      -99.987       42.874      117.982      160.515      104.341    13919.652    25765.132    10887.031        3.443        2.529      128.302      115.906        0.816      349.727       30.364      859.887
07/17/2014  17:35:00      -16.178      -89.363       21.050       72.316       98.839       60.896     5229.579     9769.098     3708.322        1.370        0.935       90.816       51.895        0.327      349.699       30.318      859.927
07/17/2014  17:36:00      109.315     -207.443        8.893      108.212      172.503       79.962    11709.933    29757.455     6393.886        5.145        2.393      234.483       93.968        0.161      349.587       30.122      859.960
07/17/2014  17:37:00      183.852     -330.963       -8.250      105.957      142.032       78.383    11226.797    20172.949     6143.957        9.047        1.877      378.600       79.869        0.045      349.489       29.952      859.945
07/17/2014  17:38:00       47.643      -90.119       56.786       93.369      159.121       93.778     8717.836    25319.426     8794.223        2.822        2.142      101.938      111.947        1.206      349.482       29.939      859.971
07/17/2014  17:39:00      112.399      -57.729       37.374       83.540      126.499       72.263     6978.978    16001.949     5222.005        2.278        1.410      126.358       81.870        0.420      349.415       29.823      859.974
07/17/2014  17:40:00       52.104     -131.088       37.883       99.145      126.550       53.685     9829.757    16014.847     2882.069        2.502        1.436      141.064       65.758        0.217      349.394       29.787      859.985
07/17/2014  17:41:00       79.297     -178.423       21.994      123.442      149.963       79.563    15237.931    22488.808     6330.296        4.132        2.203      195.251       67.978        0.121      349.426       29.841      860.000
07/17/2014  17:42:00      -13.856      -62.952        0.894       48.649       45.473       39.341     2366.772     2067.837     1547.716        0.507        0.299       64.459       17.939        0.077      349.433       29.856      860.038
07/17/2014  17:43:00       44.978     -106.761        2.311       49.340       54.343       40.713     2434.444     2953.141     1657.563        1.023        0.352      115.849       18.254        0.025      349.240       29.524      860.055
07/17/2014  17:44:00      -32.879      -77.480       11.102      143.280      103.275       53.157    20529.228    10665.636     2825.651        2.061        1.701       84.168       43.404        0.266      349.472       29.924      860.081
07/17/2014  17:45:00     -157.880     -315.932      -25.355      124.324      108.236       74.570    15456.401    11715.092     5560.709        7.905        1.637      353.184       38.879        0.012      349.524       30.010      860.077
07/17/2014  17:46:00     -177.036     -226.735      -19.049      151.787       98.500       62.498    23039.217     9702.255     3906.006        5.987        1.832      287.664       65.125        0.051      349.573       30.098      860.067
07/17/2014  17:47:00        0.296     -204.453        0.596      118.382      139.060       57.882    14014.367    19337.699     3350.342        3.924        1.835      204.454       52.747        0.067      349.465       29.909      860.023
07/17/2014  17:48:00     -169.154      -37.935        5.195      103.377       76.773       42.288    10686.833     5894.056     1788.265        2.422        0.918      173.356       51.728        0.089      349.522       30.007      860.059
07/17/2014  17:49:00     -345.128      -93.089      -24.725      156.185       98.077       51.270    24393.629     9619.042     2628.649        8.251        1.832      357.462       57.175        0.026      349.359       29.726      860.091
07/17/2014  17:50:00     -383.493     -162.026      -35.840      149.661      106.972       59.539    22398.344    11443.092     3544.911       10.599        1.869      416.316       65.901        0.025      349.107       29.287      860.127
07/17/2014  17:51:00     -317.298      -19.513      -10.063       96.500       91.741       57.686     9312.231     8416.443     3327.655        6.110        1.053      317.897       58.901        0.034      349.033       29.159      860.147
07/17/2014  17:52:00     -155.802      -83.854        1.939      131.995       80.826       50.188    17422.745     6532.775     2518.811        2.889        1.324      176.934       54.584        0.095      349.055       29.200      860.166
07/17/2014  17:53:00     -263.817     -219.002        2.125      178.405      149.758       77.476    31828.190    22427.339     6002.587        8.890        3.013      342.873       78.930        0.053      348.933       28.986      860.160
07/17/2014  17:54:00     -345.159     -256.908       -0.164      166.139      117.559       81.602    27602.008    13820.124     6658.880       11.660        2.404      430.275       79.180        0.034      348.768       28.701      860.151
07/17/2014  17:55:00     -295.921     -146.819      -11.230      170.458      160.600       79.172    29055.919    25792.346     6268.195        8.517        3.056      330.341       66.654        0.041      348.795       28.748      860.140
07/17/2014  17:56:00     -335.626     -145.583       -2.420      153.836      164.538       79.786    23665.525    27072.715     6365.769        9.546        2.855      365.840       74.794        0.042      348.799       28.756      860.149
07/17/2014  17:57:00     -282.057     -205.151      -24.318      156.872      100.793       60.672    24608.915    10159.192     3681.058        8.033        1.922      348.774       73.427        0.044      348.864       28.868      860.146
07/17/2014  17:58:00     -142.228      -80.502        1.083      119.779       85.912       54.338    14347.037     7380.860     2952.577        2.569        1.234      163.430       52.998        0.105      348.814       28.783      860.117
07/17/2014  17:59:00     -174.345      -41.872       11.435      153.039      109.373       61.320    23420.953    11962.551     3760.120        3.570        1.957      179.303       69.359        0.150      348.797       28.754      860.139
07/17/2014  18:00:00     -274.940     -161.624      -12.150      141.596      134.284       70.874    20049.388    18032.078     5023.073        7.247        2.155      318.927       71.351        0.050      348.774       28.713      860.164
07/17/2014  18:01:00     -343.314     -110.230       -8.666      226.256      136.971       72.263    51192.003    18760.977     5221.933       10.262        3.759      360.576       82.406        0.052      348.769       28.705      860.193
07/17/2014  18:02:00     -327.826     -196.980      -13.788      165.800      128.667       88.232    27489.653    16555.309     7784.895        9.913        2.591      382.453       89.979        0.055      348.720       28.619      860.204
07/17/2014  18:03:00     -292.072      -79.825        4.675      163.312      147.728       59.299    26670.866    21823.677     3516.394        7.185        2.601      302.784       67.342        0.049      348.716       28.612      860.203
07/17/2014  18:04:00     -405.563      -49.418      -12.632      256.847      157.976       90.622    65970.545    24956.464     8212.376       13.309        4.957      408.563      113.358        0.077      348.659       28.513      860.210
07/17/2014  18:05:00     -466.935      -94.192      -31.403      204.509      173.201       83.096    41824.031    29998.512     6904.903       15.329        3.936      476.340       89.636        0.035      348.557       28.335      860.256
07/17/2014  18:06:00     -391.175      -87.071       -9.051      169.123      121.531       70.197    28602.644    14769.733     4927.591       10.448        2.415      400.748       74.650        0.035      348.525       28.281      860.267
07/17/2014  18:07:00     -259.294      -60.400      -27.224      184.769      123.048       72.349    34139.741    15140.741     5234.372        6.306        2.726      266.236       59.610        0.050      348.545       28.315      860.294
07/17/2014  18:08:00      -83.525     -111.472       15.460      115.309       85.072       51.296    13296.277     7237.329     2631.291        2.140        1.158      139.293       59.196        0.181      348.545       28.317      860.305
07/17/2014  18:09:00     -241.892     -212.143      -14.389      132.802      123.002       63.172    17636.475    15129.405     3990.659        7.023        1.838      321.739       69.649        0.047      348.525       28.280      860.279
07/17/2014  18:10:00     -225.643       14.012       -1.427      112.028      131.020       61.657    12550.338    17166.128     3801.613        4.231        1.676      226.078       56.582        0.063      348.568       28.354      860.283
07/17/2014  18:11:00     -263.978     -183.082       -5.961      154.720       99.742       75.944    23938.307     9948.464     5767.530        7.144        1.983      321.253       80.021        0.062      348.558       28.337      860.259
07/17/2014  18:12:00     -275.459      -39.362      -13.952      194.091      189.969       78.486    37671.303    36088.384     6160.054        7.875        3.996      278.257       89.479        0.103      348.600       28.410      860.246
07/17/2014  18:13:00      -61.400      -73.059       23.431      135.768      119.129       69.282    18432.850    14191.664     4800.031        2.353        1.871       95.434       80.592        0.713      348.661       28.519      860.230
07/17/2014  18:14:00      -27.244      -45.417       20.199       73.067       75.076       44.108     5338.829     5636.384     1945.558        0.806        0.646       52.962       30.655        0.335      348.694       28.576      860.254
07/17/2014  18:15:00      -75.860      -66.284        8.732       79.510       83.991       41.121     6321.843     7054.497     1690.963        1.264        0.753      100.739       43.303        0.185      348.691       28.570      860.254
07/17/2014  18:16:00     -166.006     -176.627       -7.068      116.658      101.991       49.130    13608.978    10402.160     2413.799        4.261        1.321      242.395       39.417        0.026      348.652       28.502      860.253
07/17/2014  18:17:00      -71.762       13.962       14.586      101.914       84.744       52.318    10386.385     7181.533     2737.221        1.293        1.015       73.108       50.456        0.476      348.698       28.583      860.242
07/17/2014  18:18:00     -109.264       32.856        8.645      128.454      101.951       58.328    16500.383    10393.933     3402.182        2.169        1.515      114.097       65.230        0.327      348.685       28.559      860.235
07/17/2014  18:19:00     -179.372      -38.590        2.915      140.578      149.229       66.391    19762.129    22269.256     4407.781        4.005        2.322      183.476       56.503        0.095      348.636       28.475      860.266
07/17/2014  18:20:00     -159.443     -151.192       24.944      145.486      137.447       72.906    21166.142    18891.735     5315.280        4.713        2.269      219.730       74.928        0.116      348.630       28.463      860.291
07/17/2014  18:21:00       21.943     -237.487       -2.382      113.235      141.894       61.975    12822.169    20133.779     3840.858        4.683        1.840      238.498       43.699        0.034      348.610       28.429      860.309
07/17/2014  18:22:00      -70.723      -99.252        4.869       89.564       60.919       36.828     8021.633     3711.129     1356.277        1.398        0.654      121.872       29.707        0.059      348.641       28.485      860.363
07/17/2014  18:23:00      -27.696     -122.647       18.259       81.734       82.265       54.482     6680.396     6767.472     2968.242        1.628        0.821      125.735       47.664        0.144      348.641       28.485      860.405
07/17/2014  18:24:00      -21.192     -167.607       24.422       68.356      184.696       61.960     4672.523    34112.435     3839.053        3.587        2.131      168.942       75.940        0.202      348.599       28.410      860.442
07/17/2014  18:25:00      -15.816      -90.161      -12.239       69.835      103.858       57.804     4876.956    10786.548     3341.328        1.376        0.950       91.537       27.843        0.093      348.614       28.437      860.458
07/17/2014  18:26:00        5.991       22.416       49.663       51.855       90.118       57.587     2688.976     8121.315     3316.316        0.856        0.706       23.202       59.085        6.485      348.656       28.512      860.434
07/17/2014  18:27:00       17.507      -16.692       16.116       42.129       38.149       30.579     1774.865     1455.352      935.076        0.250        0.208       24.189       19.866        0.675      348.543       28.316      860.485
07/17/2014  18:28:00       63.381      -73.659       13.917       49.847       81.400       45.118     2484.772     6625.926     2035.636        1.039        0.557       97.174       48.085        0.245      348.679       28.551      860.515
07/17/2014  18:29:00       87.331       14.812       43.248       69.459       46.357       38.448     4824.599     2148.961     1478.223        0.908        0.423       88.578       35.437        0.160      348.794       28.750      860.537
07/17/2014  18:30:00      124.732       70.693       33.813       48.515       50.388       51.669     2353.723     2538.991     2669.701        1.463        0.378      143.372       36.267        0.064      348.747       28.669      860.516
07/17/2014  18:31:00       67.729      -83.017        6.521       79.454       78.900       44.217     6312.947     6225.221     1955.152        1.300        0.725      107.140       43.004        0.161      348.676       28.543      860.503
07/17/2014  18:32:00      -58.650     -137.187       -1.115       81.880       45.746       30.355     6704.254     2092.730      921.405        1.599        0.486      149.198       16.228        0.012      348.678       28.548      860.503
07/17/2014  18:33:00       -7.156     -145.460       -2.350       48.794       63.463       32.174     2380.860     4027.595     1035.137        1.433        0.372      145.636       29.218        0.040      348.676       28.545      860.503
07/17/2014  18:34:00      -35.622     -155.480        3.113       61.300       60.107       34.403     3757.643     3612.837     1183.579        1.700        0.428      159.509       30.883        0.037      348.618       28.445      860.492
07/17/2014  18:35:00     -149.368      -41.992       -0.862       72.226       51.515       34.259     5216.534     2653.798     1173.672        1.656        0.452      155.158       26.277        0.029      348.637       28.480      860.484
07/17/2014  18:36:00      -45.017      -84.958        3.683       73.770       53.562       37.858     5442.081     2868.834     1433.232        0.950        0.487       96.148       30.297        0.099      348.630       28.468      860.476
07/17/2014  18:37:00        8.909      -24.337       12.593       30.508       28.110       27.167      930.738      790.151      738.039        0.164        0.123       25.917       20.494        0.625      348.722       28.626      860.460
07/17/2014  18:38:00       35.527       13.560       28.765       44.160       30.760       24.754     1950.094      946.149      612.780        0.289        0.175       38.027       25.933        0.465      348.527       28.287      860.416
07/17/2014  18:39:00       69.219      -96.454        5.251       62.878       76.118       35.808     3953.703     5793.919     1282.202        1.257        0.551      118.721       39.115        0.109      348.658       28.514      860.414
07/17/2014  18:40:00       43.911     -111.134      -24.173       41.153       57.833       41.865     1693.609     3344.674     1752.657        1.083        0.340      119.495       31.521        0.070      348.563       28.351      860.406
07/17/2014  18:41:00        9.643     -111.465      -19.233       44.476       53.161       33.922     1978.147     2826.133     1150.719        0.942        0.298      111.882       24.280        0.047      348.672       28.538      860.408
07/17/2014  18:42:00       66.154     -132.635       17.303       76.408       75.541       51.640     5838.202     5706.368     2666.643        1.824        0.711      148.217       47.589        0.103      348.738       28.651      860.403
07/17/2014  18:43:00       16.919     -155.083       -9.306       67.781       72.561       65.044     4594.300     5265.092     4230.668        1.925        0.705      156.003       50.680        0.106      348.668       28.530      860.394
07/17/2014  18:44:00      -80.294      -84.631      -14.840       85.657       76.317       40.004     7337.152     5824.335     1600.350        1.429        0.738      116.660       36.493        0.098      348.657       28.511      860.371
07/17/2014  18:45:00      -54.707      -36.165       13.930       58.666       54.265       36.182     3441.758     2944.645     1309.108        0.609        0.385       65.580       41.593        0.402      348.747       28.669      860.353
07/17/2014  18:46:00      -96.668     -116.138        3.890       91.787       79.013       48.253     8424.888     6243.114     2328.331        1.992        0.850      151.105       47.457        0.099      348.743       28.664      860.336
07/17/2014  18:47:00     -110.346     -119.607        2.689       88.883       66.391       43.808     7900.137     4407.741     1919.123        2.036        0.711      162.733       41.473        0.065      348.815       28.786      860.339
07/17/2014  18:48:00       -6.880      -96.291        6.283       57.248       50.002       27.719     3277.318     2500.226      768.328        0.795        0.327       96.536       11.188        0.013      348.811       28.780      860.352
07/17/2014  18:49:00      -14.101       13.347        5.055       25.462       25.112       16.801      648.311      630.632      282.264        0.098        0.078       19.416       11.073        0.325      348.748       28.670      860.344
07/17/2014  18:50:00       21.970      -81.110       -0.767       43.691       79.123       30.328     1908.935     6260.492      919.776        0.807        0.454       84.033       42.833        0.260      348.734       28.646      860.325
07/17/2014  18:51:00       21.916      -55.889        1.668       57.546       44.327       32.073     3311.585     1964.884     1028.649        0.495        0.315       60.032       23.578        0.154      348.757       28.685      860.317
07/17/2014  18:52:00      -32.037      -76.825       13.781       58.217       64.857       38.126     3389.264     4206.436     1453.583        0.808        0.452       83.237       36.093        0.188      348.847       28.841      860.340
07/17/2014  18:53:00     -163.698     -158.601        2.384      130.119       74.275       52.690    16931.030     5516.813     2776.272        3.859        1.261      227.928       55.905        0.060      348.722       28.624      860.348
07/17/2014  18:54:00      -43.110      -90.654        2.326       60.059       44.601       25.665     3607.124     1989.258      658.675        0.817        0.313      100.382       25.176        0.063      348.660       28.517      860.345
07/17/2014  18:55:00      -60.132      -64.770       -5.423       52.185       60.829       29.518     2723.276     3700.200      871.316        0.757        0.365       88.380       26.392        0.089      348.690       28.568      860.336
07/17/2014  18:56:00     -110.297      -79.753       -3.649       72.510       60.872       36.591     5257.648     3705.431     1338.937        1.442        0.515      136.111       34.773        0.065      348.651       28.501      860.330
07/17/2014  18:57:00     -352.056      -65.567      -29.507       98.411       77.098       52.720     9684.795     5944.174     2779.400        7.376        0.920      358.110       56.536        0.025      348.589       28.391      860.328
07/17/2014  18:58:00     -212.198       94.900      -18.873      136.842       91.924       49.232    18725.860     8449.945     2423.769        4.199        1.480      232.452       56.125        0.058      348.594       28.401      860.323
07/17/2014  18:59:00      -54.904      -31.360       20.613       95.907       68.482       44.425     9198.209     4689.724     1973.606        1.014        0.793       63.229       37.589        0.353      348.601       28.416      860.319
07/17/2014  19:00:00     -127.745      -70.206        7.941       95.655       74.210       47.206     9149.826     5507.198     2228.426        1.909        0.844      145.766       48.334        0.110      348.617       28.443      860.326
07/17/2014  19:01:00      -82.433      -85.648        8.909       93.121       72.471       51.661     8671.488     5251.986     2668.852        1.540        0.830      118.873       63.312        0.284      348.676       28.544      860.328
07/17/2014  19:02:00     -116.775      -98.590        2.130       50.100       55.336       36.578     2510.044     3062.118     1337.915        1.513        0.346      152.828       32.972        0.047      348.652       28.504      860.348
07/17/2014  19:03:00     -201.963     -101.126       -2.971       69.223       56.508       35.983     4791.867     3193.139     1294.742        3.015        0.464      225.866       33.074        0.021      348.683       28.555      860.385
07/17/2014  19:04:00     -184.871      -84.294        2.346       94.255       63.498       40.779     8884.009     4032.015     1662.908        2.793        0.729      203.182       43.062        0.045      348.666       28.525      860.422
07/17/2014  19:05:00      -93.953      -44.482        1.966       76.514       38.758       25.374     5854.381     1502.153      643.829        0.940        0.400      103.951       25.891        0.062      348.704       28.595      860.453
07/17/2014  19:06:00     -186.118      -49.323       -5.497      100.155       69.811       43.442    10031.055     4873.510     1887.237        2.694        0.840      192.543       39.297        0.042      348.637       28.476      860.472
07/17/2014  19:07:00     -256.702     -126.825      -14.249      128.417      102.649       50.761    16490.938    10536.878     2576.728        5.589        1.480      286.322       58.658        0.042      348.635       28.472      860.482
07/17/2014  19:08:00      -95.656     -121.022       14.950      104.370       76.721       49.107    10893.002     5886.167     2411.522        2.160        0.960      154.261       51.892        0.113      348.662       28.519      860.512
07/17/2014  19:09:00      -82.597     -120.354       17.240       67.827       67.458       40.989     4600.520     4550.589     1680.112        1.622        0.542      145.971       35.721        0.060      348.647       28.494      860.534
07/17/2014  19:10:00      -91.178     -113.942       11.989      100.328       68.089       35.903    10065.761     4636.141     1288.999        1.871        0.800      145.932       45.956        0.099      348.616       28.441      860.552
07/17/2014  19:11:00     -125.426      -98.749      -10.814       76.302       81.238       41.170     5821.936     6599.657     1694.967        1.986        0.706      159.634       33.103        0.043      348.582       28.380      860.549
07/17/2014  19:12:00     -119.758     -116.621       -9.651       74.123       92.634       41.960     5494.173     8581.062     1760.644        2.193        0.792      167.160       29.295        0.031      348.540       28.310      860.552
07/17/2014  19:13:00     -169.482      -75.664      -13.658       53.263       55.754       27.958     2836.927     3108.529      781.639        2.068        0.336      185.605       25.760        0.019      348.506       28.250      860.548
07/17/2014  19:14:00      -52.797      -84.672       -7.501       46.521       37.574       16.497     2164.200     1411.789      272.159        0.693        0.192       99.784       21.251        0.045      348.503       28.247      860.546
07/17/2014  19:15:00      -36.054      -99.594        1.196       35.503       32.592       18.506     1260.453     1062.232      342.489        0.694        0.133      105.919       14.434        0.019      348.525       28.285      860.547
07/17/2014  19:16:00     -106.331      -52.721        8.730       58.058       73.441       30.950     3370.684     5393.529      957.912        1.194        0.486      118.683       28.625        0.058      348.518       28.272      860.543
07/17/2014  19:17:00      -42.174      -83.667        1.530       51.922       52.985       27.446     2695.867     2807.361      753.267        0.752        0.313       93.696       23.933        0.065      348.523       28.279      860.537
07/17/2014  19:18:00     -110.867      -47.216        0.451       99.092       78.349       45.577     9819.148     6138.602     2077.239        1.627        0.902      120.502       42.440        0.124      348.501       28.241      860.542
07/17/2014  19:19:00     -239.036      -72.145       -0.458      136.566      113.480       54.539    18650.298    12877.673     2974.477        4.842        1.725      249.686       68.864        0.076      348.473       28.192      860.551
07/17/2014  19:20:00     -213.212      -93.489       -5.419      115.699       74.999       50.660    13386.179     5624.859     2566.444        3.790        1.079      232.809       52.308        0.050      348.467       28.182      860.561
07/17/2014  19:21:00     -202.876      -66.731      -15.845      178.371      117.463       70.481    31816.055    13797.671     4967.601        4.821        2.529      213.569       80.750        0.143      348.450       28.152      860.566
07/17/2014  19:22:00     -119.801      -18.763       16.320      120.044       71.860       56.994    14410.526     5163.797     3248.299        1.889        1.141      121.261       64.139        0.280      348.431       28.123      860.558
07/17/2014  19:23:00     -129.127      -77.700       19.477      181.909      134.074       74.986    33090.979    17975.962     5622.931        3.988        2.834      150.702       76.335        0.257      348.399       28.065      860.548
07/17/2014  19:24:00     -309.134      -93.271      -18.846      112.262      129.033       72.671    12602.839    16649.417     5281.135        6.957        1.727      322.898       66.474        0.042      348.401       28.066      860.547
07/17/2014  19:25:00     -223.460      -48.790       17.053      176.444      123.629       74.512    31132.611    15284.021     5552.008        5.228        2.598      228.724       97.367        0.181      348.384       28.037      860.554
07/17/2014  19:26:00     -379.923      -35.348      -10.116      199.418      132.432       75.750    39767.725    17538.201     5738.113       10.436        3.152      381.564       77.431        0.041      348.374       28.020      860.568
07/17/2014  19:27:00     -230.028       29.470      -22.789      100.053       84.074       49.227    10010.617     7068.372     2423.272        3.690        0.975      231.908       41.683        0.032      348.371       28.016      860.613
07/17/2014  19:28:00     -307.588      -13.509      -17.010      126.903      110.062       63.930    16104.366    12113.675     4087.021        6.369        1.615      307.885       58.970        0.037      348.354       27.984      860.629
07/17/2014  19:29:00     -299.255     -109.676       -8.273      124.983      112.728       54.243    15620.816    12707.595     2942.350        6.645        1.564      318.720       33.160        0.011      348.357       27.989      860.669
07/17/2014  19:30:00     -356.977     -131.092      -13.464      200.772      118.170       60.350    40309.548    13964.251     3642.176       10.135        2.896      380.286       84.303        0.049      348.360       27.994      860.738
07/17/2014  19:31:00     -471.170      -76.830      -35.939      163.992      137.039       72.504    26893.243    18779.694     5256.759       14.005        2.546      477.393       81.685        0.029      348.367       28.007      860.805
07/17/2014  19:32:00     -440.584      -97.711      -40.221      174.150      123.254       77.884    30328.348    15191.640     6065.888       12.842        2.579      451.289       85.186        0.036      348.382       28.033      860.854
07/17/2014  19:33:00     -177.206        5.631       -3.800       92.105      111.669       50.311     8483.267    12469.901     2531.173        2.746        1.174      177.296       44.458        0.063      348.387       28.041      860.935
07/17/2014  19:34:00      -63.926       89.814        5.914       71.053      124.606       55.744     5048.527    15526.708     3107.390        1.793        1.184      110.241       49.742        0.204      348.438       28.132      861.013
07/17/2014  19:35:00     -185.938      510.238      -56.930      113.083      201.278       64.884    12787.676    40512.894     4209.982       17.782        2.876      543.061       70.983        0.017      348.656       28.508      861.115
07/17/2014  19:36:00     -202.604      493.692      -66.204      130.223      179.223       75.233    16957.966    32120.921     5660.050       17.194        2.737      533.648       80.152        0.023      348.709       28.601      861.074
07/17/2014  19:37:00     -119.549      536.280      -71.242       99.425      162.031       72.188     9885.296    26253.912     5211.140       17.415        2.068      549.444       64.398        0.014      348.602       28.414      861.012
07/17/2014  19:38:00     -187.356      320.395      -49.160      160.401      169.921       67.097    25728.332    28873.062     4501.962        9.963        2.955      371.153       55.823        0.023      348.548       28.320      860.966
07/17/2014  19:39:00     -288.318      206.357      -63.118      112.231      157.911       83.671    12595.693    24935.980     7000.806        8.710        2.227      354.557       63.596        0.032      348.503       28.243      860.963
07/17/2014  19:40:00     -245.847      256.265      -45.706      120.933      160.694       76.244    14624.851    25822.506     5813.144        8.722        2.313      355.123       68.119        0.037      348.447       28.147      861.002
07/17/2014  19:41:00     -195.988      221.810      -54.174      149.091      154.117       71.081    22228.076    23752.123     5052.536        7.078        2.552      295.991       60.321        0.042      348.428       28.115      861.003
07/17/2014  19:42:00     -222.344      321.660      -46.467      136.124      163.587       82.218    18529.751    26760.659     6759.774       10.355        2.603      391.027       68.480        0.031      348.361       27.998      860.984
07/17/2014  19:43:00     -187.486      161.286      -34.701      141.667       77.078       62.751    20069.669     5941.019     3937.701        4.615        1.497      247.314       63.362        0.066      348.385       28.041      860.965
07/17/2014  19:44:00     -240.886      137.671      -46.280      117.838      167.061       76.767    13885.838    27909.237     5893.096        6.340        2.384      277.452       63.329        0.052      348.491       28.222      860.975
07/17/2014  19:45:00     -233.696      104.176      -21.994      146.626      161.762       92.573    21499.283    26167.087     8569.682        6.108        2.812      255.865       75.419        0.087      348.499       28.236      861.002
07/17/2014  19:46:00     -359.338        3.367      -42.523      166.375      195.762       80.996    27680.533    38322.840     6560.301       10.174        3.628      359.354       69.613        0.038      348.534       28.295      860.996
07/17/2014  19:47:00     -410.244      -88.602      -29.026      198.213      197.380       89.053    39288.361    38959.030     7930.430       13.157        4.309      419.702       74.979        0.032      348.528       28.286      860.980
07/17/2014  19:48:00     -213.462      -35.820      -17.857      159.048      150.554       67.029    25296.336    22666.408     4492.928        4.980        2.623      216.447       53.198        0.060      348.534       28.296      860.993
07/17/2014  19:49:00     -225.617      110.013      -37.000      114.705      148.664       86.314    13157.278    22100.893     7450.049        5.353        2.135      251.009       79.363        0.100      348.547       28.319      861.002
07/17/2014  19:50:00     -299.305       66.650      -31.094      174.164      160.237       96.321    30332.992    25676.002     9277.801        8.013        3.264      306.636       88.396        0.083      348.593       28.399      860.997
07/17/2014  19:51:00     -338.594       11.988      -53.036      164.765      190.071       96.152    27147.523    36126.834     9245.241        9.505        3.626      338.807       81.076        0.057      348.621       28.448      860.967
07/17/2014  19:52:00     -383.131      -52.289      -56.845      202.377      169.024       83.622    40956.455    28569.224     6992.676       11.462        3.826      386.683       64.805        0.028      348.650       28.496      860.945
07/17/2014  19:53:00     -386.022      202.176      -55.430      170.171      210.235       87.679    28958.207    44198.722     7687.651       13.689        4.042      435.761       82.867        0.036      348.610       28.429      860.953
07/17/2014  19:54:00     -287.140       10.206       -6.619      192.066      189.385       85.061    36889.226    35866.502     7235.304        8.128        4.000      287.321       74.540        0.067      348.585       28.385      860.940
07/17/2014  19:55:00     -197.145      -13.621      -10.592      150.290      135.864       61.519    22587.114    18459.123     3784.616        4.199        2.242      197.615       52.597        0.071      348.564       28.348      860.966
07/17/2014  19:56:00     -372.091      -18.868      -24.250      163.909      238.868       99.288    26866.244    57057.834     9858.148       11.657        4.689      372.569       71.559        0.037      348.584       28.382      860.969
07/17/2014  19:57:00     -238.502        3.281        4.652      146.610      169.228       79.207    21494.499    28637.961     6273.727        5.665        2.820      238.525       71.211        0.089      348.562       28.345      860.975
07/17/2014  19:58:00     -200.524      -15.983      -23.518       96.378      118.615       57.045     9288.799    14069.629     3254.101        3.381        1.331      201.160       38.431        0.036      348.559       28.340      860.988
07/17/2014  19:59:00     -283.122      -72.263      -14.141      204.886      171.800       90.906    41978.428    29515.245     8263.819        8.265        3.988      292.199       76.866        0.069      348.584       28.382      860.969
07/17/2014  20:00:00     -445.387      -98.367      -18.405      195.398      140.460       81.005    38180.214    19728.965     6561.750       13.641        3.224      456.120       81.315        0.032      348.539       28.304      860.951
07/17/2014  20:01:00     -247.398      -35.839       -5.353      179.677      118.032       81.815    32283.841    13931.498     6693.732        5.770        2.645      249.980       83.548        0.112      348.517       28.267      860.938
07/17/2014  20:02:00     -167.120      -44.587       23.268      231.003      154.567       97.334    53362.311    23890.990     9473.872        5.858        4.336      172.966      114.325        0.437      348.489       28.219      860.907
07/17/2014  20:03:00     -248.360      -23.568        5.607      151.683      128.311       68.999    23007.610    16463.674     4760.873        5.324        2.212      249.476       72.347        0.084      348.520       28.272      860.964
07/17/2014  20:04:00     -160.784     -113.192       13.038      163.146       91.846       70.536    26616.710     8435.621     4975.323        3.942        2.001      196.632       96.051        0.239      348.526       28.283      860.997
07/17/2014  20:05:00     -233.809       -6.212        0.065      178.791      113.885       57.080    31966.301    12969.827     3258.090        5.144        2.410      233.892       54.305        0.054      348.514       28.263      861.004
07/17/2014  20:06:00     -204.901      -49.534       -5.372      152.664      119.584       71.688    23306.239    14300.393     5139.151        4.360        2.137      210.803       62.617        0.088      348.554       28.331      860.975
07/17/2014  20:07:00     -327.939      -44.981      -19.176      164.819      104.547       69.720    27165.168    10930.012     4860.848        7.644        2.148      331.009       73.052        0.049      348.595       28.402      860.959
07/17/2014  20:08:00     -104.030      -22.925       -1.895      122.174       89.787       45.767    14926.446     8061.774     2094.646        1.821        1.254      106.526       39.082        0.135      348.603       28.417      860.969
07/17/2014  20:09:00     -264.010        8.528       -7.160      111.861      100.243       54.358    12512.916    10048.582     2954.817        4.767        1.276      264.147       49.015        0.034      348.601       28.413      860.989
07/17/2014  20:10:00     -154.539      -56.754        1.744      134.155       75.925       43.414    17997.667     5764.569     1884.772        2.637        1.282      164.631       53.163        0.104      348.554       28.333      861.004
07/17/2014  20:11:00      -71.040     -114.345       13.857      119.272      137.299       56.413    14225.770    18851.023     3182.413        2.728        1.813      134.616       46.753        0.121      348.540       28.307      861.004
07/17/2014  20:12:00     -188.594      -64.517       -5.907       77.187       62.785       43.245     5957.881     3941.918     1870.151        2.577        0.588      199.324       33.721        0.029      348.568       28.357      861.036
07/17/2014  20:13:00      -96.649      -81.642        8.190      131.701       76.650       51.600    17345.026     5875.201     2662.576        2.097        1.294      126.516       62.518        0.244      348.495       28.230      861.045
07/17/2014  20:14:00     -182.186      -43.899       -2.450       99.590       51.073       39.002     9918.134     2608.437     1521.145        2.458        0.702      187.400       48.194        0.066      348.482       28.208      861.060
07/17/2014  20:15:00     -107.458      -60.333       -8.678       84.172       64.221       44.252     7084.842     4124.381     1958.211        1.421        0.658      123.237       36.881        0.090      348.473       28.194      861.052
07/17/2014  20:16:00     -209.489     -130.222       -2.191      120.108       78.968       46.784    14426.026     6235.999     2188.756        4.184        1.143      246.664       49.686        0.041      348.430       28.119      861.059
07/17/2014  20:17:00      -73.182      -74.244       23.179      104.749       79.173       52.090    10972.263     6268.436     2713.407        1.568        0.998      104.249       60.753        0.340      348.317       27.923      861.004
07/17/2014  20:18:00     -296.636     -177.485       -2.235      201.421      139.798       74.045    40570.535    19543.558     5482.675        9.253        3.280      345.679       86.810        0.063      348.187       27.698      860.993
07/17/2014  20:19:00     -401.699     -227.144       -7.381      180.987      129.126       84.121    32756.363    16673.566     7076.278       13.475        2.825      461.472       67.982        0.022      348.203       27.724      860.972
07/17/2014  20:20:00     -312.689     -186.376       -7.204      183.314      126.577       72.096    33604.092    16021.687     5197.832        9.368        2.741      364.020       92.149        0.064      348.229       27.768      860.956
07/17/2014  20:21:00     -376.004     -228.999       -2.406      205.733      132.908       83.215    42326.132    17664.447     6924.691       13.036        3.346      440.249       94.215        0.046      348.246       27.798      860.949
07/17/2014  20:22:00     -259.476     -143.139       25.252      192.339      139.550       90.397    36994.230    19474.326     8171.553        7.653        3.232      296.339       89.219        0.091      348.218       27.750      860.925
07/17/2014  20:23:00     -357.109     -202.712       -0.480      191.588      160.192       81.725    36705.862    25661.332     6678.991       11.882        3.452      410.633       87.173        0.045      348.225       27.762      860.928
07/17/2014  20:24:00     -321.972     -196.667        7.516      219.367      142.482       81.694    48121.803    20301.196     6673.957       10.873        3.755      377.285       90.342        0.057      348.225       27.763      860.907
07/17/2014  20:25:00     -337.123     -264.492       12.976      193.843      127.185       86.780    37575.195    16176.103     7530.689       12.252        3.064      428.495       72.988        0.029      348.252       27.808      860.890
07/17/2014  20:26:00     -183.270     -214.275       -1.319      101.824      144.288       59.515    10368.147    20818.893     3542.043        5.711        1.736      281.960       42.291        0.022      348.214       27.744      860.908
07/17/2014  20:27:00     -239.163     -173.049        0.866      143.237      102.187       60.259    20516.934    10442.248     3631.169        6.086        1.730      295.203       57.996        0.039      348.146       27.627      860.897
07/17/2014  20:28:00     -161.690     -156.557       11.079      123.833      102.161       63.134    15334.657    10436.845     3985.930        4.026        1.488      225.063       56.163        0.062      348.124       27.590      860.908
07/17/2014  20:29:00     -332.076     -210.117       -5.440      131.162      128.890       69.989    17203.537    16612.669     4898.434        9.658        1.936      392.968       67.011        0.029      348.128       27.595      860.921
07/17/2014  20:30:00     -381.206     -109.889      -16.128      149.752       93.027       63.711    22425.525     8654.051     4059.037        9.639        1.757      396.729       65.864        0.028      348.123       27.585      860.924
07/17/2014  20:31:00     -185.200     -108.329        4.220      104.108      120.517       64.404    10838.465    14524.390     4147.933        3.778        1.476      214.556       61.830        0.083      348.113       27.569      860.918
07/17/2014  20:32:00     -197.076     -127.759       -8.536       88.612       61.293       48.905     7852.093     3756.802     2391.730        3.461        0.700      234.865       47.656        0.041      348.110       27.564      860.902
07/17/2014  20:33:00     -279.297     -166.141      -13.678      122.461       96.637       49.070    14996.635     9338.696     2407.875        6.626        1.337      324.976       57.537        0.031      348.116       27.575      860.861
07/17/2014  20:34:00     -191.166      -91.738        9.255       94.045       75.131       42.866     8844.518     5644.616     1837.528        3.068        0.816      212.038       41.259        0.038      348.119       27.579      860.829
07/17/2014  20:35:00     -122.641     -145.004        4.953       78.343       80.124       47.725     6137.658     6419.909     2277.659        2.546        0.742      189.913       35.600        0.035      348.150       27.634      860.811
07/17/2014  20:36:00     -183.201      -82.121       -0.915       73.244       73.087       36.339     5364.641     5341.716     1320.540        2.616        0.601      200.765       23.886        0.014      348.206       27.729      860.779
07/17/2014  20:37:00     -167.565      -77.553       -7.862       68.606       62.450       40.067     4706.780     3899.992     1605.379        2.218        0.511      184.642       36.039        0.038      348.222       27.758      860.752
07/17/2014  20:38:00      -83.622       -5.928        6.564       76.510       47.823       30.799     5853.718     2287.060      948.565        0.808        0.454       83.832       37.209        0.197      348.207       27.734      860.737
07/17/2014  20:39:00     -140.125      -74.270      -10.151       74.428       70.451       34.821     5539.487     4963.274     1212.523        1.848        0.586      158.591       33.269        0.044      348.404       28.071      860.709
07/17/2014  20:40:00      -69.508      -71.576       16.866       51.628       73.847       34.576     2665.451     5453.324     1195.521        0.977        0.466       99.772       20.259        0.041      348.439       28.136      860.666
07/17/2014  20:41:00      -65.924       -7.990       11.263       47.446       32.120       24.749     2251.136     1031.688      612.502        0.422        0.195       66.406       26.021        0.154      348.275       27.851      860.656
07/17/2014  20:42:00     -126.415      -63.526       -0.789       59.355       50.250       24.291     3522.972     2525.063      590.048        1.333        0.332      141.479       28.185        0.040      348.229       27.771      860.654
07/17/2014  20:43:00     -146.635      -64.998        0.624       69.717       49.398       33.067     4860.527     2440.171     1093.434        1.706        0.420      160.395       27.569        0.030      348.224       27.763      860.650
07/17/2014  20:44:00     -150.711      -52.091       -0.148       77.914       52.638       32.680     6070.552     2770.738     1067.964        1.767        0.495      159.459       36.194        0.052      348.215       27.747      860.646
07/17/2014  20:45:00     -201.425     -104.916      -17.034       67.996       66.312       41.154     4623.411     4397.324     1693.667        3.129        0.536      227.111       38.185        0.028      348.406       28.075      860.623
07/17/2014  20:46:00     -128.067      -22.904       -3.368       62.231       66.158       33.844     3872.758     4376.884     1145.387        1.316        0.470      130.099       37.603        0.084      348.286       27.872      860.610
07/17/2014  20:47:00      -51.795      -28.205       14.940       53.979       43.254       28.097     2913.752     1870.911      789.465        0.464        0.279       58.976       26.983        0.209      348.253       27.815      860.600
07/17/2014  20:48:00      -78.687     -126.792       11.826       78.909      107.530       34.484     6226.607    11562.741     1189.116        2.069        0.949      149.224       35.368        0.056      348.323       27.933      860.594
07/17/2014  20:49:00     -116.463     -232.195       -2.663       60.794       87.775       38.979     3695.917     7704.462     1519.337        4.020        0.646      259.766       13.781        0.003      348.349       27.975      860.556
07/17/2014  20:50:00     -246.905     -138.019       -8.291      103.132       82.222       45.786    10636.303     6760.406     2096.370        4.978        0.975      282.863       48.829        0.030      348.300       27.891      860.530
07/17/2014  20:51:00     -182.645     -102.245       -3.960      134.197       64.134       42.991    18008.955     4113.153     1848.216        3.389        1.199      209.317       63.767        0.093      348.237       27.782      860.505
07/17/2014  20:52:00     -182.399      -94.704       -4.884       44.608       63.794       33.659     1989.859     4069.622     1132.942        2.473        0.360      205.519       28.020        0.019      348.229       27.769      860.494
07/17/2014  20:53:00      -63.903      -25.858        4.713       73.831       57.990       25.513     5450.988     3362.832      650.902        0.712        0.473       68.936       27.162        0.155      348.136       27.612      860.473
07/17/2014  20:54:00      -87.871      -22.833        3.757       51.656       43.151       26.757     2668.297     1861.993      715.912        0.675        0.262       90.789       25.078        0.076      348.135       27.611      860.448
07/17/2014  20:55:00     -245.831        0.900      -20.958       79.209       50.625       41.115     6274.012     2562.894     1690.427        3.570        0.526      245.833       39.023        0.025      348.196       27.713      860.426
07/17/2014  20:56:00     -135.661      -87.457        2.950       78.859       49.068       35.202     6218.763     2407.636     1239.165        1.796        0.493      161.409       39.343        0.059      348.162       27.656      860.392
07/17/2014  20:57:00      -81.085      -32.469        6.269       66.598       59.398       27.235     4435.303     3528.175      741.748        0.819        0.435       87.345       25.389        0.084      348.121       27.588      860.366
07/17/2014  20:58:00      -86.585      -59.719        6.181       60.808       69.131       28.926     3697.640     4779.159      836.736        1.021        0.466      105.182       24.478        0.054      348.144       27.626      860.345
07/17/2014  20:59:00     -119.460      -22.952       -0.855       70.517       54.329       32.290     4972.627     2951.692     1042.639        1.188        0.448      121.645       35.935        0.087      348.151       27.639      860.327
07/17/2014  21:00:00      -55.940      -20.240        0.992       40.554       36.221       24.787     1644.622     1311.933      614.391        0.355        0.179       59.489       18.999        0.102      348.135       27.609      860.312
07/17/2014  21:01:00       -9.372       -2.388       14.881       37.059       26.076       16.895     1373.384      679.969      285.428        0.133        0.117        9.672       16.015        2.742      348.023       27.417      860.293
07/17/2014  21:02:00      -89.052       14.717       -2.506       30.010       26.677       14.085      900.605      711.677      198.387        0.498        0.091       90.260       11.981        0.018      348.141       27.620      860.290
07/17/2014  21:03:00      -27.605       -0.125        9.683       22.514       18.868       13.652      506.881      355.983      186.378        0.095        0.052       27.605       12.855        0.217      348.012       27.398      860.272
07/17/2014  21:04:00       10.966       -6.199       11.873       16.856       11.222       11.616      284.113      125.924      134.935        0.042        0.027       12.597        7.155        0.323      347.795       27.024      860.259
07/17/2014  21:05:00       37.036        8.855        5.840       12.836       14.816       14.244      164.751      219.519      202.903        0.104        0.029       38.080        8.084        0.045      347.593       26.673      860.257
07/17/2014  21:06:00       14.932        3.374       12.109       14.258       18.328       15.596      203.300      335.928      243.228        0.058        0.039       15.309        9.484        0.384      347.572       26.637      860.253
07/17/2014  21:07:00       29.649        0.112       -9.799       13.079       10.334       11.795      171.053      106.785      139.122        0.070        0.021       29.649        7.236        0.060      347.819       27.065      860.237
07/17/2014  21:08:00       13.713        4.599        2.411       16.312       29.486       18.897      266.088      869.434      357.088        0.085        0.075       14.464        9.246        0.409      347.849       27.116      860.212
07/17/2014  21:09:00       30.019       35.581       -1.510       20.208       14.310       22.777      408.359      204.769      518.793        0.165        0.057       46.552       12.332        0.070      347.612       26.708      860.182
07/17/2014  21:10:00       27.667       13.943        7.137       15.434       17.052       21.626      238.203      290.775      467.687        0.100        0.050       30.981       13.975        0.203      347.437       26.405      860.152
07/17/2014  21:11:00       53.097       11.388        4.280       20.722       15.649       12.616      429.413      244.895      159.175        0.190        0.042       54.304        4.070        0.006      347.295       26.161      860.118
07/17/2014  21:12:00       79.073       27.518        8.368       27.024       24.052       19.581      730.323      578.482      383.415        0.439        0.085       83.724       13.267        0.025      347.545       26.591      860.085
07/17/2014  21:13:00       86.442       33.076       15.981       50.448       37.633       24.289     2545.034     1416.244      589.977        0.669        0.228       92.553       18.893        0.042      347.719       26.892      860.060
07/17/2014  21:14:00      102.844       33.695        8.180       45.026       35.397       24.979     2027.348     1252.966      623.958        0.784        0.195      108.223       17.280        0.025      347.807       27.044      860.029
07/17/2014  21:15:00      112.426       46.900        4.962       42.256       38.404       24.119     1785.610     1474.892      581.717        0.935        0.192      121.817       16.007        0.017      347.760       26.964      859.994
07/17/2014  21:16:00      138.026       64.141        7.519       39.970       27.896       26.983     1597.637      778.181      728.071        1.316        0.155      152.202       19.122        0.016      347.766       26.973      859.977
07/17/2014  21:17:00      121.878       69.281       13.314       44.291       30.339       24.998     1961.691      920.467      624.912        1.167        0.175      140.193       22.238        0.025      347.766       26.974      859.975
07/17/2014  21:18:00        8.112       16.936        2.780       64.829       34.549       19.343     4202.829     1193.615      374.141        0.306        0.289       18.779       14.639        0.608      347.699       26.856      860.012
07/17/2014  21:19:00      -86.753      -20.123      -10.628       37.154       16.055       14.195     1380.398      257.761      201.510        0.494        0.092       89.056       14.540        0.027      347.691       26.844      860.090
07/17/2014  21:20:00     -199.075      -83.465       -6.665       50.731       48.121       27.191     2573.643     2315.646      739.328        2.613        0.281      215.864       18.133        0.007      347.635       26.744      860.194
07/17/2014  21:21:00     -255.899     -108.262       -6.507       74.681       56.654       31.301     5577.256     3209.714      979.734        4.351        0.488      277.858       11.825        0.002      347.856       27.124      860.305
07/17/2014  21:22:00     -279.117      -70.284       -5.579       96.537       74.976       47.068     9319.370     5621.408     2215.419        5.001        0.858      287.830       47.239        0.027      347.788       27.007      860.406
07/17/2014  21:23:00     -202.289      -23.867        1.938      108.140       51.584       45.860    11694.203     2660.884     2103.179        2.897        0.823      203.692       53.377        0.069      347.846       27.108      860.500
07/17/2014  21:24:00     -104.840      -24.383       -3.726       44.578       59.789       31.181     1987.209     3574.696      972.230        0.907        0.327      107.638       27.381        0.065      347.836       27.093      860.555
07/17/2014  21:25:00      -61.728      -24.281       -2.812       67.855       33.141       20.713     4604.343     1098.318      429.034        0.527        0.307       66.332       21.459        0.105      347.875       27.161      860.592
07/17/2014  21:26:00      -66.516      -35.983        9.508       68.408       48.132       34.199     4679.676     2316.715     1169.602        0.699        0.408       75.625       35.961        0.226      347.889       27.184      860.626
07/17/2014  21:27:00      -21.771     -101.371       -8.734       55.602       59.351       34.432     3091.622     3522.547     1185.593        0.931        0.390      103.683       13.983        0.018      347.897       27.198      860.650
07/17/2014  21:28:00     -117.846     -100.547        7.641       69.955       67.072       37.035     4893.693     4498.593     1371.579        1.741        0.538      154.911       39.043        0.064      347.915       27.230      860.692
07/17/2014  21:29:00      -67.544      -74.309       24.152       79.392       88.428       45.667     6303.133     7819.522     2085.454        1.343        0.810      100.419       45.130        0.202      347.905       27.213      860.747
07/17/2014  21:30:00     -111.080      -83.730        0.226       76.036       63.797       34.519     5781.469     4070.043     1191.576        1.519        0.552      139.103       38.329        0.076      347.879       27.165      860.789
07/17/2014  21:31:00     -260.786     -119.829      -10.962      165.407      103.773       47.637    27359.524    10768.863     2269.255        6.144        2.020      286.999       51.007        0.032      347.904       27.209      860.811
07/17/2014  21:32:00     -134.074      -49.762       -1.399       84.236       99.617       51.224     7095.692     9923.581     2623.860        2.004        0.982      143.011       48.027        0.113      347.892       27.188      860.832
07/17/2014  21:33:00      -73.112      -20.586       -5.059       77.776       69.518       50.002     6049.062     4832.799     2500.209        0.959        0.669       75.955       36.605        0.232      347.913       27.226      860.848
07/17/2014  21:34:00      -26.293       10.982       29.026       58.190       66.155       47.144     3386.124     4376.516     2222.554        0.582        0.499       28.495       34.510        1.467      347.881       27.170      860.868
07/17/2014  21:35:00       -3.204      -32.680       17.209       76.677       44.719       37.366     5879.404     1999.758     1396.214        0.532        0.464       32.836       43.851        1.783      347.827       27.078      860.907
07/17/2014  21:36:00     -170.517      -54.913       -6.538       86.844       47.588       48.335     7541.923     2264.619     2336.285        2.214        0.607      179.141       48.184        0.072      347.940       27.271      860.940
07/17/2014  21:37:00      -61.740      -79.943       10.158       54.781       51.738       23.561     3001.008     2676.786      555.127        0.827        0.312      101.009       28.589        0.080      347.942       27.277      860.968
07/17/2014  21:38:00      -35.273      -70.312        5.839       39.721       32.177       19.910     1577.797     1035.345      396.394        0.462        0.150       78.664       20.430        0.067      347.947       27.282      860.991
07/17/2014  21:39:00       18.366      -33.527       26.472       36.293       23.417       19.179     1317.207      548.350      367.846        0.220        0.112       38.228        8.443        0.049      347.839       27.101      861.018
07/17/2014  21:40:00      -48.488       -0.063        4.440       39.324       22.487       20.904     1546.361      505.644      436.994        0.243        0.124       48.488       26.506        0.299      347.695       26.849      861.045
07/17/2014  21:41:00      -50.783      -30.157        5.504       33.945       35.557       20.085     1152.274     1264.330      403.417        0.317        0.141       59.062       16.817        0.081      347.911       27.221      861.088
07/17/2014  21:42:00     -107.388      -46.081       -5.735       47.897       35.925       17.536     2294.168     1290.634      307.504        0.879        0.195      116.857       18.684        0.026      347.995       27.367      861.128
07/17/2014  21:43:00      -14.217        4.773        7.965       29.795       14.886       14.215      887.741      221.595      202.059        0.080        0.066       14.997       10.211        0.464      347.800       27.031      861.149
07/17/2014  21:44:00       15.026       -6.476       -5.974       19.506       21.263       15.650      380.470      452.116      244.918        0.069        0.054       16.362       10.705        0.428      347.652       26.775      861.167
07/17/2014  21:45:00      -19.857      -65.948        8.258       32.416       31.687       23.800     1050.765     1004.036      566.444        0.372        0.131       68.872       20.813        0.091      347.997       27.370      861.162
07/17/2014  21:46:00      -46.668      -68.903      -16.573       33.249       26.944       20.223     1105.508      725.972      408.954        0.472        0.112       83.220       15.259        0.034      348.000       27.375      861.165
07/17/2014  21:47:00      -20.770       -3.027       -2.254       21.030       27.919       19.159      442.265      779.450      367.066        0.102        0.079       20.989        7.765        0.137      347.854       27.127      861.167
07/17/2014  21:48:00        8.525      -38.032       20.048       27.432       49.409       30.971      752.534     2441.291      959.187        0.304        0.208       38.976       21.640        0.308      347.672       26.812      861.154
07/17/2014  21:49:00       94.917     -128.445      -31.366       44.649       49.755       28.368     1993.508     2475.590      804.719        1.588        0.264      159.711       17.122        0.011      347.886       27.179      861.164
07/17/2014  21:50:00       27.669      -41.025        8.581       34.807       48.948       35.764     1211.507     2395.882     1279.080        0.370        0.244       49.484       37.690        0.580      347.769       26.977      861.183
07/17/2014  21:51:00       21.114       -3.637       24.670       29.699       27.660       26.055      882.048      765.070      678.870        0.170        0.116       21.425       18.461        0.742      347.625       26.730      861.197
07/17/2014  21:52:00       -3.056      -50.037      -11.991       22.680       35.083       21.220      514.405     1230.816      450.285        0.243        0.110       50.130       17.625        0.124      347.780       26.998      861.238
07/17/2014  21:53:00       -2.592      -15.413        5.765       21.616       18.454       18.056      467.242      340.550      326.004        0.071        0.057       15.630       13.797        0.779      347.664       26.796      861.281
07/17/2014  21:54:00       -8.051       -3.395        5.759       22.575       18.648        9.475      509.653      347.758       89.783        0.053        0.047        8.738        5.873        0.452      347.629       26.737      861.306
07/17/2014  21:55:00       -9.117       -9.549      -11.010       13.349       13.725        6.186      178.197      188.379       38.264        0.035        0.020       13.202        7.782        0.347      347.680       26.827      861.326
07/17/2014  21:56:00      -42.534      -15.233       -7.181       20.314       13.328       16.032      412.644      177.642      257.025        0.147        0.042       45.180        9.883        0.048      347.799       27.030      861.347
07/17/2014  21:57:00      -23.286      -64.743        4.660       17.955       38.602       13.880      322.369     1490.082      192.649        0.338        0.100       68.804       17.226        0.063      347.817       27.059      861.364
07/17/2014  21:58:00      -26.993      -69.574        3.491       12.718       21.200       11.242      161.746      449.453      126.387        0.316        0.037       74.627        9.529        0.016      347.839       27.099      861.364
07/17/2014  21:59:00      -11.239      -30.756        6.440       19.472       17.372       12.199      379.143      301.772      148.826        0.097        0.041       32.746       10.801        0.109      347.748       26.944      861.352
07/17/2014  22:00:00       14.264       -6.231        6.580       13.363        8.459        9.116      178.569       71.557       83.096        0.031        0.017       15.566        6.304        0.164      347.597       26.680      861.343
07/17/2014  22:01:00       12.592      -17.464       -0.005       23.786       11.765       11.353      565.792      138.425      128.889        0.065        0.042       21.530        7.668        0.127      347.452       26.431      861.326
07/17/2014  22:02:00       10.516      -43.389        0.225       27.155       19.781       12.220      737.418      391.293      149.327        0.164        0.064       44.645        4.850        0.012      347.563       26.623      861.305
07/17/2014  22:03:00       14.050      -61.858       -3.407       20.600       23.019       18.650      424.345      529.861      347.816        0.267        0.065       63.433        9.526        0.023      347.692       26.847      861.286
07/17/2014  22:04:00       27.807      -76.778       -9.690       20.530       13.978       17.467      421.488      195.388      305.107        0.384        0.046       81.659        5.238        0.004      347.694       26.847      861.272
07/17/2014  22:05:00       -0.785      -50.932       15.228       27.024       29.766       19.928      730.297      886.011      397.123        0.242        0.101       50.938       19.951        0.153      347.673       26.812      861.261
07/17/2014  22:06:00      -57.849      -72.553       -2.603       28.573       36.137       16.450      816.439     1305.870      270.606        0.550        0.120       92.793        7.357        0.006      347.809       27.047      861.246
07/17/2014  22:07:00      -48.410     -134.662       -6.069       24.125       38.462       19.178      582.000     1479.319      367.782        1.147        0.121      143.099       18.528        0.017      347.896       27.197      861.225
07/17/2014  22:08:00      -25.105        7.099        5.612       21.225       50.632       18.019      450.509     2563.584      324.687        0.202        0.167       26.090       16.426        0.396      347.707       26.870      861.197
07/17/2014  22:09:00      -20.950       14.672        6.956       42.336       19.280       16.010     1792.344      371.728      256.320        0.156        0.121       25.577       17.445        0.465      347.526       26.558      861.186
07/17/2014  22:10:00      -59.025        2.950       -0.523       31.705       23.390       15.320     1005.233      547.109      234.695        0.264        0.089       59.098       13.740        0.054      347.584       26.660      861.163
07/17/2014  22:11:00      -34.290      -19.232        4.689       35.652       23.504       18.567     1271.085      552.428      344.728        0.187        0.108       39.316       16.207        0.170      347.450       26.428      861.155
07/17/2014  22:12:00      -95.035     -106.556       -0.831       43.370       49.542       24.173     1880.979     2454.443      584.353        1.265        0.246      142.778       18.379        0.017      347.735       26.920      861.172
07/17/2014  22:13:00     -103.392      -74.861        8.541       59.249       43.462       34.326     3510.469     1888.965     1178.281        1.147        0.329      127.648       34.734        0.074      347.680       26.823      861.204
07/17/2014  22:14:00     -110.545      -56.767       -0.496       54.799       47.776       26.278     3002.892     2282.521      690.548        1.071        0.299      124.269       21.612        0.030      347.731       26.912      861.234
07/17/2014  22:15:00     -132.631      -90.150       -7.007       56.019       57.670       27.239     3138.087     3325.808      741.978        1.649        0.360      160.368       26.542        0.027      347.746       26.939      861.256
07/17/2014  22:16:00      -88.937     -102.678        0.602       62.375       68.772       38.171     3890.625     4729.610     1457.029        1.426        0.504      135.840       35.325        0.068      347.661       26.791      861.261
07/17/2014  22:17:00     -130.374      -31.946       -4.627       57.268       36.614       29.002     3279.662     1340.549      841.097        1.175        0.273      134.230       27.412        0.042      347.600       26.687      861.252
07/17/2014  22:18:00     -161.771      -50.274       -8.500       48.038       66.153       31.018     2307.657     4376.241      962.097        1.821        0.382      169.403       25.261        0.022      347.516       26.540      861.246
07/17/2014  22:19:00     -149.017      -59.321        2.459       71.302       68.660       45.491     5083.975     4714.263     2069.462        1.880        0.593      160.390       46.328        0.083      347.588       26.664      861.239
07/17/2014  22:20:00     -213.572      -31.348       -6.615       66.125       69.931       44.963     4372.536     4890.326     2021.672        2.896        0.564      215.860       41.947        0.038      347.582       26.653      861.228
07/17/2014  22:21:00     -179.745     -111.566        3.915       80.347       77.829       40.518     6455.630     6057.301     1641.733        2.946        0.708      211.554       39.145        0.034      347.718       26.886      861.214
07/17/2014  22:22:00     -198.781     -160.922      -13.092       59.867       63.304       37.977     3584.034     4007.384     1442.241        3.731        0.452      255.753       29.601        0.013      347.785       27.002      861.187
07/17/2014  22:23:00     -159.604      -70.218        8.711       74.028       64.203       38.667     5480.113     4122.046     1495.151        2.079        0.555      174.367       34.666        0.040      347.663       26.793      861.171
07/17/2014  22:24:00     -261.165     -202.679       -7.276      136.331      110.413       71.173    18586.100    12191.006     5065.560        7.258        1.792      330.584       65.306        0.039      347.643       26.756      861.157
07/17/2014  22:25:00     -219.451     -120.809       -4.239      103.153       95.065       54.753    10640.562     9037.356     2997.852        4.272        1.134      250.507       50.335        0.040      347.591       26.668      861.153
07/17/2014  22:26:00     -170.145      -32.236       -2.099      106.894       85.167       49.955    11426.264     7253.393     2495.462        2.558        1.059      173.172       50.686        0.086      347.562       26.619      861.152
07/17/2014  22:27:00     -151.377      -92.821        7.728      120.053       85.858       59.714    14412.606     7371.656     3565.780        2.847        1.268      177.569       63.845        0.129      347.555       26.606      861.141
07/17/2014  22:28:00     -207.118      -86.523       -0.544      112.518       90.664       55.503    12660.287     8219.977     3080.589        3.717        1.198      224.465       65.102        0.084      347.574       26.638      861.130
07/17/2014  22:29:00     -131.856     -114.147        9.931      114.786      111.580       62.200    13175.883    12450.183     3868.833        3.000        1.475      174.400       58.822        0.114      347.516       26.540      861.114
07/17/2014  22:30:00     -170.713     -124.029        5.534      144.600      111.025       66.700    20909.017    12326.455     4448.943        4.111        1.884      211.012       70.208        0.111      347.545       26.591      861.102
07/17/2014  22:31:00     -225.704     -115.115        6.296      143.546       95.833       60.469    20605.477     9183.881     3656.549        4.883        1.672      253.364       72.559        0.082      347.564       26.623      861.092
07/17/2014  22:32:00     -271.599     -118.411        1.038      131.895       91.485       59.571    17396.218     8369.440     3548.751        5.855        1.466      296.289       63.560        0.046      347.524       26.553      861.086
07/17/2014  22:33:00     -218.603     -134.341        6.828      129.249      116.589       59.485    16705.359    13593.044     3538.458        4.985        1.692      256.583       67.613        0.069      347.504       26.520      861.097
07/17/2014  22:34:00     -222.384     -122.514      -15.591       99.855       61.476       42.391     9971.058     3779.328     1796.971        4.012        0.777      253.898       49.416        0.038      347.513       26.531      861.101
07/17/2014  22:35:00     -157.075     -111.052        2.407       86.812       96.022       43.711     7536.324     9220.240     1910.687        2.784        0.933      192.367       49.489        0.066      347.438       26.405      861.095
07/17/2014  22:36:00     -183.249     -111.296        6.175      100.607       58.443       37.748    10121.797     3415.567     1424.938        3.048        0.748      214.400       37.812        0.031      347.430       26.390      861.079
07/17/2014  22:37:00     -116.650      -68.179       11.116       77.166       52.253       34.473     5954.617     2730.403     1188.382        1.412        0.494      135.113       35.632        0.070      347.368       26.286      861.085
07/17/2014  22:38:00      -45.205     -103.613        7.359       60.416       54.683       30.610     3650.045     2990.177      936.985        1.020        0.379      113.045       18.711        0.027      347.358       26.270      861.083
07/17/2014  22:39:00     -190.125     -111.335       -0.638       80.726       72.462       45.122     6516.702     5250.698     2035.969        3.117        0.690      220.324       44.411        0.041      347.359       26.267      861.059
07/17/2014  22:40:00     -140.052      -94.658        4.504       89.044       62.418       39.792     7928.901     3896.067     1583.373        2.100        0.670      169.040       43.286        0.066      347.364       26.278      861.042
07/17/2014  22:41:00     -127.085     -179.170       -8.153       90.354       58.156       37.174     8163.882     3382.086     1381.913        3.062        0.646      219.665       44.306        0.041      347.398       26.334      861.030
07/17/2014  22:42:00      -55.683      -60.718        5.621       77.647       56.143       28.411     6028.981     3152.023      807.207        0.840        0.499       82.385       35.558        0.186      347.362       26.275      861.023
07/17/2014  22:43:00      -59.103      -35.710       12.097       76.851       48.011       33.017     5906.104     2305.043     1090.096        0.711        0.465       69.054       38.279        0.307      347.316       26.196      861.014
07/17/2014  22:44:00     -127.239      -52.780       -7.344       47.521       44.880       30.180     2258.198     2014.256      910.859        1.211        0.259      137.752       26.938        0.038      347.352       26.257      861.018
07/17/2014  22:45:00      -27.586      -24.144        0.730       23.264       23.277       13.263      541.225      541.830      175.901        0.130        0.063       36.659       10.493        0.082      347.269       26.115      861.033
07/17/2014  22:46:00      -51.724      -35.317       -4.515       40.509       35.305       17.352     1641.015     1246.437      301.101        0.357        0.159       62.631       16.182        0.067      347.356       26.267      861.030
07/17/2014  22:47:00      -30.425      -43.772        3.193       36.489       23.909       15.927     1331.438      571.642      253.654        0.250        0.108       53.307       16.449        0.095      347.271       26.121      861.022
07/17/2014  22:48:00      -23.778        3.649        5.827       28.144       24.696       13.965      792.082      609.884      195.016        0.110        0.080       24.057        9.957        0.171      347.125       25.868      861.031
07/17/2014  22:49:00      -69.777       12.640       -0.894       30.643       25.334       18.564      938.996      641.834      344.610        0.348        0.096       70.913       14.635        0.043      347.226       26.043      861.024
07/17/2014  22:50:00      -51.484        2.013        2.493       28.141       22.777       15.565      791.889      518.806      242.273        0.211        0.078       51.523       12.086        0.055      347.206       26.008      861.024
07/17/2014  22:51:00      -45.376      -32.060        6.607       51.875       33.133       28.228     2691.006     1097.783      796.803        0.386        0.229       55.559       25.561        0.212      347.236       26.059      861.018
07/17/2014  22:52:00      -89.076        0.656        3.306       47.747       44.933       23.190     2279.787     2018.997      537.763        0.639        0.242       89.078       11.726        0.017      347.200       25.998      861.029
07/17/2014  22:53:00      -26.249       -3.585        6.468       42.635       26.339       16.603     1817.720      693.717      275.651        0.176        0.139       26.492       13.467        0.258      347.124       25.868      861.035
07/17/2014  22:54:00      -81.083     -110.746        0.604       55.879       72.878       34.851     3122.447     5311.198     1214.559        1.424        0.482      137.256       37.777        0.076      347.190       25.979      861.051
07/17/2014  22:55:00     -135.238      -60.402      -13.682       60.514       42.024       31.262     3661.927     1766.043      977.326        1.426        0.320      148.114       32.542        0.048      347.200       25.996      861.051
07/17/2014  22:56:00      -43.863      -19.663       10.352       49.919       34.106       21.492     2491.896     1163.197      461.915        0.327        0.206       48.069       18.329        0.145      347.117       25.854      861.055
07/17/2014  22:57:00      -47.383      -35.013        1.172       35.668       17.473       14.443     1272.199      305.322      208.610        0.263        0.089       58.915        5.371        0.008      347.159       25.924      861.057
07/17/2014  22:58:00      -29.846      -43.965        3.603       32.229       46.219       22.537     1038.681     2136.232      507.897        0.326        0.184       53.139       22.886        0.185      347.171       25.946      861.059
07/17/2014  22:59:00     -104.837      -27.688       -5.171       34.027       27.741       18.265     1157.818      769.555      333.601        0.702        0.113      108.432       12.934        0.014      347.131       25.880      861.048
07/17/2014  23:00:00      -90.352      -42.301        1.478       43.375       55.021       20.994     1881.373     3027.365      440.752        0.765        0.267       99.764       20.041        0.040      347.110       25.843      861.041
07/17/2014  23:01:00      -67.240      -69.992       -7.742       41.060       54.218       22.707     1685.930     2939.576      515.610        0.731        0.257       97.057       15.675        0.026      347.144       25.902      861.042
07/17/2014  23:02:00      -69.266      -53.600        3.260       66.516       45.648       31.551     4424.358     2083.730      995.445        0.759        0.375       87.583       33.150        0.143      347.049       25.737      861.044
07/17/2014  23:03:00     -101.559     -130.943        0.996       68.747       47.624       31.650     4726.116     2268.055     1001.702        1.773        0.400      165.712       30.848        0.035      347.094       25.814      861.045
07/17/2014  23:04:00      -98.138      -86.711        4.268       55.764       53.487       33.787     3109.601     2860.829     1141.593        1.214        0.356      130.958       26.826        0.042      347.032       25.708      861.041
07/17/2014  23:05:00     -151.667      -93.375       -7.933       61.964       49.399       30.320     3839.594     2440.300      919.311        1.949        0.360      178.106       29.252        0.027      347.039       25.718      861.037
07/17/2014  23:06:00     -128.278     -140.070       -4.213       88.089       78.927       56.605     7759.647     6229.535     3204.081        2.664        0.860      189.934       53.464        0.079      347.011       25.669      861.046
07/17/2014  23:07:00     -158.157      -82.821        2.191       91.897       69.075       40.785     8445.148     4771.302     1663.381        2.338        0.744      178.530       42.731        0.057      346.976       25.608      861.067
07/17/2014  23:08:00     -158.592     -122.660        8.783       98.219       86.358       51.063     9646.974     7457.763     2607.477        2.999        0.986      200.492       55.548        0.077      346.933       25.533      861.082
07/17/2014  23:09:00     -208.642     -112.809       -1.729       82.890       64.407       44.244     6870.771     4148.201     1957.533        3.462        0.649      237.187       49.525        0.044      346.969       25.595      861.097
07/17/2014  23:10:00     -143.016      -67.719       -2.495       94.278       58.530       27.348     8888.298     3425.787      747.940        1.905        0.653      158.238       30.247        0.037      346.968       25.597      861.121
07/17/2014  23:11:00     -157.612     -131.495        1.704       72.859       47.789       37.708     5308.402     2283.769     1421.868        2.557        0.451      205.262       36.816        0.032      346.948       25.560      861.138
07/17/2014  23:12:00     -171.211     -116.901      -10.978       74.171       60.549       39.545     5501.328     3666.204     1563.826        2.691        0.537      207.314       41.543        0.040      346.957       25.575      861.149
07/17/2014  23:13:00     -107.297     -104.524        5.973       71.938       62.595       43.190     5175.111     3918.124     1865.357        1.671        0.548      149.793       46.790        0.098      346.930       25.532      861.161
07/17/2014  23:14:00     -162.534      -89.708       -9.087       89.554       44.721       42.661     8019.871     1999.980     1819.926        2.319        0.592      185.647       48.250        0.068      346.912       25.499      861.177
07/17/2014  23:15:00     -130.911      -90.867        1.571       56.289       52.832       33.345     3168.407     2791.186     1111.913        1.623        0.354      159.356       30.346        0.036      346.866       25.420      861.195
07/17/2014  23:16:00     -150.724     -159.585       -4.196       67.221       83.369       44.109     4518.715     6950.413     1945.622        3.081        0.671      219.511       38.264        0.030      346.892       25.464      861.206
07/17/2014  23:17:00     -125.652     -115.901        9.910       83.960       74.943       41.882     7049.271     5616.409     1754.095        2.187        0.721      170.943       33.802        0.039      346.865       25.419      861.200
07/17/2014  23:18:00     -199.275      -96.638       -6.147       57.009       60.953       40.235     3249.976     3715.283     1618.865        2.883        0.429      221.471       28.598        0.017      346.830       25.356      861.193
07/17/2014  23:19:00     -161.154      -99.854       -1.183       85.222       63.817       42.551     7262.738     4072.554     1810.555        2.454        0.657      189.582       43.299        0.052      346.804       25.311      861.192
07/17/2014  23:20:00     -118.612      -65.895        3.739       77.935       70.570       40.674     6073.846     4980.146     1654.383        1.556        0.635      135.688       31.879        0.055      346.866       25.419      861.189
07/17/2014  23:21:00     -144.521      -76.671        5.439      109.448       73.635       41.230    11978.849     5422.113     1699.888        2.294        0.955      163.599       51.386        0.099      346.818       25.336      861.178
07/17/2014  23:22:00     -165.889      -95.569        0.559       90.018       77.755       42.094     8103.298     6045.890     1771.896        2.628        0.796      191.449       44.787        0.055      346.840       25.375      861.184
07/17/2014  23:23:00     -220.320     -104.020       -9.099       64.732       67.868       37.990     4190.260     4606.060     1443.278        3.484        0.512      243.641       37.369        0.024      346.759       25.233      861.201
07/17/2014  23:24:00     -137.240      -16.130        5.433       68.768       52.688       38.788     4729.001     2776.052     1504.520        1.407        0.450      138.185       35.009        0.064      346.671       25.086      861.217
07/17/2014  23:25:00     -266.625       33.777      -26.708       44.233       45.872       27.278     1956.551     2104.245      744.114        3.887        0.240      268.755       25.136        0.009      346.657       25.058      861.233
07/17/2014  23:26:00     -182.532        8.572      -19.010       53.268       56.759       27.660     2837.473     3221.554      765.055        2.029        0.341      182.734       23.473        0.017      346.566       24.904      861.261
07/17/2014  23:27:00     -191.761       49.909      -21.109       57.678       55.755       38.873     3326.696     3108.612     1511.112        2.383        0.397      198.149       39.027        0.039      346.524       24.831      861.274
07/17/2014  23:28:00     -139.449       14.873      -13.637       37.264       37.743       21.376     1388.621     1424.524      456.924        1.156        0.164      140.240       16.627        0.014      346.524       24.834      861.260
07/17/2014  23:29:00      -68.266       57.716      -27.025       22.534       42.866       18.298      507.804     1837.521      334.803        0.570        0.134       89.395       19.989        0.050      346.531       24.846      861.259
07/17/2014  23:30:00      -84.296       57.389      -19.665       18.314       44.167       15.948      335.406     1950.693      254.339        0.666        0.127      101.977       11.250        0.012      346.523       24.832      861.269
07/17/2014  23:31:00      -23.047        0.705      -11.637       16.453       15.024       11.228      270.697      225.731      126.067        0.064        0.031       23.058        6.799        0.087      346.622       25.003      861.270
07/17/2014  23:32:00      -15.399        2.549       -5.598       15.434       10.560        9.583      238.222      111.522       91.831        0.036        0.022       15.609        2.097        0.018      346.574       24.919      861.261
07/17/2014  23:33:00       -0.478      -12.066      -10.885       18.016       10.552        9.560      324.591      111.351       91.388        0.040        0.026       12.076        9.187        0.579      346.476       24.751      861.258
07/17/2014  23:34:00       -3.862      -46.948       -8.761       15.607       16.494       11.537      243.583      272.039      133.112        0.147        0.032       47.107        6.438        0.019      346.491       24.776      861.244
07/17/2014  23:35:00      -14.991      -42.812        4.809       10.813       22.449       12.508      116.926      503.966      156.455        0.143        0.039       45.361       10.148        0.050      346.651       25.051      861.220
07/17/2014  23:36:00      -27.661      -41.133        3.338       22.152       19.317       12.125      490.722      373.158      147.006        0.174        0.051       49.569        9.838        0.039      346.727       25.183      861.208
07/17/2014  23:37:00      -30.407      -19.428        6.632       19.226       18.832       11.604      369.646      354.647      134.656        0.110        0.043       36.084        7.180        0.040      346.593       24.951      861.216
07/17/2014  23:38:00      -51.297      -34.502       -5.223       16.655       11.704        9.264      277.392      136.987       85.814        0.217        0.025       61.820        7.437        0.014      346.707       25.148      861.211
07/17/2014  23:39:00      -36.778      -20.104       -4.118        9.423        8.837        6.389       88.792       78.094       40.825        0.099        0.010       41.914        4.142        0.010      346.660       25.067      861.212
07/17/2014  23:40:00      -41.500      -13.188       -0.418       19.102       13.512        6.912      364.871      182.565       47.770        0.125        0.030       43.545        8.335        0.037      346.619       24.997      861.220
07/17/2014  23:41:00      -62.339       -0.210       -4.655        8.440        9.127        5.099       71.240       83.304       26.002        0.204        0.009       62.339        3.877        0.004      346.609       24.977      861.244
07/17/2014  23:42:00      -59.537      -10.796      -11.025        6.108       11.638        6.097       37.304      135.432       37.172        0.200        0.010       60.508        3.500        0.003      346.650       25.053      861.268
07/17/2014  23:43:00      -55.681      -30.646       -3.531       15.585       12.046       10.144      242.894      145.117      102.898        0.227        0.025       63.557        9.520        0.022      346.582       24.930      861.283
07/17/2014  23:44:00      -40.361      -20.045       -0.865       26.638       18.185       13.013      709.589      330.707      169.346        0.162        0.060       45.064        8.608        0.036      346.450       24.706      861.291
07/17/2014  23:45:00      -17.620      -21.009        2.762       21.489       17.542       14.640      461.773      307.719      214.327        0.087        0.049       27.420       12.258        0.200      346.410       24.638      861.295
07/17/2014  23:46:00       -9.626      -21.352       10.109       29.381       20.091       14.935      863.270      403.639      223.043        0.107        0.074       23.421       13.917        0.353      346.381       24.589      861.308
07/17/2014  23:47:00      -27.558      -34.882        4.144       22.052       16.301       14.803      486.302      265.725      219.125        0.148        0.049       44.455       13.154        0.088      346.475       24.749      861.321
07/17/2014  23:48:00      -52.366      -60.595       -1.407       36.797       30.935       19.678     1353.984      956.998      387.228        0.456        0.135       80.087       20.415        0.065      346.631       25.017      861.332
07/17/2014  23:49:00      -41.702      -58.717        1.814       37.703       53.358       19.232     1421.553     2847.114      369.863        0.491        0.232       72.019       18.279        0.064      346.626       25.010      861.343
07/17/2014  23:50:00      -45.002      -82.051        6.456       33.200       37.911       25.438     1102.253     1437.276      647.109        0.599        0.159       93.582       17.063        0.033      346.623       25.002      861.346
07/17/2014  23:51:00      -41.715     -100.218        1.230       30.352       44.889       20.251      921.216     2015.018      410.105        0.757        0.167      108.553       19.007        0.031      346.643       25.037      861.350
07/17/2014  23:52:00      -84.848     -146.748       -3.228       41.911       43.749       24.699     1756.501     1913.947      610.018        1.651        0.214      169.512       20.080        0.014      346.577       24.924      861.344
07/17/2014  23:53:00      -86.068     -129.030       -9.718       48.970       49.174       27.019     2398.033     2418.070      730.023        1.485        0.277      155.101       25.258        0.027      346.565       24.904      861.347
07/17/2014  23:54:00      -80.712     -108.435        2.372       42.730       52.649       24.792     1825.858     2771.925      614.620        1.174        0.261      135.176       20.100        0.022      346.520       24.827      861.335
07/17/2014  23:55:00      -84.358     -116.932       -1.235       60.525       61.931       32.974     3663.224     3835.418     1087.286        1.469        0.429      144.185       29.451        0.042      346.493       24.780      861.326
07/17/2014  23:56:00      -82.186     -105.587        2.409       44.790       60.200       27.916     2006.146     3624.067      779.314        1.216        0.320      133.803       26.380        0.039      346.458       24.719      861.315
07/17/2014  23:57:00      -83.799      -83.496        2.262       54.644       49.992       22.894     2986.009     2499.223      524.152        1.000        0.300      118.296       20.911        0.031      346.461       24.722      861.324
07/17/2014  23:58:00      -56.772      -81.069       -0.949       38.921       38.383       25.716     1514.844     1473.236      661.315        0.672        0.182       98.971       20.065        0.041      346.456       24.716      861.331
07/17/2014  23:59:00     -113.410      -33.725       -6.222       39.102       31.042       26.764     1528.988      963.610      716.320        0.862        0.160      118.318       20.000        0.029      346.433       24.677      861.336
